     2              OBSERVATION DATA    GPS                 RINEX VERSION / TYPE
teqc 2002Apr3 20050407 16:50:13UTC                          PGM / RUN BY / DATE
                                                            COMMENT
L2: 1 -> 1; 150 -> 5; 250 -> 9                              COMMENT
L2: 1 -> 1; 150 -> 5; 250 -> 9                              COMMENT
L2: 1 -> 1; 150 -> 5; 250 -> 9                              COMMENT
L2: 1 -> 1; 150 -> 5; 250 -> 9                              COMMENT
L2: 1 -> 1; 150 -> 5; 250 -> 9                              COMMENT
Original Marker Name: TJE1                                  COMMENT
Campaign Name: Rose Canyon Resurvey                         COMMENT
4-Character Station Name: TJE1                              COMMENT
6-Character Antenna Code: DMRCHT                            COMMENT
Vertical Measurement Point: BPA                             COMMENT
Vertical Offset to Rinex Ref. Point: 0.0000                 COMMENT
Radial Measurement Point: RRP                               COMMENT
Radial Offset to Rinex Ref. Point: 0.0000                   COMMENT
Antenna Height from Field Measurement: 0.8900 m             COMMENT
Additional Antenna Identification Info.:                    COMMENT
Turborogue and Ashtech Choke Ring                           COMMENT
Original XYZ: 0.0000 0.0000 0.0000                          COMMENT
New XYZ position is based on association with SCEC monument COMMENT
E1C8F7V8+0011. Position of that monument is believed to be  COMMENT
valid to within 1 m horizontally; vertical accuracy         COMMENT
should be no worse than 3-times this value.                 COMMENT
                                                            COMMENT
Revised Rinex header created by UCSD GPS archive for        COMMENT
GSAC on 21-Jul-2005 (2005:202) 16:56:40 GMT                 COMMENT
For assistance contact dagnew@ucsd.edu                      COMMENT
or anderson@python.ucsd.edu                                 COMMENT
                                                            COMMENT
TJE1 1998                                                   MARKER NAME
AJB SCRIPPS INSTITUTION OF OCEANOGRAPHY                     OBSERVER / AGENCY
319 ASHTECH Z-XII3 CC00                                     REC # / TYPE / VERS
756 DORNE-MARGOL. TYPE T                                    ANT # / TYPE
 -2452326.0000 -4791240.0000  3410759.0000                  APPROX POSITION XYZ
        0.8900        0.0000        0.0000                  ANTENNA: DELTA H/E/N
     1     1     0                                          WAVELENGTH FACT L1/2
     7    C1    L1    L2    P1    P2    S1    S2            # / TYPES OF OBSERV
     0                                                      INTERVAL
  2005     3    30    16    31   30.000000                  TIME OF FIRST OBS
  2005     3    30    23    59   30.000000                  TIME OF LAST OBS
                                                            END OF HEADER
 05  3 30 16 31 30.0000000  0  4G 5G 4G 2G30
  20520669.2394      24053.48059     17437.00547  20520669.0064   20520673.4344
       242.0004        211.0004
                    225066.50659    163367.33443
       211.0004         74.0004
  20894350.1854     114475.09059     80348.58347  20894350.0224   20894352.2674
       241.0004        208.0004
  21582188.8424    -148077.83159   -102894.64647  21582189.1614   21582193.2724
       239.0004        197.0004
 05  3 30 16 31 59.9990000  0  5G 5G 4G 2G30G10
  20222912.9144      34754.36349     25775.33348  20222912.7994   20222917.4014
       245.0004        213.0004
                    326039.41149    242047.45544                  23873806.3324
       213.0004        120.0004
  20604109.2664     164668.68349    119460.46247  20604109.1924   20604111.2674
       242.0004        209.0004
  21270418.1864    -211022.21649   -151942.22047  21270418.9754   21270422.7814
       239.0004        199.0004
  21547486.3474    -196473.04249   -146483.97247  21547485.5464   21547490.7664
       235.0004        188.0004
 05  3 30 16 32 30.0000000  0  7G 6G 5G 4G 2G30G10G 9
  23424120.5974   -1758396.21259  -1357018.30545  23424120.3494   23424125.9694
       213.0004        149.0004
  20226921.8234   -1519599.30749  -1185409.35047  20226921.7434   20226926.3184
       244.0004        212.0004
  23894888.7564   -1138562.90049   -899201.12845  23894888.2534   23894894.6234
       214.0004        143.0004
  20615599.2264   -1350370.91049  -1061089.87547  20615599.3984   20615601.3334
       243.0004        210.0004
  21260387.2364   -1839155.01949  -1420617.11947  21260388.4894   21260392.2044
       242.0004        199.0004
  21537087.6634   -1826534.52349  -1416661.73747  21537087.4554   21537093.3514
       235.0004        189.0004
  24219186.3944   -1205079.24059   -960954.51445  24219188.2354   24219195.0934
       212.0004        141.0004
 05  3 30 16 33  0.0000000  0  7G 6G 5G 4G 2G30G10G 9
  23411400.7354   -1825238.01549  -1409102.79845  23411401.4144   23411406.5614
       215.0004        152.0004
  20228946.2064   -1508961.58549  -1177120.22047  20228945.7924   20228950.3814
       242.0004        210.0004
  23913891.9604   -1038702.53349   -821387.90445  23913892.6374   23913897.4144
       210.0004        144.0004
  20625069.9444   -1300602.32549  -1022309.16147  20625069.8414   20625071.7644
       241.0004        209.0004
  21248347.9524   -1902423.95659  -1469917.79847  21248348.7344   21248352.6144
       241.0004        197.0004
  21524690.5854   -1891682.08249  -1467426.03147  21524690.0474   21524696.2444
       233.0004        188.0004
  24237158.9614   -1110637.34659   -887363.41144  24237158.0954   24237156.0224
       209.0004        131.0004
 05  3 30 16 33 30.0000000  0  7G 6G 5G 4G 2G30G10G 9
  23398684.0024   -1892065.59349  -1461176.19645  23398683.7984   23398689.8054
       211.0004        156.0004
  20231074.1564   -1497779.42749  -1168406.86047  20231073.6894   20231078.2664
       241.0004        212.0004
  23932898.1004    -938825.36649   -743561.58645  23932899.0594   23932903.2084
       211.0004        145.0004
  20634609.1974   -1250473.59949   -983247.82347  20634609.2974   20634610.8884
       242.0004        209.0004
  21236388.0614   -1965274.36649  -1518892.12347  21236388.6644   21236392.3604
       240.0004        199.0004
  21512382.3334   -1956362.74249  -1517826.52847  21512381.7084   21512387.4444
       235.0004        188.0004
  24255126.4644   -1016219.32758   -813790.74244  24255130.8924   24255134.2824
       182.0004        119.0004
 05  3 30 16 34  0.0000000  0  7G 6G 5G 4G 2G30G10G 9
  23385970.0204   -1958878.49249  -1513238.41145  23385970.8294   23385978.3504
       216.0004        155.0004
  20233306.0054   -1486051.13649  -1159267.95047  20233305.7644   20233310.3124
       243.0004        212.0004
  23951907.3524    -838932.05149   -665722.70245  23951907.6094   23951912.4794
       211.0004        145.0004
  20644216.8084   -1199985.61949   -943906.55247  20644216.8364   20644218.6644
       243.0004        210.0004
  21224508.1694   -2027703.84949  -1567538.48647  21224508.3994   21224512.6674
       240.0004        200.0004
  21500163.6694   -2020572.41449  -1567859.98547  21500163.4874   21500168.6374
       234.0004        190.0004
  24273089.1474    -921826.19759   -740237.85445  24273089.7804   24273094.9014
       212.0004        140.0004
 05  3 30 16 34 30.0000000  0  7G 6G 5G 4G 2G30G10G 9
  23373258.9014   -2025677.06949  -1565289.21445  23373258.7004   23373264.5454
       209.0004        156.0004
  20235641.3574   -1473779.05249  -1149705.29247  20235641.1774   20235645.5064
       243.0004        212.0004
  23970918.6924    -739026.85849   -587874.55445  23970919.5184   23970923.8004
       209.0004        144.0004
  20653891.8994   -1149142.96249   -904288.91247  20653891.9184   20653893.7654
       242.0004        210.0004
  21212708.3764   -2089712.25949  -1615856.72047  21212709.0174   21212712.7834
       240.0004        200.0004
  21488034.7704   -2084310.61649  -1617526.08847  21488034.0944   21488039.7644
       234.0004        190.0004
  24291045.8164    -827463.86459   -666708.70945  24291047.8574   24291053.6064
       212.0004        145.0004
 05  3 30 16 35  0.0000000  0  7G 6G 5G 4G 2G30G10G 9
  23360550.7174   -2092460.20249  -1617327.99845  23360550.8874   23360556.4784
       216.0004        158.0004
  20238080.6334   -1460960.98249  -1139717.19747  20238080.3494   20238084.7844
       244.0004        212.0004
  23989932.3394    -639109.53649   -510016.94945  23989932.9254   23989937.8544
       213.0004        145.0004
  20663634.5034   -1097945.54749   -864394.82947  20663634.2744   20663636.4514
       244.0004        210.0004
  21200989.5464   -2151295.23849  -1663843.45047  21200990.0104   21200993.9004
       241.0004        201.0004
  21475996.4894   -2147572.65249  -1666821.15247  21475995.8674   21476001.3944
       236.0004        191.0004
  24308996.7824    -733131.93349   -593203.65745  24308997.6014   24309001.8504
       213.0004        145.0004
 05  3 30 16 35 30.0000000  0  7G 6G 5G 4G 2G30G10G 9
  23347845.2274   -2159228.02149  -1669354.85945  23347845.3834   23347849.8504
       214.0004        158.0004
  20240623.6764   -1447597.42349  -1129304.04947  20240623.5184   20240628.0204
       243.0004        212.0004
  24008947.8944    -539182.32149   -432151.64645  24008948.7314   24008953.3614
       211.0004        144.0004
  20673444.0814   -1046395.89149   -824226.27747  20673443.9634   20673445.9324
       241.0004        209.0004
  21189352.0094   -2212450.99049  -1711497.27147  21189352.3374   21189356.4774
       239.0004        201.0004
  21464049.2414   -2210356.14549  -1715743.32947  21464048.5084   21464054.1484
       234.0004        191.0004
  24326941.1764    -638834.14149   -519724.89445  24326941.3194   24326948.0994
       211.0004        147.0004
 05  3 30 16 36  0.0000000  0  7G 6G 5G 4G 2G30G10G 9
  23335142.8674   -2225979.54649  -1721368.98845  23335143.0574   23335147.3944
       215.0004        158.0004
  20243270.7224   -1433687.38949  -1118465.07847  20243270.5054   20243274.9084
       244.0004        212.0004
  24027965.1634    -439246.22149   -354279.41545  24027965.4064   24027970.1624
       211.0004        144.0004
  20683320.4324    -994495.32449   -783784.28747  20683320.3854   20683322.4064
       242.0004        209.0004
  21177796.4134   -2273176.07249  -1758815.50947  21177797.0464   21177801.1154
       240.0004        201.0004
  21452193.7264   -2272657.51349  -1764289.81647  21452193.5454   21452198.3424
       235.0004        192.0004
  24344878.7194    -544572.31159   -446274.21545  24344879.3414   24344886.1394
       211.0004        148.0004
 05  3 30 16 36 30.0000000  0  7G 6G 5G 4G 2G30G10G 9
  23322443.1664   -2292717.44849  -1773372.52545  23322443.6684   23322448.5254
       216.0004        159.0004
  20246021.2004   -1419233.60849  -1107202.40847  20246020.9514   20246025.4574
       243.0004        212.0004
  24046983.3494    -339305.90349   -276403.90445  24046984.0894   24046988.8934
       212.0004        144.0004
  20693262.6024    -942249.04949   -743072.91847  20693262.6724   20693264.3844
       241.0004        209.0004
  21166322.6534   -2333471.35649  -1805798.84547  21166323.4194   21166327.1614
       240.0004        201.0004
  21440429.8714   -2334476.89549  -1812460.74247  21440429.2404   21440435.0454
       235.0004        192.0004
  24362808.4314    -450352.05549   -372855.89345  24362808.6984   24362814.4704
       211.0004        147.0004
 05  3 30 16 37  0.0000000  0  7G 6G 5G 4G 2G30G10G 9
  23309746.5164   -2359438.91249  -1825363.24545  23309746.9184   23309751.9664
       217.0004        160.0004
  20248875.7034   -1404233.41949  -1095513.95747  20248875.4854   20248879.9064
       244.0004        212.0004
  24066002.5124    -239360.50149   -198524.40745  24066002.4434   24066007.4824
       213.0004        144.0004
  20703270.6684    -889656.52449   -702091.73447  20703270.5544   20703272.4634
       242.0004        209.0004
  21154931.6024   -2393331.73049  -1852443.28447  21154931.9954   21154935.7814
       241.0004        201.0004
  21428758.7234   -2395809.19649  -1860252.11547  21428757.6904   21428763.4724
       235.0004        192.0004
  24380730.0324    -356173.81849   -299470.35645  24380730.3224   24380737.0864
       209.0004        146.0004
 05  3 30 16 37 30.0000000  0  7G 6G 5G 4G 2G30G10G 9
  23297052.7924   -2426145.04049  -1877342.01445  23297053.0164   23297057.5234
       216.0004        160.0004
  20251833.9324   -1388687.97549  -1083400.64047  20251833.5374   20251837.9514
       243.0004        212.0004
  24085021.9084    -139412.96449   -120643.27445  24085022.9864   24085028.1594
       209.0004        144.0004
  20713344.0174    -836721.00049   -660843.28247  20713343.9104   20713345.9434
       241.0004        209.0004
  21143623.5914   -2452756.04449  -1898747.93847  21143623.7944   21143627.5464
       240.0004        201.0004
  21417180.6074   -2456652.80649  -1907662.69147  21417179.8254   21417185.6864
       234.0004        191.0004
  24398642.9444    -262041.27049   -226120.40345  24398642.6514   24398649.3944
       207.0004        144.0004
 05  3 30 16 38  0.0000000  0  7G 6G 5G 4G 2G30G10G 9
  23284362.2084   -2492835.10649  -1929308.28345  23284361.9624   23284366.9314
       217.0004        161.0004
  20254896.0514   -1372596.53849  -1070861.88047  20254895.7974   20254900.3124
       244.0004        212.0004
  24104041.4744     -39464.52949    -42761.44645  24104042.0594   24104047.5094
       211.0004        144.0004
  20723482.3064    -783444.10249   -619328.83247  20723482.3824   20723484.4934
       242.0004        209.0004
  21132399.0284   -2511741.55649  -1944710.67747  21132399.5944   21132403.6484
       242.0004        202.0004
  21405696.0824   -2517004.35649  -1954689.85147  21405695.3754   21405701.1514
       236.0004        192.0004
  24416546.6704    -167956.90549   -152807.99745  24416546.9164   24416553.0454
       209.0004        144.0004
 05  3 30 16 38 30.0000000  0  7G 6G 5G 4G 2G30G10G 9
  23271674.5904   -2559509.12449  -1981262.03345  23271674.0554   23271679.5384
       218.0004        161.0004
  20258061.9604   -1355959.70149  -1057898.12647  20258061.8464   20258066.3574
       245.0004        212.0004
  24123060.9584      60482.83749     35119.55145  24123061.8224   24123066.7984
       211.0004        144.0004
  20733685.0804    -729828.23649   -577550.24247  20733685.1584   20733686.9754
       243.0004        209.0004
  21121258.3494   -2570286.39449  -1990330.02847  21121259.0374   21121262.5994
       242.0004        202.0004
  21394305.6244   -2576861.76849  -2001331.96347  21394304.9714   21394310.3624
       236.0004        192.0004
  24434440.6554     -73923.78649    -79535.51045  24434441.4384   24434447.1094
       210.0004        143.0004
 05  3 30 16 39  0.0000000  0  7G 6G 5G 4G 2G30G10G 9
  23258989.9304   -2626167.50149  -2033203.60045  23258989.8964   23258994.6834
       217.0004        161.0004
  20261331.5704   -1338778.09549  -1044509.87247  20261331.2624   20261335.7794
       243.0004        212.0004
  24142079.7034     160426.86449    112997.96345  24142080.9854   24142085.1844
       211.0004        143.0004
  20743951.8874    -675875.99449   -535509.53947  20743951.8514   20743953.7534
       241.0004        209.0004
  21110201.8104   -2628388.77049  -2035604.59947  21110202.2714   21110206.1614
       240.0004        202.0004
  21383009.5994   -2636222.65149  -2047587.16147  21383009.0314   21383014.2404
       234.0004        192.0004
  24452324.2284      20054.78349     -6305.56345  24452323.9684   24452331.1224
       206.0004        140.0004
 05  3 30 16 39 30.0000000  0  7G 6G 5G 4G 2G30G10G 9
  23246308.4454   -2692809.03549  -2085132.05245  23246307.9864   23246313.5294
       219.0004        161.0004
  20264705.0204   -1321050.72949  -1030696.35247  20264704.7374   20264709.0724
       246.0004        212.0004
  24161097.5784     260366.56349    190872.99545  24161098.7694   24161102.9684
       209.0004        143.0004
  20754282.4514    -621588.67049   -493207.73847  20754282.5194   20754284.5614
       243.0004        209.0004
  21099230.1324   -2686045.37649  -2080531.82247  21099230.7074   21099234.4984
       242.0004        202.0004
  21371808.7644   -2695083.47249  -2093452.70447  21371808.1854   21371813.6374
       237.0004        192.0004
  24470197.0874     113977.06849     66880.52045  24470197.6854   24470204.8244
       208.0004        139.0004
 05  3 30 16 40  0.0000000  0  7G 6G 5G 4G 2G30G10G 9
  23233629.8574   -2759434.61449  -2137048.07145  23233628.9534   23233634.2604
       218.0004        161.0004
  20268182.0304   -1302779.04849  -1016458.69147  20268181.7304   20268186.0904
       243.0004        212.0004
  24180114.1564     360299.27649    268742.56445  24180114.5154   24180120.2904
       211.0004        143.0004
  20764676.1194    -566969.65949   -450647.47947  20764676.0844   20764677.9524
       241.0004        209.0004
  21088343.4754   -2743255.22949  -2125110.92847  21088343.9534   21088347.8684
       240.0004        202.0004
  21360703.2914   -2753443.04749  -2138927.67747  21360702.4934   21360708.1354
       235.0004        192.0004
  24488058.5274     207838.96249    140019.56345  24488059.2894   24488064.7434
       206.0004        141.0004
 05  3 30 16 40 30.0000000  0  7G 6G 5G 4G 2G30G10G 9
  23220954.6814   -2826043.18549  -2188950.84045  23220954.4484   23220959.3514
       218.0004        162.0004
  20271762.8124   -1283962.05449  -1001796.11147  20271762.6314   20271767.0314
       244.0004        212.0004
  24199129.3024     460223.98249    346605.90945  24199129.9914   24199135.2904
       210.0004        143.0004
  20775132.7224    -512020.05849   -407829.61447  20775132.6654   20775134.7944
       241.0004        208.0004
  21077542.4504   -2800015.21649  -2169339.48747  21077542.9714   21077546.9424
       241.0004        202.0004
  21349693.9014   -2811297.79749  -2184009.27647  21349693.3054   21349699.0674
       235.0004        193.0004
  24505908.2094     301638.82749    213110.30445  24505909.8624   24505914.8424
       210.0004        142.0004
 05  3 30 16 41  0.0000000  0  7G 6G 5G 4G 2G30G10G 9
  23208282.6164   -2892635.13349  -2240840.64645  23208282.8204   23208288.2644
       218.0004        162.0004
  20275447.2594   -1264600.39249   -986709.11347  20275446.8704   20275451.3904
       243.0004        212.0004
  24218142.4674     560138.58149    424461.36245  24218143.0984   24218148.4954
       209.0004        142.0004
  20785651.6784    -456742.68549   -364756.34947  20785651.5134   20785653.6194
       241.0004        208.0004
  21066827.3484   -2856323.56349  -2213216.12547  21066827.8194   21066831.6114
       241.0004        202.0004
  21338780.9804   -2868645.82449  -2228696.02447  21338780.5004   21338786.4064
       236.0004        193.0004
  24523745.3834     395373.49149    286150.22245  24523745.5344   24523753.1814
       209.0004        143.0004
 05  3 30 16 41 30.0000000  0  7G 6G 5G 4G 2G30G10G 9
  23195613.9544   -2959209.65149  -2292716.87745  23195613.9514   23195618.6634
       217.0004        162.0004
  20279235.3834   -1244693.73649   -971197.44547  20279235.1684   20279239.5454
       243.0004        212.0004
  24237153.4514     660041.90949    502308.05945  24237153.2384   24237157.8354
       210.0004        142.0004
  20796232.6714    -401139.18049   -321428.95447  20796232.5684   20796234.6364
       240.0004        208.0004
  21056198.6834   -2912177.59949  -2256738.75047  21056199.0674   21056202.9764
       241.0004        202.0004
  21327964.9644   -2925484.24149  -2272985.68047  21327963.9284   21327969.9284
       235.0004        193.0004
  24541569.6634     489040.41249    359137.35045  24541569.1854   24541576.2214
       205.0004        141.0004
 05  3 30 16 42  0.0000000  0  7G 6G 5G 4G 2G30G10G 9
  23182948.6084   -3025766.24649  -2344579.13945  23182948.3194   23182953.9164
       216.0004        162.0004
  20283127.2514   -1224242.13049   -955261.14347  20283127.1034   20283131.4854
       243.0004        212.0004
  24256161.9994     759932.27949    580144.63145  24256162.9584   24256168.6504
       211.0004        142.0004
  20806875.3724    -345211.51249   -277848.96247  20806875.2904   20806877.4274
       241.0004        208.0004
  21045656.9674   -2967574.90249  -2299905.47747  21045657.3754   21045661.4754
       241.0004        203.0004
  21317246.4644   -2981810.21249  -2316876.02847  21317245.8684   21317251.4424
       236.0004        194.0004
  24559380.5304     582637.05649    432069.70845  24559381.0244   24559387.0644
       206.0004        143.0004
 05  3 30 16 42 30.0000000  0  7G 6G 5G 4G 2G30G10G 9
  23170286.5334   -3092305.53049  -2396427.90246  23170286.3754   23170291.8184
       218.0004        163.0004
  20287122.6184   -1203246.36049   -938900.81847  20287122.4074   20287126.7534
       245.0004        212.0004
  24275167.6804     859807.58049    657969.47945  24275167.7614   24275172.7184
       212.0004        141.0004
  20817579.2224    -288962.45649   -234018.54247  20817579.2004   20817581.2844
       241.0004        207.0004
  21035202.4674   -3022514.05449  -2342715.20147  21035203.1324   21035206.6564
       242.0004        203.0004
  21306625.8924   -3037621.93449  -2360365.65947  21306625.2704   21306630.8234
       237.0004        194.0004
  24577177.5494     676159.99449    504944.63745  24577177.7244   24577185.3444
       209.0004        145.0004
 05  3 30 16 43  0.0000000  0  7G 6G 5G 4G 2G30G10G 9
  23157628.0324   -3158826.70349  -2448262.56646  23157627.8784   23157633.9034
       218.0004        163.0004
  20291221.6544   -1181706.08949   -922116.20747  20291221.4104   20291225.8964
       243.0004        212.0004
  24294170.2624     959666.47749    735781.54345  24294171.0954   24294175.4114
       208.0004        141.0004
  20828343.8734    -232393.85349   -189939.13047  20828343.6084   20828345.6484
       241.0004        207.0004
  21024835.6074   -3076992.28949  -2385165.77647  21024835.9494   21024839.6614
       241.0004        203.0004
  21296103.7034   -3092916.18849  -2403452.08047  21296103.0654   21296108.3244
       235.0004        194.0004
  24594960.0164     769606.98749    577760.41645  24594960.5434   24594966.9324
       209.0004        146.0004
 05  3 30 16 43 30.0000000  0  7G 6G 5G 4G 2G30G10G 9
  23144972.9684   -3225329.62649  -2500083.00746  23144972.7994   23144978.0484
       218.0004        163.0004
  20295424.1604   -1159621.78549   -904907.67947  20295423.9604   20295428.2944
       243.0004        212.0004
  24313169.3734    1059507.22449    813579.44445  24313170.2624   24313174.8394
       208.0004        141.0004
  20839168.9804    -175507.55749   -145612.16747  20839168.9644   20839171.1864
       240.0004        207.0004
  21014556.8114   -3131007.57949  -2427255.62047  21014557.1754   21014561.0844
       241.0004        203.0004
  21285680.4954   -3147690.62449  -2446133.43947  21285679.8804   21285684.9824
       235.0004        194.0004
  24612727.4844     862975.21249    650514.78445  24612728.2534   24612734.7634
       210.0004        147.0004
 05  3 30 16 44  0.0000000  0  7G 6G 5G 4G 2G30G10G 9
  23132321.3624   -3291814.05649  -2551889.03446  23132321.2274   23132327.0174
       219.0004        163.0004
  20299730.0984   -1136994.12149   -887275.74647  20299729.7894   20299734.0924
       243.0004        212.0004
  24332164.6994    1159328.11749    891361.89745  24332165.7424   24332170.2044
       208.0004        141.0004
  20850054.0814    -118306.21849   -101039.70847  20850054.0984   20850055.9094
       240.0004        207.0004
  21004366.4914   -3184558.10149  -2468983.29647  21004366.7494   21004370.6834
       241.0004        203.0004
  21275356.6024   -3201943.16649  -2488408.12347  21275355.8684   21275361.4754
       237.0004        194.0004
  24630479.4854     956261.77849    723205.52245  24630479.8044   24630486.5094
       209.0004        147.0004
 05  3 30 16 44 30.0000000  0  7G 6G 5G 4G 2G30G10G 9
  23119673.3804   -3358279.74249  -2603680.46246  23119672.8344   23119678.7534
       218.0004        164.0004
  20304139.4294   -1113822.91149   -869220.27847  20304139.1074   20304143.4784
       243.0004        212.0004
  24351155.9574    1259127.58749    969127.64345  24351157.1154   24351162.1384
       210.0004        141.0004
  20860998.7534     -60791.67249    -56223.20047  20860998.6514   20861000.5984
       240.0004        207.0004
  20994265.1234   -3237641.24849  -2510346.79447  20994265.4224   20994269.5064
       242.0004        204.0004
  21265132.4924   -3255671.28149  -2530274.17747  21265132.0454   21265137.0024
       237.0004        195.0004
  24648215.3854    1049464.33249    795830.84445  24648216.4554   24648222.5124
       210.0004        146.0004
 05  3 30 16 45  0.0000000  0  7G 6G 5G 4G 2G30G10G 9
  23107028.9314   -3424726.45249  -2655457.10146  23107028.8174   23107034.2534
       218.0004        164.0004
  20308652.1324   -1090108.67149   -850741.66047  20308651.7334   20308656.4024
       243.0004        212.0004
  24370142.9754    1358904.05849   1046875.46745  24370144.2604   24370147.5624
       210.0004        141.0004
  20872002.5714      -2966.38449    -11164.54947  20872002.5934   20872004.7014
       240.0004        207.0004
  20984253.0744   -3290255.09649  -2551344.59847  20984253.6144   20984257.4534
       241.0004        204.0004
  21255008.6294   -3308872.59449  -2571729.73047  21255007.7844   21255012.9374
       237.0004        195.0004
  24665934.8114    1142580.26049    868388.65245  24665933.5304   24665941.9084
       209.0004        146.0004
 05  3 30 16 45 30.0000000  0  7G 6G 5G 4G 2G30G10G 9
  23094388.2834   -3491153.66649  -2707218.54746  23094389.2374   23094393.0914
       219.0004        164.0004
  20313268.1534   -1065851.47149   -831839.95647  20313267.6674   20313272.4184
       244.0004        212.0004
  24389125.3394    1458655.95149   1124604.13745  24389125.6504   24389131.5814
       209.0004        140.0004
  20883065.1514      55167.75049     34134.76047  20883064.9354   20883067.1034
       241.0004        206.0004
  20974330.7274   -3342397.49149  -2591975.03547  20974331.0234   20974334.8144
       242.0004        204.0004
  21244985.5434   -3361544.29449  -2612772.59047  21244984.4334   21244990.1294
       238.0004        194.0004
  24683637.1764    1235606.77349    940876.77945  24683636.4844   24683643.6574
       208.0004        144.0004
 05  3 30 16 46  0.0000000  0  7G 6G 5G 4G 2G30G10G 9
  23081751.3754   -3557560.85949  -2758964.39646  23081750.8864   23081756.7094
       219.0004        164.0004
  20317987.4534   -1041051.44749   -812515.28647  20317987.0004   20317991.5584
       243.0004        212.0004
  24408102.7224    1558381.92949   1202312.61445  24408103.0524   24408109.0184
       206.0004        140.0004
  20894186.1724     113609.09649     79673.44947  20894186.2464   20894188.5764
       240.0004        206.0004
  20964498.5564   -3394065.92549  -2632236.16047  20964498.8194   20964502.7264
       241.0004        205.0004
  21235063.6314   -3413684.07749  -2653400.98347  21235063.1024   21235068.4734
       237.0004        195.0004
  24701322.0964    1328541.56049   1013293.41745  24701321.8114   24701328.4024
       208.0004        144.0004
 05  3 30 16 46 30.0000000  0  7G 6G 5G 4G 2G30G10G 9
  23069118.1424   -3623948.98849  -2810695.37546  23069118.5624   23069123.3204
       220.0004        164.0004
  20322809.7294   -1015710.24549   -792768.90947  20322809.1924   20322813.9454
       244.0004        212.0004
  24427074.5544    1658079.20949   1279998.73845  24427074.6384   24427080.0334
       207.0004        139.0004
  20905364.9854     172353.88349    125448.59247  20905364.9674   20905366.9044
       241.0004        206.0004
  20954756.7804   -3445259.47649  -2672127.23547  20954757.2734   20954760.9714
       242.0004        205.0004
  21225243.1914   -3465290.81649  -2693614.00347  21225242.1714   21225248.0304
       238.0004        195.0004
  24718988.9524    1421380.66349   1085635.49245  24718989.3604   24718996.8694
       208.0004        146.0004
 05  3 30 16 47  0.0000000  0  7G 6G 5G 4G 2G30G10G 9
  23056489.0234   -3690315.53249  -2862409.56146  23056489.5044   23056494.7864
       221.0004        164.0004
  20327735.3384    -989826.15749   -772599.51747  20327735.1724   20327739.6774
       245.0004        212.0004
  24446041.0144    1757748.44249   1357662.98545  24446041.2184   24446046.9624
       206.0004        138.0004
  20916601.5464     231402.20449    171460.24547  20916601.5484   20916603.6554
       241.0004        206.0004
  20945106.1104   -3495974.00649  -2711645.06647  20945106.8044   20945110.8484
       242.0004        205.0004
  21215525.0414   -3516360.01649  -2733408.18047  21215524.4284   21215529.9954
       238.0004        195.0004
  24736637.3984    1514123.58149   1157902.61445  24736637.3624   24736644.5494
       211.0004        148.0004
 05  3 30 16 47 30.0000000  0  7G 6G 5G 4G 2G30G10G 9
  23043863.7714   -3756662.31249  -2914108.34246  23043863.8354   23043868.8024
       220.0004        165.0004
  20332763.7864    -963401.63449   -752008.98847  20332763.3814   20332768.0064
       244.0004        212.0004
  24465001.2914    1857385.96849   1435302.54345  24465003.1514   24465007.7104
       209.0004        138.0004
  20927895.0724     290750.01349    217705.27547  20927894.9404   20927897.0014
       241.0004        206.0004
  20935546.6384   -3546209.47349  -2750789.58747  20935546.8134   20935550.8634
       242.0004        205.0004
  21205909.2094   -3566891.43549  -2772783.28547  21205908.5554   21205914.2354
       238.0004        195.0004
  24754266.8034    1606765.92949   1230091.39545  24754266.8384   24754273.8154
       209.0004        147.0004
 05  3 30 16 48  0.0000000  0  7G 6G 5G 4G 2G30G10G 9
  23031242.4884   -3822987.35449  -2965790.17546  23031242.3334   23031247.3504
       220.0004        165.0004
  20337895.3294    -936435.32349   -730996.29347  20337895.0784   20337899.6574
       244.0004        212.0004
  24483955.8504    1956991.98449   1512917.53145  24483956.0304   24483961.6604
       209.0004        138.0004
  20939245.5014     350396.68849    264183.18347  20939245.3824   20939247.5304
       241.0004        206.0004
  20926079.0244   -3595962.13749  -2789557.90247  20926079.2474   20926083.2574
       242.0004        205.0004
  21196396.4874   -3616881.21749  -2811736.33947  21196395.7514   21196401.6294
       238.0004        195.0004
  24771876.7234    1699306.55949   1302200.89845  24771876.6774   24771883.0634
       207.0004        144.0004
 05  3 30 16 48 30.0000000  0  7G 6G 5G 4G 2G30G10G 9
  23018625.2014   -3889291.59649  -3017455.79746  23018625.1174   23018630.4334
       219.0004        165.0004
  20343129.5574    -908929.24249   -709562.99747  20343129.0954   20343133.8604
       243.0004        212.0004
  24502903.7724    2056563.33049   1590505.53345  24502903.3634   24502910.8194
       207.0004        137.0004
  20950652.1684     410338.98849    310891.45347  20950651.9154   20950654.1924
       240.0004        206.0004
  20916703.4074   -3645231.42649  -2827949.56047  20916703.8674   20916707.7324
       242.0004        206.0004
  21186986.9554   -3666328.55749  -2850266.70547  21186985.9254   21186991.6474
       237.0004        195.0004
  24789466.4754    1791741.23149   1374227.84545  24789466.3104   24789472.6964
       203.0004        140.0004
 05  3 30 16 49  0.0000000  0  7G 6G 5G 4G 2G30G10G 9
  23006012.2084   -3955573.58649  -3069104.09446  23006011.9794   23006017.8024
       220.0004        166.0004
  20348466.6824    -880882.68249   -687708.55547  20348466.3604   20348471.0194
       244.0004        212.0004
  24521844.8634    2156099.99249   1668066.49145  24521845.5104   24521850.9464
       207.0004        137.0004
  20962114.8914     470575.69349    357829.12247  20962114.7204   20962116.7424
       242.0004        206.0004
  20907420.4254   -3694014.02049  -2865961.97847  20907420.9444   20907424.4474
       243.0004        206.0004
  21177681.3184   -3715229.95049  -2888371.67547  21177680.6374   21177685.8824
       239.0004        196.0004
  24807035.7784    1884068.60149   1446171.16545  24807036.0664   24807042.2024
       202.0004        137.0004
 05  3 30 16 49 30.0000000  0  7G 6G 5G 4G 2G30G10G 9
  22993403.3434   -4021833.56249  -3120735.22946  22993403.4284   22993408.4904
       221.0004        166.0004
  20353906.4424    -852296.58149   -665433.69047  20353906.0044   20353910.3694
       245.0004        212.0004
  24540779.2234    2255599.55149   1745598.54845  24540778.5434   24540784.5004
       208.0004        137.0004
  20973633.0894     531104.08349    404994.07847  20973632.8664   20973634.9294
       241.0004        205.0004
  20898230.3084   -3742308.47449  -2903594.02447  20898230.6564   20898234.3324
       243.0004        206.0004
  21168479.8724   -3763583.70649  -2926049.91347  21168478.8674   21168484.4614
       239.0004        196.0004
  24824584.1694    1976285.60849   1518028.49345  24824584.3584   24824592.2744
       204.0004        137.0004
 05  3 30 16 50  0.0000000  0  7G 6G 5G 4G 2G30G10G 9
  22980798.7414   -4088071.54749  -3172349.23946  22980799.5834   22980803.3074
       221.0004        166.0004
  20359448.6564    -823172.17149   -642739.36447  20359448.3274   20359452.9434
       243.0004        212.0004
  24559706.0134    2355060.27849   1823100.31445  24559706.5094   24559711.5804
       203.0004        137.0004
  20985206.2854     591921.71449    452384.41247  20985206.0244   20985208.4724
       241.0004        205.0004
  20889133.3404   -3790113.26449  -2940844.51847  20889134.1734   20889137.3604
       242.0004        206.0004
  21159382.9444   -3811388.34549  -2963300.25947  21159382.2054   21159388.1374
       237.0004        196.0004
  24842110.8934    2068388.93449   1589797.25245  24842112.1444   24842118.0194
       204.0004        139.0004
 05  3 30 16 50 30.0000000  0  7G 6G 5G 4G 2G30G10G 9
  22968198.5554   -4154285.83349  -3223944.76646  22968199.0674   22968203.2784
       223.0004        166.0004
  20365093.4854    -793508.52649   -619624.85147  20365093.0294   20365097.7734
       245.0004        212.0004
  24578625.4224    2454481.90449   1900571.63145  24578625.6024   24578631.0864
       206.0004        137.0004
  20996834.3964     653027.76849    499999.50547  20996834.4644   20996836.3294
       243.0004        205.0004
  20880130.2724   -3837424.93349  -2977710.75347  20880130.7164   20880134.5934
       244.0004        206.0004
  21150391.2244   -3858639.99249  -3000119.69547  21150390.7094   21150396.1274
       239.0004        196.0004
  24859615.8714    2160377.57449   1661476.64145  24859615.8864   24859624.2914
       207.0004        140.0004
 05  3 30 16 51  0.0000000  0  7G 6G 5G 4G 2G30G10G 9
  22955602.5494   -4220478.28149  -3275523.28146  22955602.1174   22955606.9364
       221.0004        167.0004
  20370840.3714    -763308.38749   -596092.29047  20370839.9014   20370844.5004
       244.0004        212.0004
  24597536.8504    2553860.91549   1978009.73945  24597536.0904   24597541.9314
       206.0004        136.0004
  21008516.5324     714417.67649    547835.78647  21008516.1774   21008518.3444
       242.0004        204.0004
  20871220.9754   -3884243.75749  -3014192.95247  20871221.3944   20871225.0884
       244.0004        207.0004
  21141504.7574   -3905338.81049  -3036508.35047  21141503.9314   21141509.7224
       238.0004        196.0004
  24877098.1414    2252246.84549   1733063.00245  24877098.6134   24877105.8194
       204.0004        140.0004
 05  3 30 16 51 30.0000000  0  7G 6G 5G 4G 2G30G10G 9
  22943011.2694   -4286645.74449  -3327082.32546  22943011.6144   22943016.4144
       222.0004        167.0004
  20376689.8454    -732569.47549   -572139.91947  20376689.5714   20376694.1764
       244.0004        212.0004
  24616440.0194    2653198.49849   2055415.54545  24616439.8934   24616445.2684
       203.0004        136.0004
  21020252.8854     776092.30949    595893.91647  21020253.2614   21020254.9324
       241.0004        204.0004
  20862406.3444   -3930565.05149  -3050287.47847  20862406.9264   20862410.5684
       244.0004        207.0004
  21132724.4174   -3951480.00649  -3072462.51047  21132723.6704   21132729.2994
       239.0004        197.0004
  24894557.5904    2343996.84849   1804556.45145  24894557.3274   24894565.1714
       203.0004        138.0004
 05  3 30 16 52  0.0000000  0  7G 6G 5G 4G 2G30G10G 9
  22930424.5354   -4352789.47849  -3378622.88646  22930423.9584   22930428.9004
       221.0004        167.0004
  20382641.3014    -701294.26849   -547769.63947  20382640.7814   20382645.4344
       243.0004        212.0004
  24635334.9804    2752491.39149   2132786.53045  24635336.8014   24635340.1534
       205.0004        136.0004
  21032042.6014     838047.62049    644170.77447  21032042.3004   21032044.2754
       241.0004        204.0004
  20853686.4484   -3976388.58649  -3085994.12047  20853686.7134   20853690.6704
       243.0004        207.0004
  21124050.2304   -3997063.14349  -3107981.80247  21124049.0854   21124054.5234
       238.0004        197.0004
  24911993.6474    2435623.39149   1875953.69645  24911994.3654   24912000.5334
       202.0004        136.0004
 05  3 30 16 52 30.0000000  0  7G 6G 5G 4G 2G30G10G 9
  22917842.2964   -4418909.53349  -3430144.98446  22917842.1184   22917847.4404
       221.0004        167.0004
  20388694.6994    -669483.65649   -522982.17047  20388694.4614   20388698.7414
       243.0004        211.0004
  24654221.1464    2851737.98149   2210121.43945  24654221.3284   24654226.8404
       205.0004        136.0004
  21043885.2904     900281.31049    692664.53647  21043884.9724   21043887.2204
       240.0004        204.0004
  20845061.5684   -4021712.68249  -3121311.60947  20845061.9244   20845065.5434
       243.0004        207.0004
  21115482.4934   -4042086.57549  -3143064.97447  21115481.8564   21115487.1984
       238.0004        197.0004
  24929405.5674    2527123.41249   1947252.32345  24929406.1014   24929413.3614
       199.0004        133.0004
 05  3 30 16 53  0.0000000  0  7G 6G 5G 4G 2G30G10G 9
  22905264.9494   -4485003.90249  -3481647.09246  22905264.9854   22905270.8664
       222.0004        168.0004
  20394850.1624    -637136.65949   -497776.73447  20394849.9194   20394854.4934
       243.0004        211.0004
  24673098.2614    2950938.27549   2287420.28245  24673098.2694   24673105.0824
       203.0004        135.0004
  21055780.8824     962792.91749    741374.85447  21055780.7964   21055782.9274
       240.0004        203.0004
  20836532.3824   -4066533.87649  -3156237.22747  20836532.9784   20836536.7464
       244.0004        208.0004
  21107021.9954   -4086546.67649  -3177709.19147  21107021.3834   21107026.9644
       240.0004        197.0004
  24946793.3274    2618495.95249   2018451.64045  24946794.1844   24946800.7504
       203.0004        132.0004
 05  3 30 16 53 30.0000000  0  6G 6G 5G 2G30G10G 9
  22892692.5424   -4551072.28649  -3533128.92046  22892692.8294   22892696.5954
       221.0004        168.0004
  20401107.5684    -604253.83149   -472153.76847  20401107.3374   20401111.7904
       243.0004        211.0004
  21067728.8404    1025580.18649    790299.97547  21067728.8454   21067730.9304
       240.0004        203.0004
  20828099.2924   -4110850.25049  -3190769.47147  20828099.8764   20828103.4964
       242.0004        208.0004
  21098669.1284   -4130441.30549  -3211912.77547  21098668.2064   21098673.7544
       238.0004        198.0004
  24964156.1354    2709738.61749   2089549.74745  24964155.1054   24964162.5874
       203.0004        132.0004
 05  3 30 16 54  0.0000000  0  6G 6G 5G 2G30G10G 9
  22880125.3174   -4617113.36849  -3584589.49746  22880125.4994   22880130.6264
       221.0004        168.0004
  20407466.8834    -570835.51949   -446113.54247  20407466.8054   20407471.2134
       244.0004        211.0004
  21079729.0094    1088641.45849    839438.60747  21079729.3874   21079731.2514
       241.0004        203.0004
  20819762.7184   -4154659.33449  -3224906.42247  20819763.5484   20819767.0954
       244.0004        208.0004
  21090424.3704   -4173767.69349  -3245673.57847  21090423.7634   21090429.4144
       239.0004        197.0004
  24981493.9084    2800849.49949   2160545.18545  24981494.3514   24981501.5014
       206.0004        132.0004
 05  3 30 16 54 30.0000000  0  6G 6G 5G 2G30G10G 9
  22867562.7304   -4683129.90349  -3636030.93246  22867562.8164   22867567.5564
       222.0004        169.0004
  20413927.3624    -536885.31649   -419658.85547  20413926.7034   20413931.4944
       244.0004        211.0004
  21091780.4584    1151972.01849    888787.08047  21091780.2944   21091782.4144
       241.0004        203.0004
  20811522.4994   -4197962.10149  -3258648.83247  20811522.7034   20811526.5974
       244.0004        208.0004
  21082287.5454   -4216526.96949  -3278992.47047  21082286.3774   21082292.2384
       240.0004        198.0004
  24998805.7844    2891823.39049   2231433.86445  24998806.9164   24998812.4094
       207.0004        133.0004
 05  3 30 16 55  0.0000000  0  6G 6G 5G 2G30G10G 9
  22855005.1204   -4749120.59049  -3687452.23246  22855005.3194   22855009.9204
       222.0004        169.0004
  20420489.1464    -502403.07649   -392789.59747  20420488.6204   20420493.4294
       243.0004        211.0004
  21103882.8544    1215570.43749    938344.27247  21103882.4964   21103884.6654
       240.0004        203.0004
  20803379.0994   -4240755.83849  -3291994.60047  20803379.0504   20803383.2654
       243.0004        208.0004
  21074259.1564   -4258716.30249  -3311867.25247  21074258.1754   21074263.7384
       238.0004        198.0004
  25016091.1414    2982658.38949   2302214.33745  25016090.4914   25016098.1594
       207.0004        134.0004
 05  3 30 16 55 30.0000000  0  6G 6G 5G 2G30G10G 9
  22842452.8734   -4815083.27849  -3738851.72346  22842453.3694   22842458.3644
       223.0004        169.0004
  20427152.2914    -467388.02049   -365505.17247  20427151.9574   20427156.7234
       244.0004        211.0004
  21116036.1104    1279436.06949    988109.66347  21116036.2024   21116038.3714
       241.0004        203.0004
  20795333.2244   -4283037.03749  -3324940.99947  20795333.6404   20795337.7374
       244.0004        208.0004
  21066339.9234   -4300332.04549  -3344295.09347  21066339.4574   21066345.0944
       239.0004        198.0004
  25033350.0704    3073353.79149   2372886.01445  25033350.6524   25033357.7624
       208.0004        137.0004
 05  3 30 16 56  0.0000000  0  6G 6G 5G 2G30G10G 9
  22829905.4664   -4881020.64849  -3790231.47046  22829905.6454   22829910.5504
       223.0004        170.0004
  20433916.0964    -431844.20849   -337808.71347  20433915.8144   20433920.5184
       244.0004        211.0004
  21128239.1824    1343563.68249   1038079.21347  21128239.0144   21128241.4104
       241.0004        203.0004
  20787384.6364   -4324807.26549  -3357489.22547  20787385.1534   20787389.0034
       245.0004        208.0004
  21058529.5924   -4341375.62049  -3376277.07447  21058529.0844   21058534.1614
       240.0004        199.0004
  25050581.2604    3163903.58249   2443444.20745  25050582.0334   25050588.4464
       211.0004        138.0004
 05  3 30 16 56 30.0000000  0  6G 6G 5G 2G30G10G 9
  22817363.3634   -4946929.40049  -3841588.91946  22817362.7784   22817368.9194
       222.0004        170.0004
  20440780.9354    -395769.30749   -309698.42147  20440780.4624   20440785.1044
       243.0004        211.0004
  21140492.3074    1407954.19849   1088253.62547  21140491.9824   21140494.1624
       240.0004        203.0004
  20779534.2134   -4366061.56549  -3389635.42747  20779534.3384   20779538.2234
       244.0004        208.0004
  21050829.0714   -4381842.18849  -3407809.43747  21050827.8954   21050833.4634
       239.0004        199.0004
  25067784.8064    3254308.33949   2513889.41145  25067785.4734   25067792.2484
       206.0004        138.0004
 05  3 30 16 57  0.0000000  0  6G 6G 5G 2G30G10G 9
  22804826.7114   -5012810.12749  -3892924.54746  22804827.3774   22804831.7414
       225.0004        170.0004
  20447746.5124    -359165.05149   -281175.65147  20447745.9604   20447750.6574
       245.0004        211.0004
  21152794.8984    1472604.62849   1138630.55347  21152794.6554   21152796.8954
       241.0004        203.0004
  20771782.1044   -4406799.19049  -3421379.03847  20771782.1844   20771786.1584
       245.0004        209.0004
  21043238.5374   -4421730.74149  -3438891.41347  21043237.7204   21043243.0364
       240.0004        199.0004
  25084960.1294    3344564.93349   2584219.12345  25084959.4744   25084966.7674
       205.0004        138.0004
 05  3 30 16 57 30.0000000  0  6G 6G 5G 2G30G10G 9
  22792295.6344   -5078661.55049  -3944237.33346  22792295.5724   22792300.3374
       223.0004        171.0004
  20454812.7294    -322031.92649   -252240.76747  20454812.0984   20454816.8204
       244.0004        211.0004
  21165146.6444    1537513.33749   1189208.74647  21165146.5844   21165148.5144
       240.0004        203.0004
  20764128.7904   -4447017.72449  -3452718.15747  20764128.8134   20764132.8554
       244.0004        209.0004
  21035758.3744   -4461039.13349  -3469521.30647  21035757.0884   21035762.5344
       239.0004        199.0004
  25102106.8424    3434671.21749   2654431.72045  25102107.3334   25102113.6674
       202.0004        137.0004
 05  3 30 16 58  0.0000000  0  5G 6G 5G 2G30G10
  22779770.8484   -5144479.97549  -3995524.40646  22779770.8434   22779775.8464
       224.0004        171.0004
  20461980.0484    -284367.48049   -222891.87647  20461979.8664   20461984.4054
       244.0004        211.0004
  21177547.7864    1602681.50649   1239989.11347  21177547.5894   21177549.6944
       240.0004        202.0004
  20756575.2314   -4486711.99049  -3483648.75747  20756575.7824   20756579.3494
       244.0004        209.0004
  21028389.6554   -4499761.93949  -3499694.90347  21028388.7594   21028394.2304
       239.0004        199.0004
 05  3 30 16 58 30.0000000  0  5G 6G 5G 2G30G10
  22767253.8084   -5210257.35349  -4046779.50246  22767254.0584   22767258.5994
       223.0004        171.0004
  20469249.7924    -246164.98849   -193123.73247  20469249.5034   20469254.1654
       242.0004        211.0004
  21189999.3304    1668114.66049   1290975.95647  21189999.4694   21190001.6604
       239.0004        202.0004
  20749123.2234   -4525872.78949  -3514163.67447  20749123.9004   20749127.5344
       243.0004        209.0004
  21021134.1194   -4537889.84849  -3529404.94947  21021133.4524   21021138.9604
       238.0004        199.0004
 05  3 30 16 59  0.0000000  0  6G 6G21G 5G 2G30G10
  22754739.8394   -5276018.64349  -4098022.05446  22754740.0914   22754744.6294
       224.0004        171.0004
  24921854.1014    -984684.98859   -757324.87745  24921853.7004   24921858.8334
       205.0004        134.0004
  20476616.8564    -207450.89349   -162956.92047  20476616.6334   20476621.1504
       243.0004        211.0004
  21202496.0944    1733785.28249   1342147.84847  21202496.0474   21202498.1554
       240.0004        202.0004
  20741768.1684   -4564523.96049  -3544281.46347  20741768.7024   20741772.3264
       244.0004        209.0004
  21013987.3084   -4575446.66449  -3558669.97647  21013986.6104   21013991.8554
       239.0004        199.0004
 05  3 30 16 59 30.0000000  0  6G 6G21G 5G 2G30G10
  22742229.7564   -5341759.50449  -4149248.68446  22742229.6024   22742234.9724
       225.0004        172.0004
  24905330.7224   -1071515.93849   -824985.32645  24905330.7584   24905335.5464
       205.0004        134.0004
  20484081.8794    -168222.08849   -132389.05147  20484081.4954   20484086.4344
       243.0004        211.0004
  21215038.3744    1799695.17549   1393506.17547  21215038.5244   21215040.4534
       239.0004        202.0004
  20734511.1674   -4602659.71549  -3573997.64547  20734511.7464   20734515.3584
       243.0004        209.0004
  21006950.2274   -4612426.60449  -3587485.49747  21006949.5514   21006954.7874
       238.0004        199.0004
 05  3 30 17  0  0.0000000  0  6G 6G21G 5G 2G30G10
  22729726.3414   -5407465.35649  -4200448.03746  22729726.1584   22729731.6414
       224.0004        172.0004
  24888834.3634   -1158204.98749   -892535.19845  24888834.4984   24888838.9064
       201.0004        132.0004
  20491647.3574    -128465.37649   -101409.81447  20491646.9984   20491651.6414
       242.0004        211.0004
  21227628.4514    1865856.20649   1445060.20747  21227628.1294   21227630.4944
       239.0004        202.0004
  20727355.2594   -4640264.29449  -3603299.91247  20727355.6404   20727359.1884
       243.0004        209.0004
  21000025.9194   -4648813.96849  -3615839.26747  21000025.2754   21000030.1224
       239.0004        199.0004
 05  3 30 17  0 30.0000000  0  6G 6G21G 5G 2G30G10
  22717229.6354   -5473136.02449  -4251619.97146  22717229.3094   22717234.5044
       225.0004        172.0004
  24872364.9614   -1244751.85149   -959974.23344  24872364.4404   24872370.1334
       200.0004        131.0004
  20499313.0374     -88182.07449    -70020.26047  20499312.8114   20499317.1144
       244.0004        210.0004
  21240265.8274    1932266.00949   1496808.07447  21240265.4004   21240267.9464
       240.0004        202.0004
  20720300.6544   -4677336.49349  -3632187.34547  20720300.9844   20720304.7854
       244.0004        209.0004
  20993214.6164   -4684607.59649  -3643730.39847  20993213.9604   20993219.2634
       239.0004        199.0004
 05  3 30 17  1  0.0000000  0  6G 6G21G 5G 2G30G10
  22704739.3704   -5538772.90449  -4302765.58946  22704738.8464   22704744.0184
       223.0004        172.0004
  24855922.4834   -1331157.65949  -1027303.34844  24855923.1024   24855928.4454
       203.0004        131.0004
  20507078.3644     -47375.22849    -38222.74047  20507077.8254   20507082.5304
       243.0004        210.0004
  21252949.7624    1998920.51549   1548746.63347  21252949.5294   21252951.5204
       239.0004        201.0004
  20713347.3514   -4713876.43849  -3660660.02847  20713347.6584   20713351.5904
       244.0004        209.0004
  20986516.2704   -4719807.54649  -3671158.90547  20986515.5184   20986520.7574
       238.0004        199.0004
 05  3 30 17  1 30.0000000  0  6G 6G21G 5G 2G30G10
  22692255.7144   -5604375.05949  -4353884.13846  22692255.7884   22692260.8084
       225.0004        172.0004
  24839507.0934   -1417421.33749  -1094521.74444  24839507.8774   24839511.3044
       205.0004        131.0004
  20514943.1614      -6045.55449     -6017.82547  20514942.8514   20514947.4864
       243.0004        210.0004
  21265679.9884    2065818.24649   1600874.70447  21265679.8564   21265682.2654
       238.0004        201.0004
  20706495.6624   -4749882.29449  -3688716.54647  20706496.0514   20706499.6684
       244.0004        209.0004
  20979931.2784   -4754411.95249  -3698123.36947  20979930.4864   20979935.7614
       239.0004        200.0004
 05  3 30 17  2  0.0000000  0  6G 6G21G 5G 2G30G10
  22679778.3094   -5669944.31449  -4404977.05446  22679778.0664   22679783.0584
       226.0004        173.0004
  24823118.5514   -1503544.05249  -1161630.33145  24823118.8224   24823123.0884
       210.0004        132.0004
  20522906.8234      35803.50749     26591.80647  20522906.6274   20522911.2034
       245.0004        210.0004
  21278455.6354    2132954.69149   1653188.79047  21278455.1524   21278457.7884
       239.0004        201.0004
  20699745.5124   -4785354.54749  -3716357.27047  20699745.9244   20699749.6624
       245.0004        209.0004
  20973459.4824   -4788421.46349  -3724624.27647  20973459.3164   20973464.1654
       241.0004        200.0004
 05  3 30 17  2 30.0000000  0  6G 6G21G 5G 2G30G10
  22667307.3244   -5735479.64949  -4456043.52746  22667306.9404   22667312.7894
       225.0004        173.0004
  24806756.9874   -1589524.99149  -1228628.45345  24806755.5214   24806762.0414
       209.0004        133.0004
  20530969.1804      78171.38349     59605.71347  20530968.8264   20530973.6124
       244.0004        210.0004
  21291276.3724    2200328.07849   1705687.51847  21291276.3164   21291278.7014
       239.0004        200.0004
  20693097.2774   -4820291.32449  -3743580.73047  20693097.4874   20693101.6894
       245.0004        209.0004
  20967101.2524   -4821834.03549  -3750660.02447  20967100.6884   20967105.8854
       240.0004        200.0004
 05  3 30 17  3  0.0000000  0  6G 6G21G 5G 2G30G10
  22654843.0984   -5800979.41449  -4507082.30646  22654842.8294   22654848.0814
       226.0004        173.0004
  24790422.6634   -1675362.00949  -1295514.39545  24790420.9694   24790426.2504
       207.0004        132.0004
  20539130.3774     121058.56649     93024.26147  20539130.0464   20539134.8414
       244.0004        210.0004
  21304142.0334    2267937.55349   1758370.18947  21304141.9994   21304143.9894
       238.0004        200.0004
  20686551.4684   -4854689.79649  -3770384.74847  20686551.7284   20686555.6604
       244.0004        209.0004
  20960857.1754   -4854646.91149  -3776228.49347  20960856.3414   20960861.6084
       240.0004        200.0004
 05  3 30 17  3 30.0000000  0  6G 6G21G 5G 2G30G10
  22642385.5304   -5866444.36649  -4558093.93846  22642385.7634   22642390.2084
       224.0004        174.0004
  24774115.5804   -1761055.94149  -1362288.82345  24774113.8784   24774120.3394
       204.0004        133.0004
  20547389.8634     164462.38049    126845.38547  20547389.4784   20547394.2654
       243.0004        210.0004
  21317052.0214    2335779.67649   1811234.15947  21317051.9624   21317054.1714
       238.0004        200.0004
  20680108.1244   -4888549.88649  -3796769.23947  20680108.5294   20680112.4134
       244.0004        210.0004
  20954727.2274   -4886860.12349  -3801329.69647  20954726.4854   20954732.1464
       238.0004        200.0004
 05  3 30 17  4  0.0000000  0  6G 6G21G 5G 2G30G10
  22629934.7104   -5931873.65049  -4609077.77746  22629934.3024   22629939.1554
       225.0004        174.0004
  24757835.9314   -1846605.71549  -1428950.91445  24757836.0474   24757839.6844
       201.0004        133.0004
  20555747.4634     208381.81449    161068.29747  20555747.1524   20555751.6334
       243.0004        210.0004
  21330005.9394    2403852.66349   1864278.02347  21330005.7844   21330007.9664
       238.0004        200.0004
  20673767.6514   -4921869.49349  -3822732.56947  20673768.0084   20673771.8394
       244.0004        210.0004
  20948711.7394   -4918471.73649  -3825962.11047  20948710.9094   20948716.3644
       239.0004        200.0004
 05  3 30 17  4 30.0000000  0  6G 6G21G 5G 2G30G10
  22617491.0494   -5997265.40149  -4660032.38046  22617491.1174   22617495.8564
       224.0004        174.0004
  24741583.9704   -1932009.84549  -1495499.50445  24741580.9704   24741588.7524
       205.0004        133.0004
  20564203.2354     252817.02849    195693.11447  20564202.6794   20564207.5954
       242.0004        210.0004
  21343003.6224    2472155.94649   1917501.33547  21343003.3164   21343005.6804
       237.0004        200.0004
  20667530.4834   -4954645.94349  -3848272.66447  20667530.7064   20667534.6774
       243.0004        210.0004
  20942811.1824   -4949479.24649  -3850123.80247  20942810.6344   20942815.5414
       238.0004        200.0004
 05  3 30 17  5  0.0000000  0  6G 6G21G 5G 2G30G10
  22605054.4804   -6062620.00249  -4710958.03546  22605054.3474   22605059.7004
       225.0004        174.0004
  24725359.8904   -2017267.77549  -1561934.18945  24725359.7704   24725363.2034
       204.0004        132.0004
  20572756.7704     297766.06449    230718.31147  20572756.6274   20572761.3684
       243.0004        210.0004
  21356044.5774    2540686.35849   1970901.62747  21356044.4984   21356046.7074
       238.0004        199.0004
  20661396.7664   -4986878.71949  -3873389.12147  20661397.0724   20661401.2564
       244.0004        210.0004
  20937025.7364   -4979881.95649  -3873814.22047  20937024.9994   20937030.4964
       238.0004        200.0004
 05  3 30 17  5 30.0000000  0  6G 6G21G 5G 2G30G10
  22592624.9394   -6127937.69649  -4761854.92346  22592624.9814   22592630.1944
       224.0004        174.0004
  24709163.5724   -2102379.73449  -1628255.14045  24709163.1224   24709166.6644
       206.0004        133.0004
  20581407.6434     343226.63749    266142.10747  20581407.3484   20581411.9564
       243.0004        210.0004
  21369128.2884    2609441.30349   2024476.88147  21369128.1004   21369130.3854
       238.0004        199.0004
  20655366.6884   -5018567.11649  -3898081.38247  20655367.1074   20655371.0064
       244.0004        210.0004
  20931355.5274   -5009679.23349  -3897032.87847  20931354.7254   20931360.4544
       238.0004        200.0004
 05  3 30 17  6  0.0000000  0  6G 6G21G 5G 2G30G10
  22580202.6884   -6193216.94549  -4812721.86046  22580202.8714   22580207.7744
       226.0004        175.0004
  24692995.2904   -2187344.39849  -1694461.33845  24692994.6264   24693000.0714
       209.0004        134.0004
  20590155.8404     389198.46549    301964.28547  20590155.3824   20590160.2354
       244.0004        210.0004
  21382254.3524    2678419.16749   2078225.84047  21382254.1834   21382256.1864
       238.0004        199.0004
  20649440.6024   -5049708.89549  -3922347.70747  20649440.8404   20649444.7454
       245.0004        210.0004
  20925800.8904   -5038868.90549  -3919778.07247  20925800.0204   20925805.2724
       239.0004        200.0004
 05  3 30 17  6 30.0000000  0  6G 6G21G 5G 2G30G10
  22567787.8704   -6258457.42049  -4863558.58346  22567787.5364   22567792.5214
       225.0004        175.0004
  24676855.1344   -2272160.97849  -1760552.14545  24676854.6694   24676859.7504
       206.0004        135.0004
  20599001.0424     435680.30949    338183.87347  20599000.6394   20599005.3844
       243.0004        210.0004
  21395422.4374    2747617.98149   2132146.96447  21395422.3574   21395424.1434
       237.0004        199.0004
  20643618.8344   -5080302.60649  -3946186.97147  20643619.2304   20643623.0804
       244.0004        210.0004
  20920362.1214   -5067449.70949  -3942048.82847  20920361.6054   20920366.8344
       238.0004        200.0004
 05  3 30 17  7  0.0000000  0  6G 6G21G 5G 2G30G10
  22555380.4944   -6323658.66149  -4914364.73846  22555380.2054   22555385.5464
       226.0004        175.0004
  24660743.2064   -2356829.36649  -1826527.45645  24660743.1634   24660747.6774
       206.0004        134.0004
  20607943.0204     482670.50349    374799.58547  20607942.6384   20607947.4564
       243.0004        210.0004
  21408632.1864    2817035.59549   2186238.58147  21408631.9924   21408634.1674
       237.0004        198.0004
  20637901.5544   -5110347.17749  -3969598.32647  20637902.0384   20637905.5814
       245.0004        210.0004
  20915039.4414   -5095420.64049  -3963844.35847  20915038.5204   20915044.0394
       239.0004        200.0004
 05  3 30 17  7 30.0000000  0  6G 6G21G 5G 2G30G10
  22542980.7554   -6388819.72349  -4965139.58346  22542980.3394   22542985.4354
       226.0004        176.0004
  24644659.8314   -2441348.32749  -1892386.33445  24644658.7584   24644663.3054
       205.0004        135.0004
  20616981.5904     530168.30849    411810.83747  20616981.2314   20616985.9544
       243.0004        210.0004
  21421883.1564    2886669.99249   2240499.11747  21421883.0594   21421885.4154
       237.0004        198.0004
  20632289.0704   -5139840.90749  -3992580.45847  20632289.3234   20632293.1954
       245.0004        210.0004
  20909833.1384   -5122780.00949  -3985163.34647  20909832.5644   20909837.7634
       238.0004        200.0004
 05  3 30 17  8  0.0000000  0  6G 6G21G 5G 2G30G10
  22530588.7094   -6453940.33849  -5015882.90146  22530588.5084   22530594.0074
       226.0004        176.0004
  24628604.8364   -2525717.57549  -1958128.53945  24628603.5534   24628609.0514
       206.0004        134.0004
  20626116.4394     578172.08549    449216.35747  20626116.0274   20626120.8044
       244.0004        210.0004
  21435175.0124    2956519.06649   2294926.93847  21435174.8974   21435176.9274
       238.0004        198.0004
  20626781.6654   -5168782.52849  -4015132.36947  20626781.8964   20626785.9444
       244.0004        210.0004
  20904743.3734   -5149526.89149  -4006005.06847  20904742.6284   20904747.8274
       239.0004        200.0004
 05  3 30 17  8 30.0000000  0  6G 6G21G 5G 2G30G10
  22518204.6564   -6519018.94649  -5066593.48946  22518204.4714   22518209.3154
       225.0004        176.0004
  24612578.6374   -2609935.41749  -2023752.77445  24612578.1474   24612583.2854
       205.0004        134.0004
  20635347.4564     626681.20649    487015.64947  20635346.8474   20635351.7864
       243.0004        210.0004
  21448507.5504    3026581.74349   2349521.20047  21448507.3574   21448509.6394
       237.0004        198.0004
  20621379.7584   -5197169.92249  -4037252.41947  20621379.9064   20621383.8644
       244.0004        210.0004
  20899770.5514   -5175659.23749  -4026367.93247  20899769.7604   20899775.2554
       239.0004        201.0004
 05  3 30 17  9  0.0000000  0  6G 6G21G 5G 2G30G10
  22505828.3314   -6584056.37749  -5117271.97346  22505828.2894   22505832.7294
       227.0004        177.0004
  24596581.0414   -2694002.73949  -2089259.71845  24596579.2724   24596585.1554
       203.0004        134.0004
  20644674.1604     675693.27849    525206.85347  20644673.3604   20644678.3784
       242.0004        210.0004
  21461880.0914    3096854.72949   2404279.34547  21461879.6304   21461881.9164
       236.0004        197.0004
  20616083.2874   -5225003.08449  -4058940.59547  20616083.4724   20616087.2324
       243.0004        210.0004
  20894914.6544   -5201177.24049  -4046252.08347  20894913.8124   20894918.8154
       238.0004        201.0004
 05  3 30 17  9 30.0000000  0  6G 6G21G 5G 2G30G10
  22493460.5974   -6649049.48049  -5167915.95246  22493460.5614   22493465.5634
       226.0004        177.0004
  24580612.7624   -2777916.28349  -2154646.84745  24580612.9564   24580616.8044
       207.0004        135.0004
  20654096.7324     725209.04449    563790.53747  20654096.5864   20654101.3674
       243.0004        209.0004
  21475292.6554    3167338.04849   2459201.37347  21475292.8844   21475294.6164
       236.0004        197.0004
  20610892.9694   -5252278.47749  -4080194.16247  20610893.4054   20610897.3194
       244.0004        210.0004
  20890176.3454   -5226077.42149  -4065654.82447  20890175.7424   20890180.9744
       239.0004        201.0004
 05  3 30 17 10  0.0000000  0  6G 6G21G 5G 2G30G10
  22481100.8234   -6714000.42349  -5218527.05446  22481100.7784   22481105.7894
       226.0004        177.0004
  24564673.3894   -2861678.31449  -2219915.91345  24564672.8414   24564677.8854
       209.0004        136.0004
  20663614.3404     775224.38249    602763.50347  20663613.8584   20663618.8114
       242.0004        209.0004
  21488744.4214    3238027.25349   2514283.83647  21488744.5724   21488746.5364
       236.0004        197.0004
  20605808.5314   -5278997.33049  -4101014.05547  20605808.9854   20605812.6754
       244.0004        210.0004
  20885555.3324   -5250361.08249  -4084577.15647  20885554.7714   20885559.6654
       239.0004        201.0004
 05  3 30 17 10 30.0000000  0  6G 6G21G 5G 2G30G10
  22468749.3994   -6778907.52649  -5269104.01546  22468749.2994   22468754.6264
       227.0004        178.0004
  24548763.1664   -2945287.62649  -2285066.00045  24548763.1554   24548766.5604
       207.0004        137.0004
  20673226.9404     825738.91349    642125.44747  20673226.6434   20673231.6074
       242.0004        209.0004
  21502235.1374    3308921.06549   2569525.73347  21502234.9924   21502237.1264
       236.0004        196.0004
  20600830.4594   -5305157.43549  -4121398.56647  20600830.8124   20600834.6354
       244.0004        210.0004
  20881052.0284   -5274026.30849  -4103017.58547  20881051.2294   20881056.6114
       239.0004        201.0004
 05  3 30 17 11  0.0000000  0  6G 6G21G 5G 2G30G10
  22456406.5734   -6843769.47249  -5319645.77246  22456406.2734   22456411.5564
       227.0004        178.0004
  24532882.1314   -3028742.31649  -2350095.58545  24532880.8404   24532886.6594
       206.0004        136.0004
  20682934.4224     876751.93649    681875.83147  20682934.0734   20682938.9044
       243.0004        209.0004
  21515764.5024    3380018.33749   2624926.17147  21515764.2964   21515766.7494
       236.0004        196.0004
  20595959.0384   -5330756.90649  -4141346.21447  20595959.6044   20595963.4064
       243.0004        210.0004
  20876666.7404   -5297071.12749  -4120974.58147  20876666.0154   20876671.3574
       239.0004        201.0004
 05  3 30 17 11 30.0000000  0  6G 6G21G 5G 2G30G10
  22444072.3554   -6908586.26849  -5370152.36546  22444072.6924   22444076.9444
       227.0004        178.0004
  24517030.6124   -3112042.59349  -2415004.83745  24517031.5324   24517035.8674
       207.0004        134.0004
  20692736.3644     928261.31349    722012.97947  20692735.9674   20692740.9184
       242.0004        209.0004
  21529332.0464    3451316.05549   2680482.79647  21529331.9144   21529334.0664
       235.0004        196.0004
  20591194.3984   -5355795.32949  -4160856.69047  20591194.8224   20591198.5454
       244.0004        210.0004
  20872399.5434   -5319495.26749  -4138447.93447  20872398.5294   20872404.0424
       238.0004        202.0004
 05  3 30 17 12  0.0000000  0  6G 6G21G 5G 2G30G10
  22431746.9674   -6973356.79149  -5420622.87846  22431747.0254   22431752.5024
       226.0004        179.0004
  24501208.6004   -3195187.46249  -2479793.01045  24501208.6064   24501212.4674
       207.0004        136.0004
  20702632.5884     980266.14149    762536.20147  20702632.4164   20702637.0274
       242.0004        209.0004
  21542937.4874    3522813.11949   2736194.76247  21542937.1554   21542939.6974
       235.0004        196.0004
  20586536.9474   -5380270.68949  -4179928.40947  20586537.3374   20586541.1914
       243.0004        210.0004
  20868250.7904   -5341297.17249  -4155436.42347  20868250.0014   20868255.2324
       238.0004        202.0004
 05  3 30 17 12 30.0000000  0  6G 6G21G 5G 2G30G10
  22419430.5414   -7038080.26349  -5471056.74146  22419430.5314   22419434.6924
       228.0004        179.0004
  24485416.3184   -3278176.60449  -2544459.84545  24485415.2404   24485420.6404
       209.0004        137.0004
  20712622.7214    1032764.51249    803443.99647  20712622.4004   20712627.1934
       244.0004        209.0004
  21556580.4934    3594507.32249   2792060.33747  21556580.0804   21556582.5654
       236.0004        195.0004
  20581986.7094   -5404182.24849  -4198560.80147  20581986.8774   20581990.6684
       245.0004        210.0004
  20864220.5924   -5362476.03449  -4171939.42747  20864219.8614   20864225.0614
       240.0004        202.0004
 05  3 30 17 13  0.0000000  0  6G 6G21G 5G 2G30G10
  22407123.0574   -7102756.73849  -5521453.97446  22407122.6724   22407127.1804
       227.0004        179.0004
  24469653.7454   -3361009.60049  -2609005.00845  24469653.6814   24469658.2324
       206.0004        138.0004
  20722706.5104    1085754.94249    844735.21447  20722706.0694   20722711.0234
       243.0004        209.0004
  21570260.5074    3666396.22449   2848077.63247  21570260.0904   21570263.0164
       235.0004        195.0004
  20577543.9674   -5427529.05349  -4216753.12547  20577544.5224   20577548.2434
       244.0004        210.0004
  20860309.0834   -5383031.23349  -4187956.45947  20860308.1394   20860313.4464
       238.0004        202.0004
 05  3 30 17 13 30.0000000  0  6G 6G21G 5G 2G30G10
  22394824.8194   -7167384.22249  -5571813.04346  22394824.7054   22394829.6644
       226.0004        179.0004
  24453920.9894   -3443685.23549  -2673427.54145  24453919.2544   24453925.0534
       208.0004        135.0004
  20732883.7964    1139236.75649    886409.32647  20732883.5134   20732888.0684
       242.0004        209.0004
  21583977.4274    3738478.93249   2904245.93847  21583977.1844   21583979.6304
       234.0004        195.0004
  20573209.0554   -5450309.16749  -4234503.87447  20573209.4634   20573213.2804
       244.0004        210.0004
  20856516.5054   -5402961.07049  -4203486.20247  20856515.6454   20856521.1334
       238.0004        202.0004
 05  3 30 17 14  0.0000000  0  6G 6G21G 5G 2G30G10
  22382535.9664   -7231962.52549  -5622133.78646  22382536.0034   22382539.9974
       227.0004        179.0004
  24438218.3314   -3526202.94649  -2737727.02245  24438217.5044   24438222.3854
       209.0004        136.0004
  20743154.2214    1193208.13649    928464.91647  20743153.8034   20743158.6904
       243.0004        209.0004
  21597730.6764    3810752.89349   2960563.27447  21597730.5524   21597732.8774
       235.0004        195.0004
  20568982.1654   -5472521.71149  -4251812.36247  20568982.6604   20568986.4084
       245.0004        211.0004
  20852843.0964   -5422264.88649  -4218528.13147  20852842.4984   20852847.8364
       239.0004        202.0004
 05  3 30 17 14 30.0000000  0  6G 6G21G 5G 2G30G10
  22370256.6154   -7296490.90149  -5672415.61446  22370256.4144   22370261.8244
       229.0004        180.0004
  24422545.8974   -3608562.18049  -2801903.02345  24422546.5734   24422550.4974
       209.0004        137.0004
  20753517.5584    1247667.57149    970900.81847  20753517.2994   20753521.9004
       244.0004        208.0004
  21611520.0484    3883216.33549   3017028.26247  21611519.8664   21611522.4054
       236.0004        194.0004
  20564863.5034   -5494165.55149  -4268677.69247  20564863.8714   20564867.6844
       245.0004        211.0004
  20849289.0484   -5440941.51249  -4233081.33247  20849288.4884   20849293.5164
       240.0004        202.0004
 05  3 30 17 15  0.0000000  0  6G 6G21G 5G 2G30G10
  22357986.8944   -7360968.69949  -5722658.04346  22357986.8084   22357991.9024
       228.0004        180.0004
  24406903.6344   -3690762.69149  -2865955.32845  24406902.5034   24406908.4384
       207.0004        138.0004
  20763973.3674    1302613.18649   1013715.55547  20763972.9814   20763977.7174
       244.0004        208.0004
  21625345.0544    3955867.13449   3073639.24347  21625345.2154   21625347.0884
       236.0004        194.0004
  20560853.2474   -5515239.68449  -4285099.10347  20560853.5774   20560857.3864
       245.0004        211.0004
  20845854.4684   -5458990.44349  -4247145.42847  20845853.5564   20845859.0844
       240.0004        202.0004
 05  3 30 17 15 30.0000000  0  6G 6G21G 5G 2G30G10
  22345726.8354   -7425395.42849  -5772860.68046  22345726.7354   22345731.3934
       228.0004        180.0004
  24391291.7204   -3772803.91549  -2929883.53145  24391290.6314   24391296.4564
       208.0004        138.0004
  20774521.4054    1358043.36449   1056907.86847  20774520.7894   20774525.7414
       243.0004        208.0004
  21639205.3584    4028703.14849   3130394.53447  21639205.4904   21639207.7504
       234.0004        194.0004
  20556951.5064   -5535743.41649  -4301076.04647  20556951.9884   20556955.6434
       244.0004        211.0004
  20842539.3954   -5476411.10649  -4260719.96347  20842538.6014   20842543.8324
       238.0004        203.0004
 05  3 30 17 16  0.0000000  0  6G 6G21G 5G 2G30G10
  22333476.9344   -7489769.32449  -5823022.15646  22333476.8264   22333482.1024
       227.0004        180.0004
  24375710.3334   -3854684.55249  -2993686.59545  24375709.4574   24375713.1174
       206.0004        138.0004
  20785161.5434    1413957.42449   1100477.22747  20785161.2024   20785165.8464
       242.0004        208.0004
  21653100.6544    4101723.46449   3187293.43347  21653100.6604   21653102.6914
       234.0004        194.0004
  20553158.7514   -5555674.74549  -4316606.96647  20553159.2544   20553163.0044
       244.0004        211.0004
  20839344.1974   -5493201.95649  -4273803.74047  20839343.4734   20839348.8044
       239.0004        203.0004
 05  3 30 17 16 30.0000000  0  6G 6G21G 5G 2G30G10
  22321236.9134   -7554090.77949  -5873142.75846  22321237.3794   22321241.1664
       228.0004        180.0004
  24360159.4434   -3936404.72949  -3057364.59945  24360158.9834   24360164.7514
       208.0004        140.0004
  20795893.2314    1470352.70049   1144421.57247  20795892.6334   20795897.4914
       243.0004        208.0004
  21667030.5064    4174925.10549   3244333.64047  21667030.3674   21667032.8134
       235.0004        194.0004
  20549474.8974   -5575033.58849  -4331691.77947  20549475.1644   20549478.9204
       245.0004        211.0004
  20836268.8634   -5509362.86149  -4286396.64347  20836267.9624   20836273.4424
       239.0004        203.0004
 05  3 30 17 17  0.0000000  0  6G 6G21G 5G 2G30G10
  22309007.3344   -7618357.90849  -5923221.03046  22309007.2564   22309011.6434
       229.0004        180.0004
  24344639.3974   -4017963.07249  -3120916.51545  24344638.7574   24344643.6534
       210.0004        141.0004
  20806716.4044    1527228.62749   1188740.44647  20806716.0104   20806720.8854
       243.0004        208.0004
  21680994.7114    4248307.17549   3301514.43447  21680994.6404   21680996.9524
       235.0004        193.0004
  20545900.3804   -5593817.80049  -4346328.83447  20545900.7994   20545904.4274
       245.0004        211.0004
  20833313.7934   -5524891.97249  -4298497.24047  20833313.0574   20833318.4434
       239.0004        203.0004
 05  3 30 17 17 30.0000000  0  6G 6G21G 5G 2G30G10
  22296788.0634   -7682570.75449  -5973257.01646  22296788.5254   22296792.4534
       228.0004        181.0004
  24329150.0404   -4099360.10149  -3184342.74445  24329149.2304   24329154.7754
       208.0004        141.0004
  20817630.5034    1584582.62849   1233431.83947  20817630.1354   20817634.8564
       242.0004        208.0004
  21694992.6704    4321866.80949   3358833.58847  21694992.8194   21694994.7724
       234.0004        193.0004
  20542435.1574   -5612027.57549  -4360518.28247  20542435.5584   20542439.4544
       244.0004        211.0004
  20830478.8294   -5539789.83649  -4310105.96947  20830478.3104   20830483.5084
       238.0004        203.0004
 05  3 30 17 18  0.0000000  0  6G 6G21G 5G 2G30G10
  22284579.2014   -7746728.81149  -6023250.28646  22284579.0274   22284584.4484
       228.0004        181.0004
  24313691.4264   -4180595.56249  -3247643.07145  24313690.9424   24313696.1224
       208.0004        141.0004
  20828635.2604    1642412.82449   1278494.30547  20828635.0964   20828639.8464
       242.0004        208.0004
  21709024.0364    4395601.91449   3416289.47747  21709024.0954   21709026.1294
       234.0004        193.0004
  20539079.4584   -5629662.03549  -4374259.42247  20539079.9214   20539084.0564
       244.0004        211.0004
  20827764.0864   -5554055.93549  -4321222.40347  20827763.5994   20827768.7604
       239.0004        203.0004
 05  3 30 17 18 30.0000000  0  6G 6G21G 5G 2G30G10
  22272381.0814   -7810830.16849  -6073199.38746  22272380.8924   22272386.0354
       227.0004        181.0004
  24298263.8864   -4261667.43049  -3310815.91945  24298263.1424   24298268.4854
       207.0004        140.0004
  20839730.4544    1700718.38749   1323927.17947  20839730.0254   20839734.7884
       242.0004        208.0004
  21723088.6504    4469511.82649   3473881.57847  21723088.3794   21723090.9474
       233.0004        193.0004
  20535833.6544   -5646719.04649  -4387550.60747  20535834.0984   20535837.9454
       244.0004        211.0004
  20825169.9734   -5567688.24149  -4331844.97447  20825169.4354   20825174.5664
       239.0004        203.0004
 05  3 30 17 19  0.0000000  0  6G 6G21G 5G 2G30G10
  22260193.8144   -7874874.30849  -6123103.89946  22260193.2794   22260198.5194
       228.0004        181.0004
  24282867.5074   -4342575.51349  -3373861.13345  24282866.5514   24282871.6284
       208.0004        141.0004
  20850915.7844    1759497.58049   1369729.11647  20850915.4324   20850920.3614
       242.0004        208.0004
  21737186.0794    4543594.18349   3531608.04647  21737185.9094   21737188.5664
       234.0004        192.0004
  20532697.7574   -5663198.24049  -4400391.54747  20532698.1194   20532701.8954
       244.0004        211.0004
  20822696.4614   -5580686.42449  -4341973.42347  20822695.7884   20822700.8234
       239.0004        203.0004
 05  3 30 17 19 30.0000000  0  6G 6G21G 5G 2G30G10
  22248017.5554   -7938860.69849  -6172963.41646  22248017.3284   22248022.8594
       228.0004        181.0004
  24267502.3554   -4423319.86349  -3436778.77545  24267503.0274   24267507.3464
       208.0004        140.0004
  20862190.8274    1818748.20149   1415898.40147  20862190.4764   20862195.0784
       242.0004        207.0004
  21751315.9174    4617847.04449   3589467.37647  21751315.5784   21751318.3904
       232.0004        192.0004
  20529671.9844   -5679098.89149  -4412781.66847  20529672.1944   20529676.0574
       244.0004        211.0004
  20820343.7554   -5593050.04049  -4351607.40247  20820342.9864   20820348.2304
       238.0004        203.0004
 05  3 30 17 20  0.0000000  0  6G 6G21G 5G 2G30G10
  22235852.5684   -8002788.07749  -6222776.96746  22235852.1404   22235857.9574
       228.0004        181.0004
  24252168.5644   -4503899.60249  -3499568.14645  24252169.0634   24252171.6744
       211.0004        141.0004
  20873555.3474    1878469.04949   1462434.08747  20873554.9494   20873559.8684
       242.0004        207.0004
  21765477.9434    4692268.86849   3647458.35547  21765477.6234   21765480.2844
       234.0004        192.0004
  20526756.5674   -5694419.60749  -4424719.90147  20526756.6824   20526760.5974
       245.0004        211.0004
  20818111.9294   -5604778.30549  -4360746.30947  20818110.8824   20818116.4814
       239.0004        203.0004
 05  3 30 17 20 30.0000000  0  6G 6G21G 5G 2G30G10
  22223698.8574   -8066656.42249  -6272544.50046  22223698.6744   22223703.6084
       229.0004        181.0004
  24236866.1274   -4584314.89449  -3562229.39445  24236865.7974   24236870.3274
       211.0004        142.0004
  20885008.9104    1938657.75449   1509334.34447  20885008.5494   20885013.5614
       242.0004        207.0004
  21779671.6064    4766856.75149   3705578.73847  21779671.5674   21779674.0104
       233.0004        191.0004
  20523951.4644   -5709160.49549  -4436206.31247  20523951.6744   20523955.5634
       245.0004        211.0004
  20816000.9984   -5615871.52349  -4369390.36847  20816000.2834   20816005.7594
       240.0004        203.0004
 05  3 30 17 21  0.0000000  0  6G 6G21G 5G 2G30G10
  22211556.5234   -8130464.60949  -6322265.15746  22211555.7004   22211561.6164
       230.0004        181.0004
  24221595.1354   -4664564.71949  -3624761.67445  24221594.4894   24221600.0574
       211.0004        143.0004
  20896551.2274    1999312.84049   1556598.00547  20896550.9794   20896556.0754
       243.0004        207.0004
  21793896.6004    4841609.45249   3763827.54447  21793896.4494   21793899.0754
       235.0004        191.0004
  20521256.9114   -5723320.48449  -4447240.08347  20521257.2594   20521261.1494
       246.0004        211.0004
  20814011.0614   -5626328.84549  -4377538.92847  20814010.3504   20814015.6804
       241.0004        203.0004
 05  3 30 17 21 30.0000000  0  6G 6G21G 5G 2G30G10
  22199425.8414   -8194211.77049  -6371938.26646  22199425.7974   22199430.6514
       229.0004        182.0004
  24206355.6204   -4744648.59249  -3687164.65945  24206354.3304   24206358.8084
       211.0004        142.0004
  20908181.9354    2060432.41849   1604223.61647  20908181.5774   20908186.5404
       242.0004        207.0004
  21808152.5724    4916525.06049   3822203.30047  21808152.7504   21808154.8504
       233.0004        191.0004
  20518673.1304   -5736898.49749  -4457820.35847  20518673.4384   20518677.3494
       245.0004        211.0004
  20812142.2514   -5636149.56149  -4385191.42747  20812141.5344   20812146.8454
       240.0004        204.0004
 05  3 30 17 22  0.0000000  0  6G 6G21G 5G 2G30G10
  22187307.0934   -8257896.40549  -6421562.65946  22187307.0174   22187311.8874
       229.0004        182.0004
  24191147.8064   -4824565.87749  -3749437.85645  24191147.7174   24191151.7564
       212.0004        142.0004
  20919900.7844    2122015.25749   1652210.20547  20919900.1944   20919905.4934
       242.0004        206.0004
  21822439.3794    4991602.35449   3880705.03747  21822439.4204   21822441.3774
       233.0004        191.0004
  20516200.2754   -5749893.40049  -4467946.26747  20516200.4504   20516204.4604
       245.0004        211.0004
  20810394.7244   -5645332.89049  -4392347.26347  20810393.9544   20810399.4124
       240.0004        204.0004
 05  3 30 17 22 30.0000000  0  6G 6G21G 5G 2G30G10
  22175200.5174   -8321516.95349  -6471137.10546  22175200.2884   22175205.1844
       229.0004        182.0004
  24175971.9594   -4904315.16649  -3811580.12645  24175971.4434   24175976.5504
       211.0004        143.0004
  20931707.5754    2184060.29749   1700556.94847  20931707.2514   20931712.1024
       242.0004        206.0004
  21836756.6764    5066839.94449   3939331.68547  21836756.6684   21836759.0614
       233.0004        191.0004
  20513838.6524   -5762303.77749  -4477616.70247  20513839.0454   20513842.9584
       244.0004        211.0004
  20808768.7074   -5653877.71949  -4399005.57247  20808768.0904   20808773.0314
       239.0004        204.0004
 05  3 30 17 23  0.0000000  0  6G 6G21G 5G 2G30G10
  22163105.8674   -8385074.79049  -6520662.68246  22163105.6714   22163110.7154
       230.0004        182.0004
  24160827.7204   -4983898.43949  -3873593.03545  24160827.8474   24160830.9914
       211.0004        143.0004
  20943601.5484    2246563.33149   1749260.57947  20943601.3364   20943606.1834
       244.0004        206.0004
  21851103.7354    5142234.04449   3998080.29447  21851103.7164   21851106.2404
       234.0004        191.0004
  20511588.0224   -5774131.04949  -4486832.76347  20511588.3834   20511592.1254
       246.0004        211.0004
  20807263.7864   -5661786.06249  -4405167.90447  20807263.1014   20807268.3164
       240.0004        204.0004
 05  3 30 17 23 30.0000000  0  6G 6G21G 5G 2G30G10
  22151023.8004   -8448566.34749  -6570136.62446  22151023.7954   22151028.6194
       229.0004        183.0004
  24145715.6864   -5063312.28149  -3935473.89945  24145715.0394   24145720.5734
       209.0004        143.0004
  20955582.8304    2309525.35549   1798321.85547  20955582.6324   20955587.4934
       242.0004        206.0004
  21865480.7804    5217785.46949   4056951.48847  21865480.8334   21865483.0904
       233.0004        191.0004
  20509449.0094   -5785371.83849  -4495591.83147  20509449.4244   20509453.3464
       245.0004        211.0004
  20805880.6704   -5669054.41249  -4410831.55547  20805879.9794   20805885.2004
       240.0004        204.0004
 05  3 30 17 24  0.0000000  0  6G 6G21G 5G 2G30G10
  22138954.0924   -8511993.06549  -6619560.03346  22138953.9114   22138958.7484
       230.0004        183.0004
  24130635.5564   -5142558.63249  -3997224.26545  24130635.9884   24130639.4994
       213.0004        144.0004
  20967650.6794    2372942.14849   1847737.50447  20967650.1484   20967655.0344
       243.0004        205.0004
  21879886.9534    5293489.97449   4115941.96747  21879886.9394   21879889.6134
       235.0004        191.0004
  20507421.2424   -5796027.83249  -4503895.20847  20507421.2984   20507425.2964
       246.0004        211.0004
  20804618.9144   -5675685.00449  -4415998.24247  20804618.0034   20804623.1194
       241.0004        204.0004
 05  3 30 17 24 30.0000000  0  6G 6G21G 5G 2G30G10
  22126897.0924   -8575352.88049  -6668931.32546  22126896.8584   22126902.0274
       229.0004        183.0004
  24115587.6454   -5221636.03349  -4058843.00245  24115587.2764   24115591.4674
       213.0004        145.0004
  20979804.9584    2436813.06649   1897506.99947  20979804.6034   20979809.6704
       242.0004        205.0004
  21894322.1174    5369346.88749   4175051.19247  21894322.1264   21894324.5944
       233.0004        191.0004
  20505505.0804   -5806097.35749  -4511741.61447  20505505.3544   20505509.2794
       245.0004        212.0004
  20803478.7614   -5681676.45749  -4420666.91947  20803477.9524   20803483.5294
       239.0004        204.0004
 05  3 30 17 25  0.0000000  0  6G 6G21G 5G 2G30G10
  22114853.1204   -8638644.45849  -6718249.42546  22114852.5764   22114857.2594
       231.0004        183.0004
  24100571.9994   -5300543.47049  -4120329.29445  24100571.8114   24100576.5004
       212.0004        145.0004
  20992045.2854    2501136.47549   1947629.09847  20992044.9504   20992049.6414
       243.0004        205.0004
  21908786.0034    5445354.93549   4234278.19547  21908785.8834   21908788.4454
       234.0004        190.0004
  20503700.7554   -5815579.29549  -4519130.14747  20503700.9634   20503704.8744
       246.0004        212.0004
  20802460.3734   -5687027.95449  -4424836.91447  20802459.2574   20802464.5694
       241.0004        204.0004
 05  3 30 17 25 30.0000000  0  6G 6G21G 5G 2G30G10
  22102822.1134   -8701867.98549  -6767514.50646  22102821.9654   22102827.3234
       230.0004        183.0004
  24085588.6154   -5379281.59349  -4181683.63645  24085587.7654   24085592.9744
       212.0004        146.0004
  21004371.1464    2565909.10049   1998101.22947  21004370.7974   21004375.8754
       242.0004        205.0004
  21923278.1064    5521511.33449   4293620.79447  21923277.5814   21923280.5484
       233.0004        190.0004
  20502008.1244   -5824474.14849  -4526061.21747  20502008.3654   20502012.1624
       245.0004        212.0004
  20801563.6434   -5691740.35149  -4428508.91547  20801562.7584   20801568.0394
       240.0004        204.0004
 05  3 30 17 26  0.0000000  0  6G 6G21G 5G 2G30G10
  22090804.2044   -8765022.29349  -6816725.63746  22090804.1844   22090809.6474
       230.0004        184.0004
  24070637.6344   -5457849.77249  -4242905.53945  24070637.2654   24070642.6774
       213.0004        146.0004
  21016782.2994    2631129.84949   2048922.56047  21016781.7254   21016786.9554
       242.0004        205.0004
  21937798.1734    5597814.52049   4353077.78047  21937797.6094   21937800.5104
       233.0004        190.0004
  20500427.4434   -5832780.91549  -4532534.03047  20500427.5294   20500431.5724
       246.0004        212.0004
  20800788.6204   -5695813.28649  -4431682.62547  20800787.4354   20800792.9674
       240.0004        204.0004
 05  3 30 17 26 30.0000000  0  6G 6G21G 5G 2G30G10
  22078799.8734   -8828105.41849  -6865881.31646  22078799.7754   22078804.7394
       230.0004        184.0004
  24055719.1704   -5536246.60049  -4303993.94245  24055718.9024   24055723.5064
       213.0004        148.0004
  21029278.5074    2696797.72349   2100092.28647  21029278.1244   21029282.9224
       242.0004        204.0004
  21952346.0244    5674263.68949   4412648.50647  21952346.0274   21952348.7644
       233.0004        189.0004
  20498958.9084   -5840498.16749  -4538547.49347  20498959.3264   20498963.0564
       245.0004        212.0004
  20800135.5564   -5699245.30649  -4434356.93247  20800134.7564   20800140.1594
       240.0004        204.0004
 05  3 30 17 27  0.0000000  0  6G 6G21G 5G 2G30G10
  22066808.9844   -8891117.98049  -6914982.00546  22066809.1864   22066813.6924
       231.0004        184.0004
  24040833.1404   -5614473.23549  -4364949.72545  24040832.5584   24040837.2584
       214.0004        148.0004
  21041859.1124    2762909.14649   2151607.64347  21041858.7344   21041863.6664
       242.0004        204.0004
  21966920.9884    5750855.52249   4472330.40947  21966920.5574   21966923.4594
       233.0004        189.0004
  20497602.3464   -5847626.96449  -4544102.41247  20497602.5554   20497606.3174
       246.0004        212.0004
  20799604.1184   -5702037.91249  -4436532.98847  20799603.1944   20799608.6724
       241.0004        204.0004
 05  3 30 17 27 30.0000000  0  6G 6G21G 5G 2G30G10
  22054832.0554   -8954057.48949  -6964025.76546  22054831.3384   22054835.8884
       230.0004        184.0004
  24025979.7774   -5692527.78149  -4425771.39645  24025978.5914   24025983.8404
       214.0004        147.0004
  21054523.9634    2829463.33949   2203468.01547  21054523.3774   21054528.7194
       241.0004        204.0004
  21981523.0164    5827589.71649   4532123.24247  21981523.1784   21981525.6514
       232.0004        189.0004
  20496358.1454   -5854165.27849  -4549197.21747  20496358.3864   20496362.3864
       245.0004        212.0004
  20799194.6984   -5704189.54749  -4438209.58547  20799194.0384   20799199.0164
       240.0004        204.0004
 05  3 30 17 28  0.0000000  0  6G 6G21G 5G 2G30G10
  22042869.1134   -9016923.26349  -7013012.07846  22042868.3904   22042874.0694
       230.0004        185.0004
  24011159.2584   -5770410.00049  -4486458.80645  24011158.5614   24011163.3904
       212.0004        147.0004
  21067272.7004    2896458.10049   2255671.68647  21067272.1114   21067277.3664
       242.0004        204.0004
  21996151.7334    5904464.26149   4592025.44247  21996151.2814   21996154.6484
       232.0004        188.0004
  20495226.3724   -5860112.83849  -4553831.69247  20495226.5504   20495230.2364
       244.0004        212.0004
  20798907.2024   -5705700.35149  -4439386.83247  20798906.5674   20798911.4664
       239.0004        204.0004
 05  3 30 17 28 30.0000000  0  6G 6G21G 5G 2G30G10
  22030920.2904   -9079714.75749  -7061940.51646  22030920.6114   22030925.2884
       232.0004        185.0004
  23996371.5504   -5848119.93549  -4547011.96145  23996371.7774   23996376.0654
       217.0004        148.0004
  21080104.8274    2963891.14549   2308216.86347  21080104.6674   21080109.5124
       243.0004        204.0004
  22010806.8454    5981477.01349   4652035.31847  22010806.6964   22010809.4494
       233.0004        188.0004
  20494207.0274   -5865469.63949  -4558005.84447  20494207.6454   20494211.4034
       246.0004        212.0004
  20798741.5834   -5706570.69449  -4440065.02647  20798741.0814   20798746.3424
       241.0004        204.0004
 05  3 30 17 29  0.0000000  0  6G 6G21G 5G 2G30G10
  22018985.7604   -9142431.24249  -7110810.49746  22018985.4544   22018990.3184
       230.0004        185.0004
  23981616.7364   -5925657.36949  -4607430.71945  23981616.1734   23981621.0154
       215.0004        149.0004
  21093019.9494    3031760.24149   2361101.83947  21093019.6664   21093024.5964
       241.0004        204.0004
  22025487.8344    6058625.91449   4712151.29847  22025487.9824   22025490.0624
       232.0004        188.0004
  20493300.1154   -5870235.54149  -4561719.54547  20493300.5334   20493304.3224
       244.0004        211.0004
  20798697.8054   -5706800.81149  -4440244.33547  20798697.1324   20798702.4144
       239.0004        204.0004
 05  3 30 17 29 30.0000000  0  6G 6G21G 5G 2G30G10
  22007065.7234   -9205071.52249  -7159621.10146  22007065.5864   22007070.2274
       232.0004        186.0004
  23966894.7654   -6003022.03349  -4667714.85045  23966894.1744   23966898.7904
       215.0004        149.0004
  21106017.6944    3100063.57249   2414325.16847  21106017.3184   21106022.5314
       243.0004        204.0004
  22040194.4844    6135909.51849   4772372.24247  22040194.2414   22040197.0434
       233.0004        188.0004
  20492505.7064   -5874410.07749  -4564972.44347  20492505.9334   20492509.6784
       246.0004        211.0004
  20798775.8834   -5706390.54549  -4439924.64747  20798774.8984   20798780.3034
       241.0004        204.0004
 05  3 30 17 30  0.0000000  0  6G 6G21G 5G 2G30G10
  21995160.2994   -9267634.69149  -7208371.61546  21995160.5274   21995165.4634
       231.0004        186.0004
  23952205.7234   -6080213.32649  -4727863.87945  23952204.7944   23952209.4324
       213.0004        148.0004
  21119097.6774    3168799.26949   2467885.40747  21119097.3834   21119102.6544
       241.0004        203.0004
  22054926.4654    6213326.14949   4832696.83647  22054926.6424   22054928.8254
       232.0004        188.0004
  20491823.9604   -5877992.81249  -4567764.20147  20491824.5054   20491828.3704
       245.0004        212.0004
  20798975.8754   -5705339.63149  -4439105.75347  20798975.3394   20798980.5494
       239.0004        204.0004
 05  3 30 17 30 30.0000000  0  6G 6G21G 5G 2G30G10
  21983269.8664   -9330119.39149  -7257060.97646  21983269.9794   21983274.9924
       231.0004        186.0004
  23937549.6824   -6157230.84849  -4787877.48945  23937549.2004   23937553.3954
       215.0004        148.0004
  21132259.5464    3237965.31749   2521780.99447  21132258.9924   21132264.3254
       241.0004        203.0004
  22069683.4404    6290874.22949   4893123.86546  22069683.5064   22069685.9704
       232.0004        187.0004
  20491254.9724   -5880983.02449  -4570094.23747  20491255.2594   20491259.2734
       245.0004        212.0004
  20799297.7064   -5703648.16649  -4437787.72547  20799296.6874   20799302.1004
       239.0004        204.0004
 05  3 30 17 31  0.0000000  0  6G 6G21G 5G 2G30G10
  21971394.7034   -9392523.97549  -7305687.91446  21971395.0204   21971399.3674
       232.0004        187.0004
  23922926.9354   -6234073.51649  -4847754.87245  23922926.4634   23922931.2254
       214.0004        148.0004
  21145503.0684    3307560.33249   2576010.83447  21145502.4134   21145507.7084
       242.0004        202.0004
  22084465.2064    6368552.93449   4953652.67546  22084465.0434   22084467.3974
       232.0004        187.0004
  20490798.8834   -5883379.77049  -4571961.84247  20490799.1254   20490802.9824
       246.0004        212.0004
  20799741.6184   -5701315.30249  -4435969.90747  20799740.7394   20799746.1354
       241.0004        204.0004
 05  3 30 17 31 30.0000000  0  6G 6G21G 5G 2G30G10
  21959534.9554   -9454847.60049  -7354251.78046  21959534.6314   21959539.6414
       231.0004        187.0004
  23908337.5414   -6310741.13449  -4907495.84445  23908337.2734   23908340.6184
       215.0004        149.0004
  21158827.7464    3377581.79449   2630572.96447  21158827.6184   21158832.4984
       241.0004        202.0004
  22099271.4854    6446360.23449   5014281.68446  22099271.4334   22099274.1364
       231.0004        186.0004
  20490455.7564   -5885183.02149  -4573366.99047  20490456.0724   20490459.9814
       245.0004        212.0004
  20800307.4934   -5698341.69849  -4433652.81947  20800306.8074   20800311.8644
       239.0004        204.0004
 05  3 30 17 32  0.0000000  0  6G 6G21G 5G 2G30G10
  21947690.5354   -9517090.54949  -7402752.77546  21947690.2504   21947695.4664
       232.0004        187.0004
  23893781.4504   -6387234.43549  -4967100.99545  23893781.1504   23893785.6684
       213.0004        149.0004
  21172233.0234    3448026.75649   2685465.10047  21172232.5684   21172237.7014
       241.0004        202.0004
  22114101.6684    6524293.16849   5075008.58846  22114101.3264   22114104.2024
       231.0004        186.0004
  20490225.4044   -5886393.64949  -4574310.35147  20490225.8924   20490229.6264
       245.0004        212.0004
  20800995.0744   -5694728.49849  -4430837.34547  20800994.4414   20800999.5284
       240.0004        204.0004
 05  3 30 17 32 30.0000000  0  6G 6G21G 5G 2G30G10
  21935861.8504   -9579250.40249  -7451189.01947  21935861.4894   21935866.6624
       232.0004        188.0004
  23879258.6594   -6463552.06149  -5026569.24445  23879258.8434   23879262.8854
       213.0004        150.0004
  21185718.6934    3518894.17449   2740686.42147  21185718.2824   21185723.5704
       241.0004        202.0004
  22128955.6984    6602351.37649   5135833.11946  22128955.4434   22128958.3874
       231.0004        186.0004
  20490108.1194   -5887010.14949  -4574790.75247  20490108.5834   20490112.3184
       245.0004        212.0004
  20801804.5384   -5690474.82049  -4427522.79447  20801803.9414   20801809.1354
       239.0004        204.0004
 05  3 30 17 33  0.0000000  0  6G 6G21G 5G 2G30G10
  21924049.0934   -9641326.94449  -7499560.34247  21924049.2474   21924053.7494
       233.0004        188.0004
  23864769.2014   -6539694.57749  -5085901.04645  23864769.0344   23864772.3884
       214.0004        151.0004
  21199284.1804    3590180.99049   2796234.54947  21199283.7414   21199289.0464
       241.0004        202.0004
  22143833.0664    6680532.40949   5196753.35246  22143833.0634   22143835.7644
       231.0004        186.0004
  20490103.7404   -5887033.23349  -4574808.75447  20490104.0264   20490107.8774
       246.0004        212.0004
  20802735.6694   -5685581.61949  -4423709.91247  20802734.7664   20802740.2604
       240.0004        204.0004
 05  3 30 17 33 30.0000000  0  6G 6G21G 5G 2G30G10
  21912252.7064   -9703317.81149  -7547864.90847  21912252.4134   21912257.7004
       232.0004        188.0004
  23850313.3884   -6615659.98449  -5145094.84545  23850312.2924   23850316.9454
       214.0004        150.0004
  21212929.3584    3661886.70649   2852109.08447  21212929.1854   21212933.9514
       239.0004        202.0004
  22158733.8044    6758836.12649   5257769.17746  22158734.4574   22158736.4264
       230.0004        185.0004
  20490212.6334   -5886461.16849  -4574363.00647  20490213.0014   20490216.9234
       245.0004        212.0004
  20803788.7594   -5680047.67149  -4419397.75747  20803788.1174   20803793.4304
       239.0004        204.0004
 05  3 30 17 34  0.0000000  0  6G 6G21G 5G 2G30G10
  21900472.3824   -9765223.58749  -7596103.16447  21900472.1594   21900477.2134
       231.0004        189.0004
  23835891.0744   -6691449.37849  -5204151.49545  23835890.4464   23835894.5344
       214.0004        151.0004
  21226653.5514    3734007.59749   2908307.13747  21226653.0544   21226658.2234
       239.0004        201.0004
  22173657.2844    6837259.17749   5318877.98946  22173657.5264   22173660.0784
       230.0004        185.0004
  20490434.4894   -5885295.44949  -4573454.66347  20490434.8174   20490438.7004
       244.0004        212.0004
  20804963.4454   -5673874.69849  -4414587.65947  20804962.5244   20804967.9164
       239.0004        204.0004
 05  3 30 17 34 30.0000000  0  6G 6G21G 5G 2G30G10
  21888708.5684   -9827042.62349  -7644273.83447  21888708.5424   21888713.2734
       232.0004        189.0004
  23821502.3404   -6767062.34149  -5263070.65945  23821501.7874   23821506.0094
       213.0004        150.0004
  21240456.3964    3806541.89749   2964827.32547  21240456.1284   21240460.9234
       239.0004        201.0004
  22188603.2414    6915800.17049   5380078.70946  22188603.2004   22188606.0514
       230.0004        185.0004
  20490769.3854   -5883535.51649  -4572083.30547  20490769.8054   20490773.7044
       244.0004        212.0004
  20806259.7094   -5667062.75049  -4409279.66447  20806258.9774   20806264.3474
       239.0004        204.0004
 05  3 30 17 35  0.0000000  0  6G 6G21G 5G 2G30G10
  21876961.5324   -9888773.78749  -7692376.03747  21876961.5354   21876966.2454
       233.0004        189.0004
  23807147.3034   -6842498.46449  -5321852.04445  23807146.8854   23807150.9514
       216.0004        150.0004
  21254337.5044    3879487.31049   3021667.86747  21254336.9394   21254342.2874
       241.0004        201.0004
  22203571.3344    6994457.79749   5441370.31346  22203571.1184   22203573.6264
       230.0004        184.0004
  20491217.4464   -5881181.16549  -4570248.75847  20491217.6354   20491221.4764
       246.0004        212.0004
  20807677.5784   -5659612.06349  -4403473.94647  20807676.8754   20807682.1574
       240.0004        204.0004
 05  3 30 17 35 30.0000000  0  6G 6G21G 5G 2G30G10
  21865231.4954   -9950415.16449  -7740408.27647  21865231.5254   21865236.4154
       233.0004        189.0004
  23792826.0404   -6917756.87249  -5380494.93345  23792826.3094   23792830.2524
       215.0004        151.0004
  21268296.5584    3952842.45049   3078827.67047  21268296.2654   21268301.1404
       240.0004        201.0004
  22218561.3934    7073230.96249   5502751.93946  22218560.9204   22218563.3924
       230.0004        184.0004
  20491778.7444   -5878231.46249  -4567950.30447  20491779.2064   20491782.8014
       246.0004        212.0004
  20809217.0544   -5651522.05249  -4397170.05647  20809216.3694   20809221.6244
       240.0004        204.0004
 05  3 30 17 36  0.0000000  0  6G 6G21G 5G 2G30G10
  21853518.4764  -10011967.32349  -7788370.98747  21853518.6944   21853523.1244
       232.0004        189.0004
  23778538.5754   -6992838.56349  -5439000.12445  23778537.2714   23778542.7884
       215.0004        152.0004
  21282332.8664    4026603.51149   3136303.77647  21282332.3684   21282337.5154
       240.0004        200.0004
  22233572.8954    7152116.66349   5564221.25746  22233572.2784   22233574.7644
       229.0004        184.0004
  20492453.0524   -5874687.98749  -4565189.16347  20492453.2304   20492457.3544
       245.0004        212.0004
  20810877.8024   -5642794.82949  -4390369.63447  20810877.0404   20810882.2144
       240.0004        204.0004
 05  3 30 17 36 30.0000000  0  6G 6G21G 5G 2G30G10
  21841822.9884  -10073427.68949  -7836262.17447  21841823.0414   21841827.7474
       232.0004        190.0004
  23764284.9734   -7067741.77949  -5497366.24145  23764284.8084   23764289.5794
       216.0004        153.0004
  21296446.3224    4100769.98549   3194095.78947  21296446.1174   21296451.0474
       239.0004        200.0004
  22248605.7584    7231114.84649   5625778.22546  22248606.1504   22248608.7084
       229.0004        183.0004
  20493240.6704   -5870549.09949  -4561964.07147  20493240.9644   20493244.8354
       245.0004        212.0004
  20812660.0184   -5633429.36349  -4383071.88347  20812659.3964   20812664.6744
       239.0004        204.0004
 05  3 30 17 37  0.0000000  0  6G 6G21G 5G 2G30G10
  21830145.0284  -10134795.57849  -7884081.30247  21830145.2554   21830150.0724
       233.0004        190.0004
  23750065.2854   -7142466.83449  -5555593.53445  23750064.6624   23750069.5024
       214.0004        153.0004
  21310636.3374    4175338.88749   3252201.37247  21310635.8944   21310641.0914
       239.0004        200.0004
  22263659.5634    7310223.20049   5687421.04446  22263659.9594   22263661.8984
       229.0004        183.0004
  20494141.4394   -5865815.44949  -4558275.53047  20494141.6914   20494145.5784
       245.0004        211.0004
  20814563.5544   -5623426.41049  -4375277.38847  20814562.7484   20814568.2044
       239.0004        204.0004
 05  3 30 17 37 30.0000000  0  6G 6G21G 5G 2G30G10
  21818485.0154  -10196069.56149  -7931827.25647  21818485.3374   21818489.9304
       234.0004        190.0004
  23735879.5754   -7217012.91049  -5613681.37045  23735879.3834   23735883.9454
       215.0004        153.0004
  21324902.6614    4250308.75149   3310619.39647  21324902.4474   21324907.5464
       240.0004        200.0004
  22278734.2394    7389440.78349   5749148.97146  22278733.9134   22278737.3274
       230.0004        183.0004
  20495155.5574   -5860486.46549  -4554123.09547  20495155.9794   20495159.8754
       246.0004        211.0004
  20816588.3794   -5612785.86649  -4366986.06147  20816587.7264   20816593.0234
       240.0004        204.0004
 05  3 30 17 38  0.0000000  0  6G 6G21G 5G 2G30G10
  21806842.9494  -10257249.30949  -7979499.77847  21806842.7174   21806847.4394
       235.0004        190.0004
  23721727.8094   -7291381.09549  -5671630.57645  23721727.2004   23721731.9004
       215.0004        154.0004
  21339244.6124    4325675.93349   3369347.01647  21339244.1294   21339249.4074
       239.0004        199.0004
  22293829.1714    7468764.81849   5810959.84746  22293828.7044   22293831.5614
       230.0004        182.0004
  20496282.7014   -5854563.33049  -4549507.68547  20496282.8994   20496286.9014
       246.0004        212.0004
  20818734.2204   -5601509.53449  -4358199.32047  20818733.4314   20818738.8564
       240.0004        204.0004
 05  3 30 17 38 30.0000000  0  6G 6G21G 5G 2G30G10
  21795219.2534  -10318332.65749  -8027097.18447  21795218.7744   21795223.7994
       233.0004        191.0004
  23707610.1784   -7365569.70049  -5729439.85245  23707609.4044   23707614.7374
       218.0004        154.0004
  21353661.9804    4401439.54449   3428383.55047  21353661.8684   21353666.9114
       238.0004        199.0004
  22308944.3314    7548195.12349   5872853.53446  22308944.3894   22308947.1764
       228.0004        182.0004
  20497523.1734   -5848044.80249  -4544428.32647  20497523.4704   20497527.6584
       244.0004        212.0004
  20821001.2104   -5589596.48649  -4348916.43447  20821000.5514   20821005.7264
       239.0004        204.0004
 05  3 30 17 39  0.0000000  0  6G 6G21G 5G 2G30G10
  21783613.9354  -10379318.83649  -8074618.87447  21783613.5684   21783618.9374
       234.0004        191.0004
  23693526.6474   -7439579.48849  -5787109.79345  23693525.7534   23693530.7624
       215.0004        155.0004
  21368154.2334    4477596.62149   3487726.67847  21368154.1054   21368159.0554
       239.0004        199.0004
  22324079.2864    7627729.60149   5934828.39346  22324079.2914   22324082.2064
       230.0004        182.0004
  20498876.8344   -5840931.43349  -4538885.46247  20498877.0934   20498880.9444
       245.0004        212.0004
  20823389.1284   -5577047.98249  -4339138.39147  20823388.3084   20823393.6494
       240.0004        204.0004
 05  3 30 17 39 30.0000000  0  6G 6G21G 5G 2G30G10
  21772027.4234  -10440206.35349  -8122063.68447  21772027.3094   21772032.2684
       233.0004        191.0004
  23679477.3034   -7513408.90749  -5844639.20845  23679476.4604   23679480.5304
       215.0004        154.0004
  21382721.0194    4554145.56949   3547375.15547  21382720.5414   21382725.5924
       239.0004        198.0004
  22339233.8824    7707367.13549   5996883.54946  22339233.8004   22339236.4864
       228.0004        181.0004
  20500343.7254   -5833222.77949  -4532878.73947  20500344.0974   20500347.8804
       245.0004        212.0004
  20825897.9534   -5563863.99849  -4328865.16847  20825897.3314   20825902.4614
       239.0004        204.0004
 05  3 30 17 40  0.0000000  0  6G 6G21G 5G 2G30G10
  21760459.5934  -10500995.35349  -8169431.73047  21760459.6374   21760464.3844
       235.0004        192.0004
  23665462.0824   -7587059.29149  -5902029.07345  23665460.7124   23665465.8974
       217.0004        155.0004
  21397361.7374    4631082.80849   3607326.20247  21397361.3254   21397366.6884
       239.0004        198.0004
  22354407.4504    7787104.91249   6059016.82946  22354407.0164   22354410.5444
       228.0004        181.0004
  20501923.6444   -5824920.31449  -4526409.30647  20501923.9134   20501927.7864
       246.0004        212.0004
  20828527.3314   -5550046.58749  -4318098.35747  20828526.5414   20828531.6774
       240.0004        204.0004
 05  3 30 17 40 30.0000000  0  6G 6G21G 5G 2G30G10
  21748911.2304  -10561682.30349  -8216720.25447  21748911.0624   21748915.8814
       235.0004        192.0004
  23651481.4034   -7660528.11149  -5959277.48345  23651480.5814   23651485.0494
       216.0004        155.0004
  21412076.2204    4708407.82449   3667579.41247  21412075.9484   21412081.3024
       238.0004        198.0004
  22369600.2214    7866943.30149   6121228.50146  22369600.1984   22369603.4684
       229.0004        181.0004
  20503616.8434   -5816022.47149  -4519475.93847  20503617.2014   20503621.0404
       246.0004        212.0004
  20831277.4714   -5535594.59349  -4306837.06547  20831276.7774   20831281.7654
       240.0004        204.0004
 05  3 30 17 41  0.0000000  0  6G 6G21G 5G 2G30G10
  21737382.1784  -10622268.02949  -8263929.90647  21737381.8844   21737386.7274
       235.0004        192.0004
  23637534.8884   -7733817.52149  -6016386.09845  23637534.5354   23637538.4504
       216.0004        155.0004
  21426863.8374    4786117.03949   3728131.99147  21426863.3014   21426868.7764
       239.0004        198.0004
  22384811.5874    7946879.19549   6183516.15446  22384811.8174   22384814.7734
       229.0004        180.0004
  20505423.0684   -5806530.74649  -4512079.80447  20505423.4214   20505427.3454
       245.0004        212.0004
  20834147.9884   -5520509.94249  -4295082.79647  20834147.2604   20834152.5454
       240.0004        204.0004
 05  3 30 17 41 30.0000000  0  6G 6G21G 5G 2G30G10
  21725872.7384  -10682750.63649  -8311059.19847  21725872.7614   21725877.2014
       235.0004        192.0004
  23623622.7134   -7806926.48549  -6073354.09445  23623623.2364   23623626.8834
       217.0004        154.0004
  21441724.2094    4864208.50349   3788982.43247  21441723.5044   21441729.1854
       239.0004        198.0004
  22400041.3824    8026912.10249   6245879.40646  22400040.7944   22400044.1374
       229.0004        180.0004
  20507342.3744   -5796444.84549  -4504220.67847  20507342.6624   20507346.3394
       246.0004        212.0004
  20837138.8844   -5504792.73049  -4282835.62447  20837138.2894   20837143.2914
       241.0004        204.0004
 05  3 30 17 42  0.0000000  0  6G 6G21G 5G 2G30G10
  21714383.1314  -10743128.86349  -8358107.15647  21714382.7964   21714387.7654
       234.0004        192.0004
  23609744.9834   -7879854.48649  -6130181.09445  23609744.5244   23609749.5534
       218.0004        154.0004
  21456656.8914    4942679.89049   3850128.91947  21456656.3164   21456662.1764
       238.0004        197.0004
  22415289.2394    8107040.05449   6308316.71546  22415289.0184   22415292.7304
       228.0004        180.0004
  20509374.7054   -5785764.91449  -4495898.66647  20509374.6554   20509378.8884
       244.0004        211.0004
  20840249.9844   -5488443.81849  -4270096.21747  20840249.1164   20840254.3964
       240.0004        204.0004
 05  3 30 17 42 30.0000000  0  6G 6G21G 5G 2G30G10
  21702913.5304  -10803401.92449  -8405073.17447  21702913.8454   21702918.5124
       234.0004        192.0004
  23595901.5794   -7952601.70049  -6186867.22845  23595901.1584   23595905.8844
       218.0004        154.0004
  21471661.3014    5021528.52549   3911569.35147  21471661.0784   21471666.4064
       237.0004        197.0004
  22430554.8084    8187261.09349   6370826.55646  22430554.9304   22430558.1554
       229.0004        180.0004
  20511519.9144   -5774491.86149  -4487114.48647  20511520.2104   20511524.3144
       244.0004        211.0004
  20843481.0724   -5471464.47849  -4256865.57347  20843480.5194   20843485.8084
       239.0004        204.0004
 05  3 30 17 43  0.0000000  0  6G 6G21G 5G 2G30G10
  21691464.2674  -10863568.04749  -8451955.86447  21691464.0224   21691469.1164
       234.0004        193.0004
  23582092.8294   -8025167.19549  -6243411.75945  23582091.5484   23582096.4284
       216.0004        155.0004
  21486737.1864    5100752.46849   3973302.23347  21486736.5924   21486742.3064
       237.0004        197.0004
  22445838.0244    8267574.63549   6433408.48946  22445838.2304   22445840.8374
       227.0004        180.0004
  20513778.0784   -5762625.14549  -4477867.71447  20513778.2774   20513782.3414
       244.0004        211.0004
  20846832.1484   -5453854.51149  -4243143.52647  20846831.4194   20846836.6244
       239.0004        204.0004
 05  3 30 17 43 30.0000000  0  6G 6G21G 5G 2G30G10
  21680035.6494  -10923625.84549  -8498754.13947  21680035.6644   21680040.5694
       234.0004        193.0004
  23568318.5914   -8097551.12449  -6299814.80545  23568318.1234   23568322.3294
       215.0004        155.0004
  21501884.0574    5180349.55549   4035325.88247  21501883.8464   21501889.1624
       237.0004        196.0004
  22461138.5214    8347979.01649   6496061.18646  22461138.7374   22461141.4034
       228.0004        180.0004
  20516149.1564   -5750165.24049  -4468158.71747  20516149.6054   20516153.3554
       245.0004        211.0004
  20850303.0074   -5435615.01649  -4228930.94047  20850302.2664   20850307.5004
       240.0004        204.0004
 05  3 30 17 44  0.0000000  0  6G 6G21G 5G 2G30G10
  21668627.5324  -10983575.84549  -8545468.40347  21668627.2714   21668632.4794
       234.0004        193.0004
  23554578.7494   -8169754.64849  -6356077.27745  23554578.4254   23554583.1974
       217.0004        156.0004
  21517101.1884    5260315.83249   4097637.21547  21517100.8914   21517105.7704
       236.0004        196.0004
  22476455.7844    8428471.27249   6558782.37446  22476455.6444   22476458.7204
       228.0004        180.0004
  20518632.7714   -5737113.83749  -4457988.80547  20518633.1164   20518636.9844
       244.0004        211.0004
  20853893.2324   -5416748.19149  -4214229.51547  20853892.5214   20853897.7604
       239.0004        203.0004
 05  3 30 17 44 30.0000000  0  6G 6G21G 5G 2G30G10
  21657240.6904  -11043414.24749  -8592095.72347  21657240.8844   21657245.1564
       234.0004        193.0004
  23540873.5624   -8241775.54449  -6412197.44645  23540872.5434   23540877.7754
       218.0004        156.0004
  21532388.5544    5340651.28649   4160236.21447  21532388.4484   21532393.2714
       237.0004        196.0004
  22491789.9044    8509052.28049   6621572.71946  22491789.3384   22491792.7314
       227.0004        180.0004
  20521229.3314   -5723469.10049  -4447356.56547  20521229.6784   20521233.7594
       245.0004        211.0004
  20857603.1654   -5397252.42149  -4199038.01647  20857602.3324   20857607.8384
       239.0004        203.0004
 05  3 30 17 45  0.0000000  0  6G 6G21G 5G 2G30G10
  21645874.9764  -11103141.50649  -8638636.43347  21645874.6734   21645879.5934
       235.0004        193.0004
  23527203.0484   -8313614.70249  -6468176.00645  23527202.1574   23527206.4184
       217.0004        156.0004
  21547745.3874    5421351.73849   4223119.63447  21547744.7174   21547750.5094
       236.0004        195.0004
  22507140.3824    8589719.20649   6684430.00246  22507140.6014   22507143.4464
       227.0004        179.0004
  20523938.4094   -5709232.86149  -4436263.41047  20523938.8434   20523942.8094
       245.0004        211.0004
  20861432.2374   -5377130.46349  -4183358.57447  20861431.6414   20861436.9564
       239.0004        203.0004
 05  3 30 17 45 30.0000000  0  6G 6G21G 5G 2G30G10
  21634530.8504  -11162755.30249  -8685088.73647  21634530.4064   21634535.7354
       234.0004        193.0004
  23513567.2794   -8385271.02549  -6524012.08945  23513566.5174   23513571.5864
       217.0004        156.0004
  21563171.4144    5502416.14249   4286286.64547  21563170.9574   21563176.4804
       236.0004        194.0004
  22522507.0304    8670471.52449   6747353.82446  22522507.0034   22522510.0764
       227.0004        179.0004
  20526760.1654   -5694404.53449  -4424708.89147  20526760.6694   20526764.5074
       245.0004        211.0004
  20865380.5484   -5356381.93849  -4167190.90047  20865379.6984   20865385.0964
       239.0004        203.0004
 05  3 30 17 46  0.0000000  0  6G 6G21G 5G 2G30G10
  21623208.4454  -11222254.87249  -8731452.03447  21623208.0254   21623213.3994
       234.0004        193.0004
  23499966.1164   -8456745.28449  -6579706.31145  23499965.3234   23499970.4014
       216.0004        156.0004
  21578666.1634    5583841.31949   4349734.78347  21578666.1804   21578671.2514
       236.0004        194.0004
  22537889.5684    8751307.30749   6810342.68446  22537890.1034   22537892.3694
       227.0004        179.0004
  20529694.4154   -5678985.14949  -4412693.80247  20529694.7984   20529698.6614
       244.0004        211.0004
  20869447.7764   -5335008.57349  -4150536.34247  20869447.1924   20869452.5624
       239.0004        203.0004
 05  3 30 17 46 30.0000000  0  6G 6G21G 5G 2G30G10
  21611908.0874  -11281638.58249  -8777725.04747  21611907.9474   21611912.6224
       235.0004        193.0004
  23486399.7234   -8528036.65249  -6635258.00445  23486398.8144   23486405.4384
       217.0004        156.0004
  21594229.1424    5665625.06949   4413462.32347  21594228.6774   21594233.8974
       236.0004        194.0004
  22553287.8154    8832225.35049   6873395.64146  22553287.7444   22553290.1014
       228.0004        178.0004
  20532741.0644   -5662974.82349  -4400218.24247  20532741.2294   20532745.5474
       244.0004        211.0004
  20873633.7874   -5313010.82149  -4133395.24847  20873632.9554   20873638.5334
       240.0004        203.0004
 05  3 30 17 47  0.0000000  0  6G 6G21G 5G 2G30G10
  21600629.9534  -11340905.55449  -8823907.10347  21600629.7254   21600634.6124
       235.0004        194.0004
  23472868.0904   -8599145.80549  -6690667.71145  23472868.5514   23472872.7784
       217.0004        156.0004
  21609859.8604    5747764.86949   4477467.30847  21609859.1364   21609864.9124
       235.0004        194.0004
  22568701.4164    8913224.04949   6936511.43946  22568701.3634   22568704.7664
       228.0004        178.0004
  20535900.0354   -5646374.20549  -4387282.71647  20535900.2024   20535904.3894
       245.0004        211.0004
  20877938.4364   -5290389.86849  -4115768.54847  20877937.7644   20877942.9684
       240.0004        203.0004
 05  3 30 17 47 30.0000000  0  6G 6G21G 5G 2G30G10
  21589374.2734  -11400054.55349  -8869997.21547  21589374.1674   21589378.8424
       235.0004        194.0004
  23459371.2004   -8670072.45049  -6745935.20845  23459371.1754   23459375.4384
       217.0004        156.0004
  21625557.8234    5830258.03549   4541747.64747  21625557.0784   21625563.0904
       235.0004        193.0004
  22584130.0944    8994301.86849   6999688.90646  22584130.3624   22584132.6384
       226.0004        178.0004
  20539171.2094   -5629184.15549  -4373887.89247  20539171.5374   20539175.4654
       244.0004        211.0004
  20882361.3224   -5267147.36149  -4097657.51947  20882360.4834   20882366.0204
       240.0004        203.0004
 05  3 30 17 48  0.0000000  0  6G 6G21G 5G 2G30G10
  21578141.3584  -11459084.27849  -8915994.40047  21578141.0944   21578145.7274
       236.0004        194.0004
  23445909.2524   -8740815.47549  -6801059.62445  23445908.6354   23445913.6834
       217.0004        157.0004
  21641322.6004    5913102.29349   4606301.55947  21641322.1144   21641327.8084
       235.0004        193.0004
  22599573.5624    9075457.46549   7062926.96246  22599573.4814   22599576.6064
       227.0004        178.0004
  20542554.4764   -5611405.03349  -4360034.05647  20542554.8754   20542558.7254
       245.0004        211.0004
  20886902.3904   -5243284.06549  -4079062.76447  20886901.7394   20886907.0724
       241.0004        203.0004
 05  3 30 17 48 30.0000000  0  6G 6G21G 5G 2G30G10
  21566931.3974  -11517992.93549  -8961897.24647  21566931.2844   21566935.9314
       236.0004        194.0004
  23432482.1244   -8811375.35849  -6856041.34145  23432481.3214   23432486.6124
       217.0004        157.0004
  21657153.8004    5996295.65549   4671127.49747  21657153.4054   21657159.1184
       235.0004        192.0004
  22615031.6724    9156689.91349   7126224.90546  22615031.2904   22615035.6144
       227.0004        178.0004
  20546049.8394   -5593036.93849  -4345721.27747  20546050.2454   20546054.3254
       244.0004        211.0004
  20891561.4904   -5218800.52149  -4059984.69647  20891561.0534   20891565.9494
       240.0004        203.0004
 05  3 30 17 49  0.0000000  0  6G 6G21G 5G 2G30G10
  21555744.6314  -11576779.74149  -9007705.13547  21555744.7984   21555749.3114
       236.0004        194.0004
  23419089.9114   -8881752.23549  -6910880.44045  23419089.4724   23419093.7984
       220.0004        158.0004
  21673050.8404    6079834.96949   4736223.01647  21673050.5594   21673056.1984
       235.0004        192.0004
  22630504.0164    9237997.34549   7189581.28346  22630503.8484   22630507.0044
       227.0004        177.0004
  20549657.0534   -5574081.14949  -4330950.54647  20549657.4984   20549661.4374
       245.0004        211.0004
  20896338.2954   -5193698.30949  -4040424.54347  20896337.6464   20896342.7914
       241.0004        203.0004
 05  3 30 17 49 30.0000000  0  6G 6G21G 5G 2G30G10
  21544581.1944  -11635443.62349  -9053417.24947  21544580.9774   21544585.9754
       235.0004        194.0004
  23405732.5084   -8951946.23249  -6965577.06045  23405731.8894   23405736.9764
       220.0004        158.0004
  21689013.2774    6163717.80949   4801586.21447  21689012.7694   21689018.4204
       234.0004        192.0004
  22645990.3324    9319378.02949   7252994.72646  22645990.8574   22645993.3904
       226.0004        177.0004
  20553375.9274   -5554538.41349  -4315722.46247  20553376.1544   20553380.3734
       244.0004        211.0004
  20901232.5824   -5167978.71949  -4020383.32047  20901231.9684   20901237.1064
       240.0004        203.0004
 05  3 30 17 50  0.0000000  0  6G 6G21G 5G 2G30G10
  21533441.6334  -11693982.30849  -9099031.80747  21533441.5894   21533446.4144
       235.0004        195.0004
  23392410.0974   -9021956.35549  -7020130.39345  23392409.0824   23392413.7064
       220.0004        158.0004
  21705040.6824    6247942.29649   4867215.63047  21705040.3334   21705046.0454
       235.0004        192.0004
  22661490.5084    9400831.64849   7316464.99646  22661490.5174   22661492.7444
       226.0004        177.0004
  20557206.5374   -5534408.60649  -4300036.92347  20557206.9624   20557211.0304
       244.0004        211.0004
  20906244.2684   -5141642.33849  -3999861.48547  20906243.6894   20906248.7724
       240.0004        203.0004
 05  3 30 17 50 30.0000000  0  6G 6G21G 5G 2G30G10
  21522325.9634  -11752395.32949  -9144548.44547  21522325.6744   21522330.5524
       236.0004        195.0004
  23379122.3914   -9091783.38249  -7074541.04545  23379121.3814   23379125.8304
       219.0004        158.0004
  21721132.5234    6332505.12849   4933108.69147  21721131.8134   21721137.6184
       234.0004        191.0004
  22677004.0614    9482355.89349   7379990.31046  22677004.3274   22677006.9934
       225.0004        177.0004
  20561148.5994   -5513693.05349  -4283894.95547  20561148.8434   20561152.8884
       246.0004        211.0004
  20911372.9244   -5114691.19949  -3978860.61347  20911372.0884   20911377.2044
       241.0004        203.0004
 05  3 30 17 51  0.0000000  0  6G 6G21G 5G 2G30G10
  21511234.7614  -11810679.94749  -9189965.02447  21511234.6424   21511240.0324
       236.0004        195.0004
  23365869.7954   -9161425.74849  -7128807.81145  23365869.3554   23365873.2064
       219.0004        159.0004
  21737288.4134    6417404.99349   4999264.37647  21737288.1094   21737293.7584
       234.0004        191.0004
  22692531.1604    9563950.94349   7443570.78746  22692531.5374   22692534.2204
       224.0004        176.0004
  20565202.2254   -5492391.23249  -4267296.16147  20565202.5774   20565206.6364
       245.0004        211.0004
  20916618.6504   -5087124.90249  -3957380.39847  20916617.9474   20916623.4984
       240.0004        203.0004
 05  3 30 17 51 30.0000000  0  6G 6G21G 5G 2G30G10
  21500168.0954  -11868835.85749  -9235281.31647  21500168.1334   21500172.9214
       236.0004        195.0004
  23352652.3204   -9230883.85949  -7182930.99145  23352651.0864   23352656.6224
       219.0004        159.0004
  21753507.9094    6502638.63849   5065680.13847  21753507.4204   21753512.9534
       233.0004        190.0004
  22708071.2664    9645614.42649   7507204.59246  22708071.2194   22708074.9764
       224.0004        176.0004
  20569367.1624   -5470504.57849  -4250241.65447  20569367.4734   20569371.4344
       244.0004        211.0004
  20921981.0044   -5058945.60349  -3935422.52247  20921980.3644   20921985.4574
       240.0004        203.0004
 05  3 30 17 52  0.0000000  0  6G 6G21G 5G 2G30G10
  21489126.1774  -11926861.63549  -9280496.19947  21489125.8484   21489130.9944
       236.0004        196.0004
  23339469.8454   -9300158.19949  -7236910.99545  23339469.6014   23339474.3614
       219.0004        160.0004
  21769790.3994    6588203.45849   5132353.96947  21769790.2584   21769795.3444
       234.0004        190.0004
  22723624.1694    9727344.99849   7570890.67346  22723624.0024   22723626.8614
       225.0004        175.0004
  20573643.1634   -5448034.10349  -4232732.21947  20573643.5334   20573647.2094
       245.0004        210.0004
  20927459.7514   -5030154.65549  -3912988.03247  20927458.9224   20927464.2204
       241.0004        203.0004
 05  3 30 17 52 30.0000000  0  6G 6G21G 5G 2G30G10
  21478109.2074  -11984756.06349  -9325608.73047  21478108.8954   21478113.7734
       236.0004        196.0004
  23326322.3734   -9369248.85449  -7290747.85145  23326322.5034   23326325.4724
       219.0004        160.0004
  21786135.4444    6674096.99849   5199283.94447  21786135.4524   21786140.6044
       234.0004        190.0004
  22739189.5424    9809141.20549   7634627.90046  22739189.6774   22739192.7994
       222.0004        175.0004
  20578030.1304   -5424980.58049  -4214768.46647  20578030.3964   20578034.5374
       244.0004        210.0004
  20933054.6464   -5000753.43649  -3890078.01047  20933053.7984   20933059.1694
       240.0004        203.0004
 05  3 30 17 53  0.0000000  0  6G 6G21G 5G 2G30G10
  21467117.5654  -12042517.58349  -9370617.70147  21467117.5444   21467122.2804
       236.0004        196.0004
  23313209.9714   -9438155.14049  -7344441.05045  23313210.1204   23313212.7214
       219.0004        159.0004
  21802542.6774    6760316.92349   5266468.24747  21802542.4344   21802547.3914
       233.0004        190.0004
  22754767.1744    9891002.06349   7698415.49746  22754767.7924   22754770.7774
       223.0004        174.0004
  20582527.9514   -5401344.55349  -4196350.80947  20582528.2124   20582532.1914
       244.0004        210.0004
  20938765.3924   -4970743.01249  -3866693.27547  20938764.5454   20938769.9674
       240.0004        202.0004
 05  3 30 17 53 30.0000000  0  6G 6G21G 5G 2G30G10
  21456151.4404  -12100144.89749  -9415522.09847  21456151.2564   21456156.0344
       236.0004        196.0004
  23300132.5654   -9506877.16949  -7397990.66645  23300132.0044   23300136.5314
       220.0004        160.0004
  21819011.3464    6846860.15849   5333904.46047  21819011.6234   21819016.4774
       234.0004        190.0004
  22770356.8324    9972926.09949   7762252.33046  22770357.0904   22770359.7354
       224.0004        174.0004
  20587136.3624   -5377127.10549  -4177480.09647  20587136.6524   20587140.6434
       244.0004        210.0004
  20944591.8024   -4940125.27749  -3842835.31447  20944591.0114   20944596.2224
       240.0004        202.0004
 05  3 30 17 54  0.0000000  0  6G 6G21G 5G 2G30G10
  21445211.1094  -12157636.65849  -9460320.86647  21445210.8094   21445215.5094
       237.0004        196.0004
  23287090.1934   -9575415.12149  -7451396.83545  23287089.3834   23287094.3404
       220.0004        161.0004
  21835541.1244    6933724.34049   5401590.77447  21835540.6504   21835546.3534
       234.0004        189.0004
  22785958.3794   10054912.10849   7826137.45346  22785958.7394   22785962.1444
       223.0004        174.0004
  20591855.2824   -5352329.05649  -4158156.96747  20591855.5354   20591859.5954
       244.0004        210.0004
  20950533.5564   -4908901.18549  -3818504.86247  20950532.8384   20950538.1724
       241.0004        202.0004
 05  3 30 17 54 30.0000000  0  6G 6G21G 5G 2G30G10
  21434297.0084  -12214990.60049  -9505012.24947  21434297.2254   21434302.0054
       236.0004        196.0004
  23274083.0414   -9643768.22449  -7504658.97545  23274083.2474   23274085.9794
       219.0004        161.0004
  21852131.6234    7020907.83249   5469525.90147  21852131.4344   21852136.8484
       233.0004        189.0004
  22801571.5204   10136959.52249   7890070.41646  22801571.0314   22801573.9794
       222.0004        173.0004
  20596684.6934   -5326950.36149  -4138381.38847  20596685.0424   20596689.1204
       244.0004        210.0004
  20956590.5764   -4877071.33049  -3793702.40047  20956589.8454   20956595.2664
       239.0004        202.0004
 05  3 30 17 55  0.0000000  0  6G 6G21G 5G 2G30G10
  21423409.2164  -12272206.22949  -9549595.84947  21423408.7634   21423413.5794
       236.0004        197.0004
  23261110.9384   -9711936.87049  -7557777.38945  23261109.9694   23261114.7664
       219.0004        160.0004
  21868782.3094    7108407.24349   5537707.20447  21868781.8474   21868787.6354
       233.0004        189.0004
  22817195.9264   10219066.31549   7954049.65646  22817195.6444   22817199.0024
       223.0004        173.0004
  20601624.2914   -5300992.76649  -4118154.71547  20601624.6024   20601628.5104
       243.0004        210.0004
  20962762.4314   -4844637.99849  -3768429.68347  20962761.5224   20962767.1164
       239.0004        202.0004
 05  3 30 17 55 30.0000000  0  6G 6G21G 5G 2G30G10
  21412548.0424  -12329282.04649  -9594070.51347  21412548.2714   21412552.7784
       237.0004        197.0004
  23248173.8854   -9779921.26849  -7610752.22245  23248173.6544   23248178.3034
       220.0004        160.0004
  21885492.5684    7196219.94149   5606132.62347  21885492.4294   21885498.2574
       233.0004        189.0004
  22832831.4894   10301231.30549   8018074.23446  22832831.1704   22832833.9384
       223.0004        172.0004
  20606673.8474   -5274457.24649  -4097477.71447  20606674.0664   20606678.2984
       244.0004        210.0004
  20969048.8574   -4811602.66649  -3742687.88247  20969048.1404   20969053.5704
       240.0004        202.0004
 05  3 30 17 56  0.0000000  0  6G 6G21G 5G 2G30G10
  21401713.8364  -12386216.42549  -9638434.95747  21401713.8324   21401718.5954
       237.0004        197.0004
  23235272.0004   -9847721.11249  -7663583.25045  23235271.0374   23235275.4974
       221.0004        161.0004
  21902261.9594    7284343.51749   5674800.27447  21902261.9804   21902267.2534
       233.0004        189.0004
  22848477.8734   10383453.25749   8082143.20346  22848477.3684   22848482.0704
       221.0004        172.0004
  20611833.2414   -5247344.60849  -4076351.01047  20611833.6444   20611837.5634
       244.0004        210.0004
  20975449.6644   -4777966.34749  -3716477.77847  20975448.8894   20975454.1494
       240.0004        202.0004
 05  3 30 17 56 30.0000000  0  6G 6G21G 5G 2G30G10
  21390906.8034  -12443007.89949  -9682688.05047  21390906.5544   21390911.6804
       237.0004        197.0004
  23222405.2834   -9915336.19249  -7716270.31945  23222405.0834   23222409.3164
       220.0004        162.0004
  21919090.0454    7372775.48749   5743708.24947  21919089.8404   21919095.1354
       234.0004        188.0004
  22864134.8464   10465731.35049   8146255.92146  22864134.4494   22864138.0304
       222.0004        172.0004
  20617102.3504   -5219655.51849  -4054775.12547  20617102.6474   20617106.7674
       245.0004        210.0004
  20981964.5114   -4743730.62349  -3689800.60647  20981963.9194   20981968.8344
       240.0004        202.0004
 05  3 30 17 57  0.0000000  0  6G 6G21G 5G 2G30G10
  21380127.3394  -12499654.37349  -9726828.15247  21380127.3364   21380131.8384
       237.0004        197.0004
  23209573.7774   -9982765.86749  -7768812.91845  23209574.1464   23209577.2994
       220.0004        162.0004
  21935976.3924    7461513.73449   5812854.86847  21935976.0704   21935981.5244
       232.0004        188.0004
  22879802.3634   10548064.64249   8210411.64446  22879802.0834   22879805.7094
       221.0004        171.0004
  20622481.0094   -5191390.48949  -4032750.45447  20622481.2534   20622485.4204
       244.0004        210.0004
  20988593.2694   -4708896.48149  -3662657.13847  20988592.6304   20988597.8614
       240.0004        202.0004
 05  3 30 17 57 30.0000000  0  6G 6G21G 5G 2G30G10
  21369375.6234  -12556155.09149  -9770854.68147  21369375.3994   21369380.2634
       238.0004        197.0004
  23196777.4554  -10050010.93149  -7821211.65245  23196776.2764   23196781.6994
       221.0004        162.0004
  21952920.5074    7550555.19049   5882237.76046  21952920.5494   21952925.6644
       231.0004        187.0004
  22895480.0954   10630451.39249   8274609.02046  22895479.9094   22895483.1644
       223.0004        171.0004
  20627968.9694   -5162551.17349  -4010278.28847  20627969.4644   20627973.5234
       244.0004        210.0004
  20995335.4744   -4673466.13449  -3635049.09447  20995334.8124   20995340.3174
       240.0004        202.0004
 05  3 30 17 58  0.0000000  0  6G 6G21G 5G 2G30G10
  21358651.7124  -12612509.65249  -9814767.32147  21358651.6734   21358656.4194
       237.0004        198.0004
  23184016.2174  -10117072.04249  -7873467.04646  23184016.2994   23184021.0214
       222.0004        163.0004
  21969921.6084    7639896.51549   5951854.32146  21969921.5404   21969926.7214
       233.0004        187.0004
  22911167.6884   10712889.70549   8338846.58546  22911167.4194   22911170.9874
       222.0004        171.0004
  20633565.8444   -5133139.41649  -3987360.06247  20633566.3194   20633570.3784
       244.0004        210.0004
  21002190.6984   -4637441.77749  -3606978.18547  21002189.8374   21002195.3994
       240.0004        202.0004
 05  3 30 17 58 30.0000000  0  7G 6G21G 5G29G 2G30G10
  21347955.7834  -12668717.19849  -9858565.40247  21347955.8584   21347960.4204
       238.0004        198.0004
  23171289.8024  -10183950.07649  -7925579.79346  23171289.3004   23171293.2024
       222.0004        164.0004
  21986979.1604    7729534.13949   6021701.74546  21986979.1314   21986984.7744
       232.0004        186.0004
  24515256.3694   -1066720.87859   -820440.78245  24515255.9814   24515264.4244
       205.0004        139.0004
  22926864.6904   10795377.42249   8403122.64346  22926864.6724   22926867.8844
       222.0004        170.0004
  20639271.3544   -5103157.15649  -3963997.29247  20639271.8194   20639275.9114
       245.0004        210.0004
  21009158.5074   -4600825.70349  -3578446.20347  21009157.8234   21009163.4284
       241.0004        202.0004
 05  3 30 17 59  0.0000000  0  7G 6G21G 5G29G 2G30G10
  21337287.8904  -12724777.49149  -9902248.74347  21337288.0734   21337292.4084
       238.0004        198.0004
  23158597.9344  -10250646.28149  -7977550.84746  23158597.5574   23158600.9214
       222.0004        164.0004
  22004092.2204    7819463.81249   6091776.73346  22004092.1544   22004097.9894
       232.0004        186.0004
  24501246.3244   -1140343.64949   -877809.15845  24501247.3994   24501254.0544
       203.0004        139.0004
  22942570.6514   10877911.99749   8467435.21146  22942570.3794   22942574.0074
       222.0004        170.0004
  20645084.8904   -5072606.99749  -3940192.00047  20645085.3654   20645089.4464
       245.0004        210.0004
  21016238.2774   -4563621.24849  -3549455.73747  21016237.5424   21016242.9614
       240.0004        202.0004
 05  3 30 17 59 30.0000000  0  7G 6G21G 5G29G 2G30G10
  21326649.0374  -12780685.05549  -9945813.07947  21326648.8584   21326653.8734
       237.0004        198.0004
  23145941.5054  -10317156.38249  -8029376.88646  23145941.0984   23145944.9134
       222.0004        164.0004
  22021261.2574    7909687.38749   6162080.74146  22021261.1184   22021267.1304
       231.0004        185.0004
  24487241.5214   -1213938.54649   -935155.79245  24487241.1564   24487249.4874
       203.0004        138.0004
  22958285.9454   10960496.46349   8531786.66346  22958286.9094   22958289.4574
       221.0004        170.0004
  20651007.0814   -5041485.65949  -3915941.64647  20651007.5554   20651011.5354
       244.0004        210.0004
  21023430.5414   -4525825.74649  -3520004.71947  21023429.5634   21023434.8964
       239.0004        201.0004
 05  3 30 18  0  0.0000000  0  7G 6G21G 5G29G 2G30G10
  21316039.5844  -12836437.96849  -9989256.90447  21316039.3234   21316044.1584
       237.0004        198.0004
  23133320.5314  -10383479.89349  -8081057.54646  23133320.0464   23133323.7514
       222.0004        164.0004
  22038485.8484    8000203.05249   6232612.36746  22038485.3044   22038491.2074
       231.0004        185.0004
  24473242.8454   -1287502.19349   -992478.07145  24473243.1564   24473250.7494
       202.0004        136.0004
  22974010.6644   11043130.32049   8596176.58746  22974010.2744   22974014.2544
       221.0004        169.0004
  20657037.8604   -5009793.75849  -3891246.69147  20657038.2404   20657042.2634
       244.0004        210.0004
  21030735.1004   -4487440.08749  -3490093.83947  21030734.1264   21030739.8194
       239.0004        201.0004
 05  3 30 18  0 30.0000000  0  7G 6G21G 5G29G 2G30G10
  21305459.7214  -12892035.44249 -10032579.61147  21305459.6174   21305464.3904
       237.0004        199.0004
  23120735.0014  -10449617.70849  -8132593.49246  23120734.2794   23120738.9694
       222.0004        165.0004
  22055765.3674    8091007.18949   6303368.77146  22055764.8624   22055770.4884
       230.0004        184.0004
  24459250.4504   -1361032.31349  -1049774.21045  24459249.5344   24459258.0354
       200.0004        134.0004
  22989744.4234   11125811.38649   8660603.30046  22989745.0914   22989748.0634
       220.0004        169.0004
  20663176.8534   -4977533.27249  -3866108.68147  20663177.1804   20663181.3784
       244.0004        210.0004
  21038151.4414   -4448466.94949  -3459725.18147  21038150.9014   21038156.2464
       239.0004        201.0004
 05  3 30 18  1  0.0000000  0  7G 6G21G 5G29G 2G30G10
  21294909.7044  -12947476.09249 -10075780.11347  21294909.5314   21294914.1704
       238.0004        199.0004
  23108184.7304  -10515570.00049  -8183984.86446  23108184.8474   23108188.4324
       223.0004        165.0004
  22073099.1344    8182096.64749   6374347.49546  22073098.5924   22073104.1234
       230.0004        183.0004
  24445265.0384   -1434526.13349  -1107042.05045  24445265.6854   24445272.3714
       201.0004        133.0004
  23005486.8424   11208538.48049   8725065.88846  23005486.9234   23005490.4444
       221.0004        169.0004
  20669423.7634   -4944705.65049  -3840528.74747  20669424.1354   20669428.0464
       244.0004        210.0004
  21045679.2414   -4408908.21449  -3428900.21247  21045678.6904   21045683.9424
       240.0004        201.0004
 05  3 30 18  1 30.0000000  0  7G 6G21G 5G29G 2G30G10
  21284389.7574  -13002758.69949 -10118857.46747  21284389.6644   21284394.3714
       237.0004        199.0004
  23095669.6494  -10581337.07949  -8235231.92346  23095668.5114   23095673.5274
       222.0004        165.0004
  22090486.7114    8273468.85449   6445546.55946  22090486.4044   22090492.2984
       229.0004        183.0004
  24431287.0054   -1507980.85649  -1164279.43544  24431286.8724   24431294.9724
       200.0004        131.0004
  23021237.8064   11291310.05749   8789563.12446  23021238.1384   23021241.2064
       221.0004        169.0004
  20675778.3304   -4911312.33149  -3814508.00947  20675778.6264   20675782.8714
       244.0004        209.0004
  21053318.0624   -4368765.97749  -3397620.56747  21053317.3124   21053322.7784
       239.0004        201.0004
 05  3 30 18  2  0.0000000  0  7G 6G21G 5G29G 2G30G10
  21273900.0994  -13057882.06449 -10161810.73647  21273900.3154   21273904.7454
       238.0004        199.0004
  23083189.8394  -10646918.98649  -8286334.70546  23083189.0514   23083193.8034
       223.0004        165.0004
  22107927.5664    8365120.97449   6516963.71946  22107926.6814   22107933.2364
       230.0004        183.0004
  24417317.0704   -1581393.55149  -1221484.04944  24417314.6854   24417325.9064
       200.0004        129.0004
  23036997.0234   11374125.13349   8854094.26146  23036997.2094   23037000.6474
       221.0004        169.0004
  20682240.3124   -4877354.54949  -3788047.43047  20682240.6834   20682244.8894
       243.0004        209.0004
  21061067.6334   -4328041.83649  -3365887.49047  21061066.9174   21061072.4514
       239.0004        201.0004
 05  3 30 18  2 30.0000000  0  7G 6G21G 5G29G 2G30G10
  21263441.1094  -13112844.64649 -10204638.72647  21263440.9164   21263446.0264
       239.0004        200.0004
  23070745.1854  -10712315.76449  -8337293.22746  23070744.3964   23070749.1414
       224.0004        166.0004
  22125421.1724    8457050.14749   6588596.75346  22125420.9804   22125426.7934
       231.0004        183.0004
  24403355.6594   -1654761.48549  -1278653.78044  24403354.1294   24403364.7094
       200.0004        129.0004
  23052764.2064   11456982.22349   8918658.13146  23052764.4034   23052767.4234
       222.0004        169.0004
  20688809.4184   -4842833.74149  -3761148.13247  20688810.0954   20688814.1864
       245.0004        209.0004
  21068927.5494   -4286737.72349  -3333702.49247  21068926.9954   21068932.2064
       240.0004        201.0004
 05  3 30 18  3  0.0000000  0  7G 6G21G 5G29G 2G30G10
  21253012.9634  -13167644.99949 -10247340.29547  21253013.0554   21253017.5284
       238.0004        200.0004
  23058335.7104  -10777527.93849  -8388107.89146  23058334.4874   23058338.9404
       222.0004        166.0004
  22142966.9974    8549253.73749   6660443.62946  22142967.0834   22142972.7034
       229.0004        182.0004
  24389403.1454   -1728081.60449  -1335786.22444  24389402.9284   24389410.1424
       198.0004        128.0004
  23068539.3114   11539880.04049   8983253.74946  23068539.8424   23068542.8464
       221.0004        169.0004
  20695485.4314   -4807751.29649  -3733811.19047  20695485.7534   20695489.9864
       244.0004        209.0004
  21076897.4534   -4244855.68949  -3301067.16347  21076896.7084   21076902.1684
       239.0004        200.0004
 05  3 30 18  3 30.0000000  0  7G 6G21G 5G29G 2G30G10
  21242616.0064  -13222281.62849 -10289914.28447  21242616.0434   21242620.8774
       238.0004        200.0004
  23045961.3534  -10842555.18349  -8438778.45646  23045960.4344   23045965.3244
       224.0004        167.0004
  22160564.5304    8641729.18249   6732502.35946  22160564.0314   22160569.8284
       229.0004        182.0004
  24375460.3574   -1801350.75249  -1392878.94344  24375459.6704   24375467.4874
       202.0004        128.0004
  23084321.9494   11622817.80749   9047880.49546  23084322.0264   23084326.1714
       220.0004        169.0004
  20702268.0574   -4772108.50449  -3706037.61547  20702268.3784   20702272.6294
       244.0004        209.0004
  21084977.0074   -4202397.38449  -3267982.78847  21084976.0554   21084981.5464
       239.0004        200.0004
 05  3 30 18  4  0.0000000  0  7G 6G21G 5G29G 2G30G10
  21232250.5324  -13276752.46249 -10332359.08747  21232250.4194   21232255.0834
       238.0004        200.0004
  23033622.3824  -10907396.93849  -8489304.49646  23033622.2654   23033626.4004
       224.0004        167.0004
  22178213.3874    8734474.24649   6804771.16146  22178212.8734   22178219.1974
       229.0004        181.0004
  24361527.9444   -1874565.42049  -1449929.19244  24361526.9664   24361533.8624
       204.0004        129.0004
  23100112.0374   11705795.01849   9112537.97146  23100111.8554   23100116.3834
       222.0004        169.0004
  20709157.2094   -4735906.03449  -3677827.93547  20709157.6094   20709161.8234
       245.0004        209.0004
  21093166.0204   -4159363.96449  -3234450.28347  21093165.3954   21093170.8994
       240.0004        200.0004
 05  3 30 18  4 30.0000000  0  7G 6G21G 5G29G 2G30G10
  21221916.6814  -13331057.02849 -10374674.33547  21221916.8134   21221921.0454
       238.0004        200.0004
  23021318.5314  -10972054.30849  -8539686.86046  23021317.6134   23021322.0554
       223.0004        167.0004
  22195912.8044    8827485.20249   6877247.15746  22195912.6494   22195918.3614
       229.0004        181.0004
  24347606.2754   -1947723.75949  -1506935.57144  24347605.6834   24347614.7134
       206.0004        131.0004
  23115909.2714   11788809.43449   9177224.44746  23115909.1794   23115913.4894
       220.0004        169.0004
  20716152.3594   -4699146.42249  -3649184.11747  20716152.6364   20716156.8304
       244.0004        209.0004
  21101463.8834   -4115758.56949  -3200472.08047  21101462.9914   21101468.5304
       239.0004        200.0004
 05  3 30 18  5  0.0000000  0  7G 6G21G 5G29G 2G30G10
  21211614.8614  -13385193.29649 -10416858.44447  21211614.7454   21211619.6124
       238.0004        200.0004
  23009049.7014  -11036527.26649  -8589925.53546  23009049.0574   23009053.5304
       223.0004        167.0004
  22213662.4934    8920759.83049   6949928.61546  22213662.2224   22213667.4894
       229.0004        180.0004
  24333695.9864   -2020822.28349  -1563895.34845  24333696.8124   24333703.3544
       208.0004        133.0004
  23131713.4004   11871860.29949   9241939.31146  23131713.5184   23131717.4204
       221.0004        168.0004
  20723253.3274   -4661830.65949  -3620106.93547  20723253.7904   20723257.8104
       244.0004        209.0004
  21109870.3474   -4071582.57149  -3166049.25447  21109869.8314   21109874.7554
       239.0004        200.0004
 05  3 30 18  5 30.0000000  0  7G 6G21G 5G29G 2G30G10
  21201345.3424  -13439159.99949 -10458910.41947  21201345.2644   21201350.0034
       238.0004        201.0004
  22996815.9744  -11100815.70649  -8640020.41546  22996815.7264   22996819.4804
       224.0004        167.0004
  22231461.6674    9014294.94249   7022813.01446  22231461.4104   22231467.7804
       229.0004        180.0004
  24319797.6344   -2093858.16349  -1620806.30245  24319797.7744   24319806.3654
       210.0004        135.0004
  23147524.1824   11954946.26049   9306681.52046  23147524.3624   23147527.6144
       220.0004        167.0004
  20730459.8244   -4623960.35649  -3590597.64147  20730460.3814   20730464.3494
       244.0004        209.0004
  21118384.9254   -4026838.08549  -3131183.45447  21118384.4474   21118389.5984
       239.0004        199.0004
 05  3 30 18  6  0.0000000  0  7G 6G21G 5G29G 2G30G10
  21191108.5004  -13492955.15649 -10500828.72147  21191108.2214   21191113.2504
       239.0004        201.0004
  22984617.4334  -11164919.41049  -8689971.34346  22984616.2414   22984621.4754
       223.0004        168.0004
  22249310.1754    9108088.58049   7095898.88646  22249310.0934   22249315.7524
       230.0004        180.0004
  24305911.9344   -2166827.71449  -1677665.56645  24305911.4184   24305919.0214
       209.0004        136.0004
  23163341.5704   12038067.04649   9371450.87746  23163341.6524   23163345.2804
       221.0004        167.0004
  20737771.7244   -4585536.35749  -3560656.89547  20737772.0794   20737776.3674
       245.0004        209.0004
  21127007.4394   -3981526.53949  -3095875.78147  21127006.6284   21127012.2454
       239.0004        199.0004
 05  3 30 18  6 30.0000000  0  7G 6G21G 5G29G 2G30G10
  21180904.4674  -13546577.59349 -10542612.43447  21180904.1854   21180909.0484
       238.0004        201.0004
  22972453.9474  -11228838.92649  -8739778.75046  22972452.6724   22972457.3884
       224.0004        168.0004
  22267207.1354    9202137.55549   7169183.72346  22267206.8044   22267212.6214
       228.0004        180.0004
  24292039.2414   -2239728.52049  -1734471.23445  24292038.2824   24292047.0434
       208.0004        137.0004
  23179165.2484   12121220.74849   9436245.87146  23179165.2384   23179169.6844
       219.0004        166.0004
  20745188.5574   -4546560.69149  -3530286.27947  20745188.8854   20745193.1764
       245.0004        209.0004
  21135737.4424   -3935650.28149  -3060128.07647  21135736.8544   21135742.2574
       238.0004        199.0004
 05  3 30 18  7  0.0000000  0  7G 6G21G 5G29G 2G30G10
  21170733.8184  -13600024.46749 -10584259.35647  21170733.8164   21170738.4864
       238.0004        201.0004
  22960325.7984  -11292572.76449  -8789441.48746  22960325.6174   22960330.3194
       224.0004        168.0004
  22285152.4514    9296440.37549   7242666.34946  22285152.3204   22285158.0184
       228.0004        180.0004
  24278180.5184   -2312556.19649  -1791219.93145  24278179.8964   24278188.3504
       207.0004        137.0004
  23194995.3244   12204407.99549   9501067.01046  23194995.2994   23194999.3464
       220.0004        165.0004
  20752710.4084   -4507033.23649  -3499485.70347  20752710.8874   20752714.8864
       244.0004        209.0004
  21144574.7924   -3889209.93249  -3023940.82647  21144573.9264   21144579.7104
       238.0004        199.0004
 05  3 30 18  7 30.0000000  0  7G 6G21G 5G29G 2G30G10
  21160596.3794  -13653297.03549 -10625770.45247  21160596.3044   21160600.9864
       239.0004        201.0004
  22948232.4374  -11356123.94949  -8838961.88946  22948232.4994   22948236.7294
       225.0004        168.0004
  22303145.0054    9390991.60049   7316342.53746  22303145.4144   22303150.6224
       227.0004        179.0004
  24264335.7224   -2385310.40949  -1847911.37945  24264334.3714   24264342.9414
       207.0004        139.0004
  23210831.1184   12287624.93849   9565911.28146  23210831.9854   23210835.2414
       220.0004        165.0004
  20760336.4064   -4466958.47149  -3468258.64947  20760336.8284   20760341.1264
       243.0004        208.0004
  21153518.5434   -3842210.33049  -2987317.78747  21153518.0244   21153523.4774
       238.0004        199.0004
 05  3 30 18  8  0.0000000  0  7G 6G21G 5G29G 2G30G10
  21150492.9764  -13706390.80749 -10667142.21747  21150493.0284   21150497.7124
       239.0004        202.0004
  22936174.2874  -11419490.16949  -8888338.15146  22936173.8874   22936178.5284
       225.0004        169.0004
  22321184.8784    9485791.35049   7390212.39146  22321184.3464   22321190.7614
       229.0004        179.0004
  24250505.9914   -2457985.57549  -1904541.22245  24250505.5144   24250513.7914
       206.0004        139.0004
  23226672.7484   12370873.21249   9630779.96846  23226672.5994   23226676.5354
       219.0004        165.0004
  20768066.7644   -4426335.23849  -3436604.21747  20768066.9764   20768071.4164
       244.0004        208.0004
  21162568.8374   -3794650.81549  -2950258.44847  21162568.2494   21162573.6154
       238.0004        199.0004
 05  3 30 18  8 30.0000000  0  7G 6G21G 5G29G 2G30G10
  21140423.7504  -13759305.25049 -10708374.25747  21140423.5094   21140428.1754
       241.0004        202.0004
  22924151.1984  -11482672.05449  -8937570.78746  22924150.0814   22924154.6074
       226.0004        169.0004
  22339271.3764    9580836.00049   7464273.06646  22339271.4544   22339277.3074
       230.0004        178.0004
  24236691.7134   -2530579.32749  -1961107.63645  24236691.4084   24236699.4524
       206.0004        140.0004
  23242520.1404   12454151.05049   9695671.68546  23242519.9584   23242523.8924
       221.0004        165.0004
  20775901.0814   -4385165.81449  -3404524.19647  20775901.5734   20775905.6854
       245.0004        208.0004
  21171725.1774   -3746534.06949  -2912764.91747  21171724.6904   21171729.7504
       240.0004        199.0004
 05  3 30 18  9  0.0000000  0  7G 6G21G 5G29G 2G30G10
  21130388.8904  -13812038.77549 -10749465.31847  21130389.0064   21130393.4124
       240.0004        202.0004
  22912163.1734  -11545669.73749  -8986659.88846  22912163.1504   22912166.3304
       226.0004        169.0004
  22357403.8704    9676122.69549   7538522.36346  22357403.9514   22357409.6314
       229.0004        178.0004
  24222893.4964   -2603088.97349  -2017608.51145  24222891.9314   24222900.9594
       205.0004        140.0004
  23258372.9634   12537457.05349   9760585.36046  23258373.1334   23258376.4814
       220.0004        164.0004
  20783838.9624   -4343451.93749  -3372019.91747  20783839.4474   20783843.6414
       244.0004        208.0004
  21180987.1304   -3697862.46549  -2874839.02747  21180986.2984   21180992.0684
       238.0004        199.0004
 05  3 30 18  9 30.0000000  0  7G 6G21G 5G29G 2G30G10
  21120388.6644  -13864590.43649 -10790414.66447  21120388.7994   21120393.5444
       241.0004        202.0004
  22900210.1014  -11608483.86749  -9035605.95546  22900208.9554   22900213.4854
       227.0004        170.0004
  22375581.8194    9771648.21849   7612957.76046  22375581.7174   22375587.9334
       229.0004        177.0004
  24209111.8664   -2675511.64149  -2074041.65645  24209111.7014   24209119.3104
       207.0004        140.0004
  23274230.6404   12620789.59549   9825519.71246  23274229.8164   23274234.4624
       220.0004        163.0004
  20791880.0664   -4301195.87249  -3339093.14647  20791880.4514   20791884.7414
       245.0004        208.0004
  21190354.1084   -3648638.55749  -2836482.76747  21190353.4644   21190358.9104
       240.0004        198.0004
 05  3 30 18 10  0.0000000  0  7G 6G21G 5G29G 2G30G10
  21110423.4744  -13916957.82149 -10831220.42447  21110423.1284   21110428.1474
       240.0004        202.0004
  22888292.0254  -11671113.68849  -9084408.41546  22888290.7964   22888295.2254
       224.0004        169.0004
  22393804.9234    9867411.06149   7687578.07546  22393805.4714   22393810.9684
       228.0004        177.0004
  24195347.5104   -2747843.44249  -2130403.99045  24195347.1504   24195354.9994
       206.0004        141.0004
  23290093.3974   12704148.95249   9890474.95346  23290093.0944   23290097.7714
       218.0004        163.0004
  20800024.2574   -4258398.01549  -3305744.20847  20800024.7034   20800029.0684
       244.0004        208.0004
  21199826.0334   -3598863.37249  -2797696.94747  21199825.2864   21199830.7474
       238.0004        198.0004
 05  3 30 18 10 30.0000000  0  7G 6G21G 5G29G 2G30G10
  21100493.6024  -13969139.71449 -10871881.64147  21100493.4924   21100498.2974
       241.0004        203.0004
  22876408.8754  -11733559.92449  -9133067.80346  22876408.0124   22876412.2504
       226.0004        170.0004
  22412072.5314    9963407.61349   7762380.48346  22412072.4254   22412078.4774
       228.0004        176.0004
  24181600.8174   -2820082.07349  -2186693.72645  24181600.1674   24181607.0294
       207.0004        141.0004
  23305961.0694   12787533.53649   9955449.84945  23305960.5094   23305964.6624
       218.0004        162.0004
  20808271.1014   -4215060.79349  -3271974.97947  20808271.4534   20808275.8604
       244.0004        208.0004
  21209402.3144   -3548539.84549  -2758483.84547  21209401.6474   21209407.1464
       238.0004        198.0004
 05  3 30 18 11  0.0000000  0  7G 6G21G 5G29G 2G30G10
  21090599.5224  -14021133.44949 -10912396.24947  21090599.2924   21090604.3134
       241.0004        203.0004
  22864560.8684  -11795821.43849  -9181583.26646  22864560.6944   22864564.9874
       225.0004        170.0004
  22430384.2884   10059636.40149   7837363.86546  22430384.5584   22430391.0124
       228.0004        176.0004
  24167872.7664   -2892223.11249  -2242907.43445  24167872.5204   24167879.8094
       206.0004        142.0004
  23321833.5294   12870943.54349  10020444.55645  23321832.8114   23321837.4764
       218.0004        162.0004
  20816620.5234   -4171184.44049  -3237785.65547  20816620.8834   20816625.2064
       244.0004        208.0004
  21219082.8014   -3497668.62649  -2718843.97847  21219081.8854   21219087.5364
       237.0004        198.0004
 05  3 30 18 11 30.0000000  0  7G 6G21G 5G29G 2G30G10
  21080741.3644  -14072938.52949 -10952763.84547  21080741.4264   21080745.9794
       242.0004        203.0004
  22852747.7424  -11857899.80449  -9229956.00746  22852747.3124   22852750.7694
       226.0004        170.0004
  22448739.4914   10156093.23249   7912524.93846  22448739.2914   22448745.1114
       228.0004        176.0004
  24154163.5794   -2964264.75849  -2299043.69145  24154163.2214   24154171.7374
       207.0004        141.0004
  23337710.4474   12954376.57149  10085457.19845  23337710.2694   23337714.7024
       220.0004        162.0004
  20825071.9494   -4126772.18049  -3203178.73747  20825072.3324   20825076.4714
       245.0004        207.0004
  21228866.8534   -3446253.09649  -2678779.96447  21228866.0324   21228871.8404
       239.0004        198.0004
 05  3 30 18 12  0.0000000  0  7G 6G21G 5G29G 2G30G10
  21070919.4814  -14124552.89749 -10992982.83747  21070919.2364   21070924.1364
       242.0004        203.0004
  22840969.5684  -11919794.36849  -9278185.52346  22840968.3474   22840972.7544
       226.0004        170.0004
  22467137.6544   10252776.01949   7987862.07446  22467137.2554   22467143.9314
       228.0004        176.0004
  24140474.0814   -3036203.37249  -2355099.67745  24140473.4384   24140481.0234
       205.0004        142.0004
  23353591.6434   13037832.37249  10150487.58045  23353591.5354   23353596.6774
       218.0004        162.0004
  20833625.1104   -4081824.95449  -3168154.96747  20833625.2314   20833629.7324
       245.0004        207.0004
  21238754.2164   -3394294.85449  -2638293.06047  21238753.3074   21238759.0654
       238.0004        198.0004
 05  3 30 18 12 30.0000000  0  7G 6G21G 5G29G 2G30G10
  21061134.1104  -14175975.37749 -11033052.30647  21061134.1004   21061138.7654
       241.0004        203.0004
  22829226.2584  -11981505.66849  -9326272.24646  22829225.9564   22829231.0444
       226.0004        170.0004
  22485578.3004   10349681.74249   8063372.93746  22485578.3884   22485584.0794
       227.0004        176.0004
  24126804.6404   -3108036.25649  -2411073.28545  24126804.9404   24126812.6924
       204.0004        142.0004
  23369476.9424   13121309.67449  10215534.72745  23369477.1784   23369481.1804
       217.0004        162.0004
  20842279.7384   -4036344.86649  -3132715.98047  20842280.3604   20842284.3774
       244.0004        207.0004
  21248744.3474   -3341796.51349  -2597385.30047  21248743.6514   21248749.3464
       237.0004        197.0004
 05  3 30 18 13  0.0000000  0  7G 6G21G 5G29G 2G30G10
  21051385.6774  -14227203.75149 -11072970.51947  21051385.4194   21051390.3854
       241.0004        203.0004
  22817517.9524  -12043033.36049  -9374215.89046  22817517.1424   22817521.2804
       226.0004        171.0004
  22504060.8654   10446808.14849   8139055.75946  22504060.5334   22504067.3734
       227.0004        175.0004
  24113156.0314   -3179760.06449  -2466961.91145  24113155.9304   24113163.2364
       204.0004        142.0004
  23385366.2794   13204807.92949  10280598.19545  23385366.4484   23385369.3954
       219.0004        161.0004
  20851035.4684   -3990333.27849  -3096862.83347  20851035.7684   20851040.1644
       244.0004        207.0004
  21258836.8374   -3288760.29149  -2556058.41047  21258836.0444   21258841.6734
       238.0004        197.0004
 05  3 30 18 13 30.0000000  0  7G 6G21G 5G29G 2G30G10
  21041674.4514  -14278236.75249 -11112736.51047  21041674.3624   21041678.9764
       241.0004        204.0004
  22805844.5224  -12104377.64949  -9422016.63546  22805844.8724   22805849.1434
       226.0004        171.0004
  22522584.9394   10544152.31849   8214908.26146  22522584.3494   22522591.0234
       226.0004        175.0004
  24099528.6924   -3251371.79549  -2522763.21345  24099527.7844   24099536.3044
       203.0004        141.0004
  23401259.3034   13288326.02549  10345677.12645  23401259.2254   23401264.4424
       216.0004        161.0004
  20859891.9934   -3943792.07249  -3060597.00747  20859892.2374   20859896.8094
       243.0004        207.0004
  21269031.3454   -3235188.01249  -2514313.81547  21269030.9964   21269036.5584
       236.0004        197.0004
 05  3 30 18 14  0.0000000  0  7G 6G21G 5G29G 2G30G10
  21032000.7254  -14329072.81949 -11152349.03447  21032000.6294   21032005.1824
       241.0004        204.0004
  22794205.8794  -12165539.25349  -9469675.01846  22794205.9404   22794209.1824
       225.0004        171.0004
  22541149.8194   10641711.02349   8290927.94846  22541149.4774   22541155.5954
       225.0004        173.0004
  24085923.2574   -3322868.69949  -2578475.00845  24085923.1724   24085930.5894
       203.0004        142.0004
  23417155.8814   13371862.68149  10410770.50745  23417156.3804   23417159.3914
       218.0004        161.0004
  20868848.8674   -3896723.37749  -3023920.14047  20868849.1064   20868853.6024
       243.0004        206.0004
  21279327.3464   -3181082.32549  -2472153.57247  21279326.7394   21279332.3094
       237.0004        197.0004
 05  3 30 18 14 30.0000000  0  7G 6G21G 5G29G 2G30G10
  21022364.7314  -14379710.39449 -11191806.88947  21022364.7604   21022369.2964
       241.0004        204.0004
  22782601.8844  -12226518.47549  -9517191.27846  22782601.1534   22782605.5254
       226.0004        171.0004
  22559754.9394   10739481.41849   8367112.58546  22559754.2374   22559760.5004
       226.0004        173.0004
  24072340.3464   -3394247.62749  -2634094.89145  24072340.4754   24072347.3324
       202.0004        142.0004
  23433055.7244   13455417.08049  10475877.73245  23433055.8734   23433059.8634
       216.0004        161.0004
  20877905.8314   -3849128.90549  -2986833.57747  20877906.0464   20877910.9124
       243.0004        206.0004
  21289724.4034   -3126445.41249  -2429579.38647  21289723.7214   21289729.2674
       237.0004        197.0004
 05  3 30 18 15  0.0000000  0  7G 6G21G 5G29G 2G30G10
  21012766.9924  -14430146.74649 -11231107.95147  21012766.8144   21012771.8074
       241.0004        204.0004
  22771032.9104  -12287313.76649  -9564564.22846  22771032.1034   22771036.9624
       226.0004        171.0004
  22578400.1274   10837462.22949   8443461.18246  22578399.7994   22578406.2874
       225.0004        173.0004
  24058780.6504   -3465504.24749  -2689619.46445  24058780.4134   24058787.6354
       205.0004        143.0004
  23448959.0914   13538989.55549  10540999.02545  23448958.9934   23448963.1794
       217.0004        160.0004
  20887062.6814   -3801009.31949  -2949337.84047  20887063.0874   20887067.5754
       244.0004        206.0004
  21300222.3804   -3071278.36149  -2386592.10347  21300221.7334   21300227.0994
       237.0004        197.0004
 05  3 30 18 15 30.0000000  0  7G 6G21G 5G29G 2G30G10
  21003207.6434  -14480381.32149 -11270251.78047  21003207.3324   21003211.9684
       241.0004        204.0004
  22759498.5614  -12347926.92049  -9611795.25246  22759498.3974   22759502.0424
       226.0004        172.0004
  22597084.5614   10935649.34549   8519970.52346  22597084.2744   22597090.4044
       225.0004        173.0004
  24045244.3924   -3536636.76449  -2745047.33445  24045243.0154   24045251.6024
       203.0004        143.0004
  23464865.5524   13622578.07749  10606132.84545  23464866.5214   23464869.7124
       216.0004        160.0004
  20896318.9164   -3752367.68649  -2911435.30747  20896319.1794   20896323.6644
       243.0004        206.0004
  21310820.5894   -3015584.62449  -2343194.42047  21310819.9364   21310825.5014
       237.0004        197.0004
 05  3 30 18 16  0.0000000  0  7G 6G21G 5G29G 2G30G10
  20993687.2144  -14530411.54349 -11309236.37447  20993687.0634   20993691.6704
       242.0004        204.0004
  22747999.1374  -12408357.01249  -9658883.63146  22747998.8084   22748003.0414
       228.0004        172.0004
  22615807.9494   11034040.83949   8596639.13646  22615807.9624   22615815.2624
       225.0004        173.0004
  24031732.5784   -3607641.17349  -2800375.40945  24031731.6684   24031740.3044
       203.0004        142.0004
  23480774.9744   13706182.51149  10671279.04245  23480774.5584   23480779.4324
       220.0004        160.0004
  20905674.3294   -3703204.81949  -2873126.61847  20905674.6234   20905679.0994
       245.0004        206.0004
  21321518.7404   -2959365.61349  -2299387.43147  21321518.0904   21321523.5544
       238.0004        197.0004
 05  3 30 18 16 30.0000000  0  7G 6G21G 5G29G 2G30G10
  20984205.8354  -14580236.66049 -11348061.15147  20984205.5574   20984210.2844
       242.0004        204.0004
  22736534.3134  -12468605.03649  -9705830.12946  22736534.1754   22736537.4464
       228.0004        172.0004
  22634569.6024   11132633.42649   8673464.42646  22634569.3644   22634576.0124
       225.0004        173.0004
  24018245.6704   -3678515.00849  -2855601.74645  24018244.9954   24018253.4764
       203.0004        140.0004
  23496687.1514   13789801.28349  10736436.42045  23496687.4524   23496691.2594
       217.0004        160.0004
  20915128.4264   -3653523.43749  -2834413.89547  20915128.5784   20915133.3254
       244.0004        206.0004
  21332316.2954   -2902624.35149  -2255173.49447  21332315.8054   21332321.1454
       238.0004        197.0004
 05  3 30 18 17  0.0000000  0  7G 6G21G 5G29G 2G30G10
  20974763.9544  -14629854.08449 -11386724.08547  20974763.8634   20974768.5824
       242.0004        204.0004
  22725104.3874  -12528669.93249  -9752633.93546  22725104.2884   22725108.2484
       227.0004        173.0004
  22653369.0544   11231425.12849   8750444.87746  22653368.5394   22653375.4954
       224.0004        172.0004
  24004784.1224   -3749254.65349  -2910723.53545  24004784.6434   24004791.1024
       197.0004        137.0004
  23512602.0394   13873434.31949  10801604.92145  23512602.9544   23512607.4884
       215.0004        160.0004
  20924680.9724   -3603324.64849  -2795298.00147  20924681.5244   20924685.8014
       244.0004        206.0004
  21343212.9444   -2845362.34849  -2210553.78947  21343212.3624   21343217.9104
       237.0004        197.0004
 05  3 30 18 17 30.0000000  0  7G 6G21G 5G29G 2G30G10
  20965361.7094  -14679263.18049 -11425224.68247  20965361.8624   20965366.1954
       242.0004        204.0004
  22713708.9544  -12588553.34149  -9799296.33246  22713708.6074   22713712.3814
       227.0004        173.0004
  22672205.6924   11330412.21949   8827577.57346  22672205.4894   22672211.5734
       222.0004        171.0004
  23991348.8144   -3819857.66449  -2965738.80745  23991349.1154   23991357.6574
       197.0004        136.0004
  23528519.3694   13957079.67949  10866783.00445  23528519.4154   23528523.9154
       217.0004        160.0004
  20934331.4664   -3552611.32349  -2755781.16547  20934331.8744   20934336.2224
       244.0004        206.0004
  21354207.9884   -2787583.18949  -2165531.10447  21354207.1304   21354212.9924
       236.0004        197.0004
 05  3 30 18 18  0.0000000  0  7G 6G21G 5G29G 2G30G10
  20955999.4644  -14728462.18949 -11463561.57447  20955999.1344   20956003.8694
       241.0004        205.0004
  22702348.0234  -12648255.33749  -9845817.36146  22702347.9124   22702351.4644
       227.0004        173.0004
  22691079.0344   11429591.98149   8904860.40646  22691078.6234   22691085.3584
       222.0004        170.0004
  23977940.0584   -3890321.28749  -3020645.48045  23977938.6484   23977948.6804
       200.0004        137.0004
  23544438.8904   14040736.59949  10931970.10745  23544438.8744   23544443.4824
       216.0004        159.0004
  20944079.4644   -3501385.58149  -2715865.04047  20944079.7454   20944084.2504
       243.0004        206.0004
  21365300.9634   -2729289.21649  -2120107.25847  21365299.9014   21365306.1224
       236.0004        196.0004
 05  3 30 18 18 30.0000000  0  7G 6G21G 5G29G 2G30G10
  20946677.5784  -14777449.03049 -11501733.14547  20946677.4774   20946682.1804
       243.0004        205.0004
  22691021.8604  -12707774.56349  -9892195.98146  22691021.0934   22691025.6914
       229.0004        173.0004
  22709988.6244   11528962.09049   8982291.56546  22709987.8234   22709995.0794
       224.0004        170.0004
  23964558.5204   -3960642.00249  -3075440.83845  23964557.8024   23964566.4234
       201.0004        138.0004
  23560360.5284   14124404.68449  10997165.90145  23560360.7024   23560363.9214
       217.0004        159.0004
  20953924.7194   -3449648.71349  -2675550.64047  20953924.9904   20953929.5104
       245.0004        206.0004
  21376491.6664   -2670482.03049  -2074283.51847  21376490.8234   21376496.4384
       238.0004        196.0004
 05  3 30 18 19  0.0000000  0  7G 6G21G 5G29G 2G30G10
  20937396.4154  -14826221.95449 -11539738.03347  20937396.1424   20937400.9404
       241.0004        205.0004
  22679730.1874  -12767112.77649  -9938433.54846  22679729.2604   22679734.4654
       227.0004        174.0004
  22728933.9564   11628519.98349   9059869.06546  22728934.2264   22728940.6314
       223.0004        170.0004
  23951204.9054   -4030816.33449  -3130122.12545  23951205.4064   23951212.5504
       200.0004        141.0004
  23576284.0914   14208083.40149  11062369.96945  23576284.1484   23576288.7274
       215.0004        159.0004
  20963866.8434   -3397402.67749  -2634839.48947  20963867.1274   20963871.7024
       243.0004        205.0004
  21387779.5244   -2611163.95449  -2028061.68447  21387778.7294   21387784.2574
       236.0004        196.0004
 05  3 30 18 19 30.0000000  0  8G 6G21G18G 5G29G 2G30G10
  20928156.2974  -14874779.19649 -11577574.85447  20928156.0594   20928160.8134
       241.0004        205.0004
  22668473.0344  -12826269.50749  -9984529.69546  22668472.6834   22668476.3144
       228.0004        174.0004
  24831790.6124   -3390910.96059  -2626426.20344  24831790.4994   24831796.9634
       202.0004        129.0004
  22747914.5084   11728262.86249   9137590.70146  22747914.7464   22747921.0814
       223.0004        170.0004
  23937879.4074   -4100841.27049  -3184686.98645  23937879.4514   23937887.7594
       202.0004        143.0004
  23592209.5784   14291771.90449  11127581.68445  23592209.2434   23592214.5214
       214.0004        158.0004
  20973905.4834   -3344649.40749  -2593733.09147  20973906.0074   20973910.0384
       243.0004        205.0004
  21399164.1354   -2551337.35949  -1981443.60147  21399163.4374   21399168.9504
       235.0004        196.0004
 05  3 30 18 20  0.0000000  0  8G 6G21G18G 5G29G 2G30G10
  20918956.3444  -14923125.22749 -11615247.08747  20918956.0284   20918960.6764
       242.0004        205.0004
  22657249.1714  -12885251.23249 -10030489.47246  22657248.6334   22657252.3344
       228.0004        175.0004
  24811095.4114   -3499664.21649  -2711168.91944  24811095.4964   24811102.6674
       202.0004        129.0004
  22766928.4394   11828181.45549   9215449.25446  22766928.3044   22766935.0504
       223.0004        170.0004
  23924581.8094   -4170719.97849  -3239137.90945  23924582.0074   23924589.3764
       205.0004        143.0004
  23608135.4774   14375463.00149  11192795.40045  23608136.7974   23608139.9064
       216.0004        158.0004
  20984039.0784   -3291397.13349  -2552237.85147  20984039.2624   20984043.8854
       244.0004        205.0004
  21410643.8774   -2491011.11349  -1934436.17647  21410643.0004   21410648.8244
       236.0004        195.0004
 05  3 30 18 20 30.0000000  0  9G 6G21G18G26G 5G29G 2G30G10
  20909798.6284  -14971249.36249 -11652746.43047  20909798.2684   20909803.4734
       241.0004        205.0004
  22646060.3354  -12944048.97349 -10076305.88846  22646059.5694   22646064.4004
       228.0004        175.0004
  24790409.5164   -3608369.07349  -2795873.97044  24790408.7074   24790416.8664
       205.0004        129.0004
  24498458.1944   -2387503.22859  -1637013.75145  24498458.2204   24498466.6964
       205.0004        141.0004
  22785977.1354   11928282.41149   9293449.91346  22785976.4274   22785983.6024
       224.0004        169.0004
  23911314.5044   -4240440.18549  -3293465.37745  23911314.2424   23911322.6104
       206.0004        144.0004
  23624063.5784   14459165.08949  11258017.69245  23624063.6314   23624067.9704
       215.0004        158.0004
  20994269.0204   -3237638.71649  -2510348.22447  20994269.4104   20994274.0694
       244.0004        205.0004
  21422219.9824   -2430178.54249  -1887034.22047  21422219.5164   21422225.0964
       236.0004        195.0004
 05  3 30 18 21  0.0000000  0  9G 6G21G18G26G 5G29G 2G30G10
  20900683.1674  -15019151.22049 -11690072.56447  20900683.0484   20900688.2194
       243.0004        205.0004
  22634906.3124  -13002663.87249 -10121979.81646  22634905.9414   22634910.5434
       229.0004        175.0004
  24769733.0844   -3717024.59249  -2880540.59444  24769733.5204   24769738.8524
       210.0004        131.0004
  24480871.2794   -2479922.67549  -1709028.83845  24480871.2264   24480880.7684
       204.0004        140.0004
  22805059.7634   12028561.72549   9371589.54046  22805059.9564   22805066.8944
       224.0004        168.0004
  23898077.6494   -4310000.14249  -3347667.94345  23898077.7454   23898084.9754
       209.0004        144.0004
  23639993.3194   14542876.32849  11323247.10945  23639994.2434   23639998.3644
       215.0004        158.0004
  21004594.6154   -3183377.57449  -2468066.85947  21004595.1014   21004599.4694
       244.0004        205.0004
  21433891.7274   -2368843.20249  -1839240.49347  21433890.8564   21433896.7344
       237.0004        195.0004
 05  3 30 18 21 30.0000000  0  9G 6G21G18G26G 5G29G 2G30G10
  20891610.1604  -15066830.31549 -11727225.11447  20891610.0694   20891614.9004
       242.0004        205.0004
  22623786.6854  -13061097.83449 -10167512.77546  22623786.8184   22623790.3774
       229.0004        175.0004
  24749066.2364   -3825629.89849  -2965168.09544  24749064.4794   24749071.9724
       204.0004        130.0004
  24463277.4814   -2572378.21249  -1781072.05145  24463277.4554   24463286.3204
       203.0004        139.0004
  22824175.5154   12129015.16149   9449864.85746  22824175.3224   22824181.7554
       223.0004        168.0004
  23884871.6894   -4379397.93949  -3401744.15545  23884871.4084   23884880.0874
       209.0004        144.0004
  23655924.4254   14626594.19649  11388481.69045  23655925.0344   23655929.2344
       217.0004        157.0004
  21015015.2294   -3128617.04549  -2425396.36247  21015015.6174   21015020.1064
       244.0004        205.0004
  21445658.3734   -2307009.16649  -1791058.17847  21445657.9504   21445663.7284
       236.0004        195.0004
 05  3 30 18 22  0.0000000  0  9G 6G21G18G26G 5G29G 2G30G10
  20882579.8944  -15114284.71949 -11764202.58147  20882579.7814   20882584.6394
       242.0004        205.0004
  22612701.5564  -13119350.43649 -10212904.40646  22612700.3734   22612705.4974
       229.0004        175.0004
  24728409.3964   -3934182.40549  -3049754.43644  24728408.1194   24728416.9464
       205.0004        129.0004
  24445677.5314   -2664866.20449  -1853140.54345  24445677.8394   24445687.0944
       201.0004        138.0004
  22843323.8904   12229640.25449   9528273.93146  22843323.5164   22843330.8484
       221.0004        167.0004
  23871697.2854   -4448630.34449  -3455691.50945  23871697.0284   23871704.4444
       212.0004        145.0004
  23671856.7004   14710318.48749  11453721.27845  23671856.8154   23671861.8444
       214.0004        157.0004
  21025530.5114   -3073358.92549  -2382338.13347  21025530.7484   21025535.3754
       243.0004        204.0004
  21457519.5874   -2244678.26549  -1742488.68947  21457518.7894   21457524.6984
       235.0004        195.0004
 05  3 30 18 22 30.0000000  0  9G 6G21G18G26G 5G29G 2G30G10
  20873592.7094  -15161512.82749 -11801003.72047  20873592.6334   20873597.2054
       243.0004        205.0004
  22601650.9394  -13177422.11949 -10258155.05246  22601649.9034   22601654.4844
       229.0004        176.0004
  24707762.9694   -4042680.17649  -3134298.13544  24707761.4134   24707766.3614
       204.0004        128.0004
  24428071.9904   -2757383.72749  -1925232.03245  24428071.9284   24428080.5174
       201.0004        136.0004
  22862504.3204   12330433.98849   9606814.39246  22862503.9084   22862510.8884
       222.0004        166.0004
  23858554.8764   -4517694.45949  -3509507.71145  23858555.1164   23858563.1504
       214.0004        147.0004
  23687789.9874   14794048.16849  11518965.05945  23687790.6644   23687794.2534
       215.0004        157.0004
  21036140.0844   -3017605.45249  -2338893.91447  21036140.4934   21036145.1754
       244.0004        204.0004
  21469474.8614   -2181853.13549  -1693534.08747  21469474.3624   21469479.9244
       236.0004        194.0004
 05  3 30 18 23  0.0000000  0  9G 6G21G18G26G 5G29G 2G30G10
  20864648.8954  -15208513.17749 -11837627.37947  20864648.8944   20864653.8004
       241.0004        206.0004
  22590634.5024  -13235313.67749 -10303265.35946  22590634.3294   22590637.8044
       228.0004        176.0004
  24687127.2944   -4151121.06749  -3218797.50144  24687127.4474   24687132.6644
       199.0004        129.0004
  24410461.3974   -2849927.71949  -1997344.15445  24410462.0294   24410469.8724
       200.0004        135.0004
  22881716.3304   12431393.49249   9685484.04346  22881716.1084   22881722.5984
       220.0004        166.0004
  23845445.0604   -4586587.37849  -3563190.51445  23845445.5824   23845453.5164
       213.0004        147.0004
  23703724.1294   14877782.32949  11584212.33345  23703724.5434   23703729.3084
       216.0004        157.0004
  21046843.4684   -2961359.06249  -2295065.60647  21046844.1034   21046848.6054
       243.0004        204.0004
  21481523.6794   -2118536.52549  -1644196.51847  21481523.3214   21481528.6994
       235.0004        194.0004
 05  3 30 18 23 30.0000000  0  9G 6G21G18G26G 5G29G 2G30G10
  20855748.5284  -15255284.97149 -11874072.94047  20855748.0564   20855753.3524
       242.0004        206.0004
  22579652.2484  -13293025.79849 -10348235.82246  22579652.0624   22579655.3584
       228.0004        176.0004
  24666502.6964   -4259503.58449  -3303251.35644  24666501.2474   24666508.9154
       204.0004        131.0004
  24392846.2144   -2942495.85549  -2069475.06345  24392845.5044   24392854.9794
       196.0004        134.0004
  22900959.3164   12532515.23049   9764280.11146  22900959.1264   22900965.3694
       220.0004        166.0004
  23832368.1274   -4655306.90949  -3616738.22445  23832367.8854   23832376.0504
       213.0004        147.0004
  23719658.9294   14961519.21949  11649461.73845  23719659.6814   23719664.0724
       216.0004        156.0004
  21057640.0984   -2904622.64549  -2250855.44547  21057640.2294   21057645.2164
       242.0004        204.0004
  21493665.2884   -2054731.82749  -1594478.60647  21493664.4364   21493670.3884
       234.0004        194.0004
 05  3 30 18 24  0.0000000  0  9G 6G21G18G26G 5G29G 2G30G10
  20846892.4194  -15301824.23449 -11910337.31947  20846892.5174   20846897.2524
       242.0004        206.0004
  22568704.4094  -13350556.90749 -10393065.26146  22568704.1214   22568707.4564
       230.0004        176.0004
  24645890.0054   -4367823.69649  -3387656.59245  24645888.5964   24645895.3174
       207.0004        135.0004
  24375227.4724   -3035082.83549  -2141620.66145  24375227.1814   24375237.8234
       198.0004        133.0004
  22920232.9284   12633798.38949   9843201.95046  22920232.3634   22920239.7454
       221.0004        165.0004
  23819325.2564   -4723847.76249  -3670146.67745  23819325.4144   23819333.0234
       215.0004        146.0004
  23735594.6094   15045260.52749  11714714.57245  23735594.8204   23735599.4214
       214.0004        156.0004
  21068529.9534   -2847396.24649  -2206263.49647  21068530.4304   21068534.8324
       243.0004        204.0004
  21505899.7734   -1990439.54049  -1544380.77447  21505898.8164   21505904.8614
       235.0004        193.0004
 05  3 30 18 24 30.0000000  0  9G 6G21G18G26G 5G29G 2G30G10
  20838080.3514  -15348131.86449 -11946421.19247  20838080.1474   20838085.0834
       243.0004        206.0004
  22557790.5204  -13407909.78949 -10437755.80646  22557789.9974   22557794.2944
       232.0004        177.0004
  24625289.2294   -4476081.59249  -3472013.36445  24625289.3774   24625295.3784
       203.0004        138.0004
  24357605.2044   -3127688.03249  -2213780.44045  24357605.7104   24357615.7844
       198.0004        132.0004
  22939536.2964   12735237.83549   9922245.58946  22939536.5394   22939542.8184
       221.0004        165.0004
  23806316.4964   -4792209.39349  -3723415.48145  23806315.9204   23806324.0954
       216.0004        145.0004
  23751530.3464   15129002.63249  11779968.02845  23751530.3784   23751535.1574
       214.0004        156.0004
  21079512.1114   -2789684.68449  -2161293.49247  21079512.5774   21079517.1154
       243.0004        203.0004
  21518226.0244   -1925664.72849  -1493906.93647  21518225.0834   21518231.0704
       236.0004        193.0004
 05  3 30 18 25  0.0000000  0  9G 6G21G18G26G 5G29G 2G30G10
  20829313.0814  -15394204.27949 -11982321.78647  20829312.9874   20829317.7154
       242.0004        206.0004
  22546910.9864  -13465082.44849 -10482305.92846  22546910.1994   22546914.6034
       230.0004        177.0004
  24604700.9874   -4584273.11849  -3556318.38945  24604699.6014   24604706.3954
       206.0004        139.0004
  24339980.4264   -3220305.95149  -2285950.16045  24339978.9034   24339989.6714
       196.0004        133.0004
  22958869.1954   12836832.57649  10001410.21846  22958868.6864   22958875.1724
       220.0004        164.0004
  23793342.7944   -4860386.71649  -3776540.66945  23793343.0614   23793349.9304
       217.0004        145.0004
  23767466.4514   15212747.00049  11845223.24645  23767466.6254   23767472.8874
       215.0004        156.0004
  21090586.5734   -2731488.13949  -2115945.58447  21090586.9404   21090591.4464
       242.0004        203.0004
  21530644.0124   -1860408.05149  -1443057.62247  21530643.3264   21530649.0834
       234.0004        193.0004
 05  3 30 18 25 30.0000000  0  9G 6G21G18G26G 5G29G 2G30G10
  20820590.7384  -15440040.50449 -12018038.33347  20820590.6454   20820595.3844
       242.0004        206.0004
  22536065.4854  -13522076.10149 -10526716.55846  22536064.5474   22536069.4944
       231.0004        177.0004
  24584125.6214   -4692397.03149  -3640570.74145  24584124.3054   24584132.6844
       208.0004        138.0004
  24322353.5914   -3312934.45649  -2358128.09745  24322353.7454   24322361.4724
       197.0004        133.0004
  22978230.9264   12938579.10449  10080693.12746  22978230.6324   22978236.7104
       220.0004        163.0004
  23780404.5924   -4928377.82449  -3829520.78045  23780404.3794   23780411.6714
       217.0004        144.0004
  23783402.7674   15296491.73449  11910478.75845  23783402.2734   23783406.9184
       215.0004        155.0004
  21101752.7544   -2672809.74749  -2070222.20547  21101753.1304   21101757.7434
       243.0004        203.0004
  21543153.0124   -1794672.88949  -1391835.45147  21543152.5264   21543158.3344
       234.0004        193.0004
 05  3 30 18 26  0.0000000  0  9G 6G21G18G26G 5G29G 2G30G10
  20811913.7374  -15485638.61549 -12053569.34347  20811913.6024   20811918.4504
       243.0004        206.0004
  22525254.0724  -13578890.53749 -10570987.53946  22525253.7314   22525257.5614
       231.0004        178.0004
  24563563.7064   -4800450.72149  -3724768.37945  24563562.9794   24563569.6474
       201.0004        137.0004
  24304725.6364   -3405570.01549  -2430311.55945  24304725.6794   24304733.8474
       199.0004        134.0004
  22997621.1704   13040474.97649  10160092.40545  22997620.8784   22997627.7614
       219.0004        162.0004
  23767502.4664   -4996179.13049  -3882352.96545  23767501.0114   23767508.8734
       213.0004        143.0004
  23799338.9894   15380236.50149  11975734.28645  23799339.1804   23799343.3974
       216.0004        155.0004
  21113010.2484   -2613651.42249  -2024124.85447  21113010.8174   21113015.1604
       242.0004        203.0004
  21555752.7064   -1728461.38049  -1340242.10847  21555751.9934   21555757.5084
       234.0004        193.0004
 05  3 30 18 26 30.0000000  0  9G 6G21G18G26G 5G29G 2G30G10
  20803282.3054  -15530997.20649 -12088913.71747  20803282.1874   20803287.1134
       242.0004        206.0004
  22514476.6024  -13635526.44949 -10615119.41346  22514475.5034   22514480.3474
       231.0004        178.0004
  24543015.4514   -4908432.29349  -3808909.79945  24543015.4744   24543022.2264
       212.0004        137.0004
  24287096.8134   -3498209.58649  -2502498.12245  24287097.7324   24287106.0894
       199.0004        135.0004
  23017039.2034   13142517.07349  10239605.61245  23017038.7064   23017045.6954
       218.0004        162.0004
  23754636.8864   -5063787.95849  -3935035.16145  23754636.8874   23754643.8934
       211.0004        143.0004
  23815274.9854   15463980.37249  12040989.11145  23815274.5294   23815279.6144
       214.0004        154.0004
  21124358.5694   -2554015.80749  -1977655.59147  21124359.0414   21124363.6834
       242.0004        203.0004
  21568442.4094   -1661776.63149  -1288280.00047  21568441.6694   21568447.2154
       234.0004        192.0004
 05  3 30 18 27  0.0000000  0  9G 6G21G18G26G 5G29G 2G30G10
  20794696.8344  -15576114.21549 -12124069.83547  20794696.7014   20794701.4804
       243.0004        206.0004
  22503733.1254  -13691983.81849 -10659112.15346  22503732.4104   22503736.7624
       233.0004        178.0004
  24522481.5214   -5016339.15849  -3892993.02345  24522482.4794   24522487.3754
       212.0004        141.0004
  24269467.7834   -3590849.73549  -2574685.15845  24269467.4174   24269476.4614
       201.0004        136.0004
  23036484.5104   13244702.67849  10319230.66145  23036484.7134   23036491.5714
       219.0004        162.0004
  23741808.5904   -5131200.78749  -3987564.61745  23741808.5284   23741816.3484
       212.0004        143.0004
  23831210.7694   15547722.98449  12106242.96445  23831210.8664   23831214.2064
       217.0004        154.0004
  21135797.3714   -2493904.78649  -1930815.87747  21135797.7724   21135802.6764
       243.0004        203.0004
  21581221.8224   -1594620.82049  -1235950.83247  21581221.1614   21581226.9844
       234.0004        192.0004
 05  3 30 18 27 30.0000000  0  9G 6G21G18G26G 5G29G 2G30G10
  20786157.5714  -15620988.41249 -12159036.75947  20786157.2934   20786162.1634
       244.0004        207.0004
  22493023.4674  -13748263.24749 -10702966.26146  22493023.1644   22493026.6714
       232.0004        178.0004
  24501962.1354   -5124169.63349  -3977016.72445  24501960.5764   24501968.3564
       211.0004        145.0004
  24251839.4384   -3683487.49949  -2646870.34745  24251839.8014   24251847.1994
       203.0004        137.0004
  23055956.5484   13347028.52549  10398964.97945  23055956.1144   23055962.9944
       218.0004        162.0004
  23729018.0374   -5198415.15949  -4039939.43845  23729018.3324   23729025.9384
       211.0004        143.0004
  23847146.2384   15631463.17349  12171494.92145  23847146.0644   23847150.9294
       217.0004        154.0004
  21147326.1154   -2433321.07149  -1883607.83847  21147326.4414   21147331.0644
       243.0004        203.0004
  21594090.1364   -1526997.30249  -1183257.22147  21594089.6034   21594095.3594
       235.0004        191.0004
 05  3 30 18 28  0.0000000  0  9G 6G21G18G26G 5G29G 2G30G10
  20777664.9764  -15665617.30649 -12193812.53447  20777664.8324   20777669.5614
       242.0004        206.0004
  22482347.7724  -13804364.25349 -10746681.32746  22482347.1954   22482351.5704
       231.0004        178.0004
  24481457.6994   -5231920.90349  -4060978.69445  24481457.1704   24481463.2974
       210.0004        146.0004
  24234212.2514   -3776118.95749  -2719050.61145  24234212.4844   24234220.5094
       202.0004        138.0004
  23075454.9194   13449492.75349  10478807.12645  23075454.9154   23075461.9184
       217.0004        162.0004
  23716266.0944   -5265427.38849  -4092156.75945  23716266.5704   23716273.4094
       212.0004        144.0004
  23863081.1404   15715201.04749  12236745.08845  23863081.5324   23863086.3404
       214.0004        153.0004
  21158944.4724   -2372266.40449  -1836032.82547  21158944.8674   21158949.2724
       242.0004        203.0004
  21607047.1924   -1458907.64049  -1130200.38147  21607046.6334   21607052.0294
       233.0004        191.0004
 05  3 30 18 28 30.0000000  0  9G 6G21G18G26G 5G29G 2G30G10
  20769219.3444  -15709999.35449 -12228395.96247  20769219.2294   20769224.1144
       243.0004        206.0004
  22471705.9384  -13860287.55649 -10790257.92846  22471705.5224   22471709.2924
       232.0004        179.0004
  24460968.7774   -5339590.89349  -4144877.32245  24460968.1844   24460974.0154
       206.0004        146.0004
  24216586.9014   -3868741.09549  -2791223.63045  24216586.7564   24216597.0074
       205.0004        139.0004
  23094979.1224   13552092.59049  10558754.95345  23094978.9294   23094986.0284
       219.0004        162.0004
  23703553.2044   -5332234.30549  -4144214.09245  23703553.1824   23703560.1154
       210.0004        145.0004
  23879015.3114   15798935.56549  12301992.63545  23879015.0524   23879020.7104
       217.0004        153.0004
  21170652.0274   -2310743.03049  -1788092.58047  21170652.0934   21170656.8604
       242.0004        203.0004
  21620092.3264   -1390354.75449  -1076782.58347  21620091.7424   21620097.7574
       234.0004        191.0004
 05  3 30 18 29  0.0000000  0  9G 6G21G18G26G 5G29G 2G30G10
  20760821.1194  -15754132.54949 -12262785.48247  20760820.9934   20760825.8794
       241.0004        206.0004
  22461097.9784  -13916033.16349 -10833696.06746  22461097.9654   22461101.0854
       231.0004        179.0004
  24440495.7874   -5447177.02449  -4228710.61245  24440495.7174   24440501.3534
       211.0004        145.0004
  24198963.9244   -3961350.20849  -2863386.50145  24198963.3064   24198972.5614
       204.0004        139.0004
  23114528.6654   13654825.32149  10638806.33545  23114528.2454   23114534.6864
       219.0004        161.0004
  23690879.8884   -5398832.82349  -4196109.02945  23690879.7254   23690887.5694
       209.0004        146.0004
  23894948.9894   15882666.39149  12367237.31845  23894947.9124   23894954.1344
       214.0004        153.0004
  21182448.3394   -2248753.14149  -1739788.81947  21182448.5964   21182453.4574
       242.0004        202.0004
  21633225.2734   -1321340.87749  -1023005.57847  21633224.3004   21633230.7294
       233.0004        191.0004
 05  3 30 18 29 30.0000000  0  9G 6G21G18G26G 5G29G 2G30G10
  20752470.3654  -15798016.11249 -12296980.47847  20752470.2444   20752474.8944
       241.0004        207.0004
  22450523.6164  -13971601.85949 -10876996.34846  22450523.3264   22450527.2204
       232.0004        179.0004
  24420038.9984   -5554678.17049  -4312477.70845  24420038.4794   24420044.1174
       208.0004        143.0004
  24181343.8374   -4053944.05049  -2935537.47945  24181344.3244   24181353.1254
       204.0004        139.0004
  23134102.7024   13757687.16549  10718958.32145  23134102.8044   23134109.6004
       218.0004        161.0004
  23678246.6254   -5465220.79449  -4247839.89445  23678247.1614   23678253.9564
       211.0004        147.0004
  23910881.5094   15966391.98049  12432477.90945  23910880.1424   23910885.7304
       214.0004        153.0004
  21194332.7674   -2186300.22349  -1691124.25547  21194333.3584   21194337.9824
       242.0004        202.0004
  21646445.1584   -1251869.99849   -968872.46747  21646444.4584   21646450.4414
       233.0004        191.0004
 05  3 30 18 30  0.0000000  0  9G 6G21G18G26G 5G29G 2G30G10
  20744167.7244  -15841646.77249 -12330978.40747  20744167.4924   20744172.4594
       241.0004        207.0004
  22439983.0324  -14026992.71749 -10920158.05546  22439982.3234   22439986.8244
       232.0004        179.0004
  24399599.0604   -5662090.49349  -4396175.58745  24399597.3104   24399604.3394
       210.0004        143.0004
  24163727.6074   -4146517.66749  -3007672.72145  24163726.7504   24163736.5864
       205.0004        139.0004
  23153701.1004   13860676.95849  10799210.00745  23153701.0164   23153707.9834
       218.0004        160.0004
  23665654.3854   -5531393.75349  -4299403.21345  23665654.0794   23665663.1474
       208.0004        147.0004
  23926813.1734   16050113.19149  12497715.08645  23926813.0024   23926818.6124
       213.0004        152.0004
  21206305.1714   -2123385.02049  -1642099.47547  21206305.4804   21206310.2904
       241.0004        202.0004
  21659751.8704   -1181942.92849   -914383.88647  21659751.2864   21659756.6614
       233.0004        191.0004
 05  3 30 18 30 30.0000000  0  9G 6G21G18G26G 5G29G 2G30G10
  20735913.3434  -15885023.92349 -12364778.79947  20735913.0964   20735918.0764
       241.0004        207.0004
  22429476.0994  -14082207.10449 -10963182.25046  22429475.9474   22429480.0374
       232.0004        179.0004
  24379176.2014   -5769412.81749  -4479803.31645  24379175.7484   24379182.0284
       209.0004        143.0004
  24146115.5784   -4239068.84149  -3079790.45745  24146115.4724   24146124.8354
       203.0004        139.0004
  23173323.1334   13963791.02749  10879558.52245  23173322.8524   23173329.1254
       218.0004        160.0004
  23653103.3664   -5597349.60749  -4350797.36245  23653102.3084   23653110.7414
       209.0004        148.0004
  23942743.6154   16133828.15549  12562947.40145  23942743.9434   23942749.3664
       215.0004        151.0004
  21218364.9184   -2060010.88549  -1592717.08047  21218365.4114   21218369.9774
       241.0004        202.0004
  21673144.7284   -1111563.57149   -859542.86847  21673144.0054   21673149.6854
       233.0004        190.0004
 05  3 30 18 31  0.0000000  0  9G 6G21G18G26G 5G29G 2G30G10
  20727707.6394  -15928145.34949 -12398379.93147  20727707.4474   20727712.5254
       241.0004        207.0004
  22419002.8314  -14137244.64749 -11006068.63546  22419002.2784   22419006.8224
       232.0004        180.0004
  24358770.9734   -5876642.53449  -4563358.89545  24358769.9244   24358777.1274
       209.0004        144.0004
  24128508.7264   -4331593.80749  -3151887.77345  24128508.5414   24128516.5944
       204.0004        139.0004
  23192968.2684   14067026.90949  10960001.96945  23192967.5934   23192975.5644
       217.0004        159.0004
  23640594.2724   -5663085.01549  -4402019.73745  23640593.8874   23640602.3314
       210.0004        147.0004
  23958672.9784   16217536.70549  12628174.70945  23958673.5954   23958678.2944
       216.0004        151.0004
  21230511.5744   -1996179.87049  -1542978.67447  21230511.9824   21230516.5734
       241.0004        201.0004
  21686623.1334   -1040734.29549   -804351.27647  21686622.6444   21686628.1864
       233.0004        190.0004
 05  3 30 18 31 30.0000000  0  9G 6G21G18G26G 5G29G 2G30G10
  20719550.8034  -15971009.70149 -12431780.74047  20719550.6344   20719555.3754
       242.0004        207.0004
  22408563.0584  -14192105.73149 -11048817.52846  22408562.7254   22408567.1324
       232.0004        180.0004
  24338383.7614   -5983777.75249  -4646840.84345  24338384.0074   24338389.6164
       210.0004        145.0004
  24110907.3934   -4424089.54349  -3223962.31445  24110907.6664   24110916.0864
       206.0004        139.0004
  23212636.0474   14170381.54249  11040537.93245  23212635.2074   23212642.5554
       217.0004        159.0004
  23628127.7144   -5728597.04249  -4453068.05145  23628127.4684   23628135.1404
       210.0004        147.0004
  23974600.8614   16301238.02849  12693396.38945  23974600.4594   23974605.1364
       215.0004        150.0004
  21242744.6894   -1931894.65049  -1492886.33747  21242744.8644   21242749.9744
       242.0004        201.0004
  21700186.6534    -969457.88349   -748811.26147  21700186.4844   21700191.7144
       234.0004        190.0004
 05  3 30 18 32  0.0000000  0  9G 6G21G18G26G 5G29G 2G30G10
  20711443.3034  -16013614.96249 -12464979.66047  20711443.1964   20711448.0354
       241.0004        207.0004
  22398156.7804  -14246790.93449 -11091429.37446  22398156.6594   22398160.0684
       232.0004        180.0004
  24318014.9264   -6090816.35449  -4730247.50745  24318014.4894   24318020.2704
       208.0004        143.0004
  24093312.2224   -4516552.35949  -3296011.19145  24093312.1874   24093321.5064
       205.0004        138.0004
  23232326.0094   14273852.35949  11121164.44145  23232326.1754   23232333.9354
       217.0004        160.0004
  23615704.3364   -5793882.58749  -4503939.87745  23615704.1284   23615711.8594
       209.0004        149.0004
  23990527.3134   16384931.61849  12758612.04645  23990527.3544   23990532.0614
       215.0004        149.0004
  21255063.8024   -1867157.44349  -1442441.80847  21255063.9954   21255068.9514
       240.0004        201.0004
  21713834.7154    -897736.93849   -692924.85647  21713834.3854   21713839.8164
       233.0004        190.0004
 05  3 30 18 32 30.0000000  0  9G 6G21G18G26G 5G29G 2G30G10
  20703385.5074  -16055959.02049 -12497975.05047  20703385.3754   20703390.3034
       241.0004        207.0004
  22387784.0744  -14301300.03649 -11133904.00146  22387783.8704   22387787.9774
       231.0004        180.0004
  24297665.0734   -6197755.31949  -4813576.53145  24297664.9074   24297669.9104
       204.0004        140.0004
  24075723.9624   -4608978.53649  -3368031.53245  24075723.6934   24075733.5034
       207.0004        139.0004
  23252037.6764   14377437.18249  11201879.78245  23252037.8594   23252044.9044
       218.0004        161.0004
  23603324.6174   -5858938.15649  -4554632.49445  23603324.4094   23603332.4034
       209.0004        149.0004
  24006452.2994   16468617.29949  12823821.54245  24006451.6694   24006457.0584
       216.0004        149.0004
  21267468.4914   -1801970.31849  -1391646.70347  21267468.8684   21267473.5044
       240.0004        201.0004
  21727566.8654    -825574.17049   -636694.17947  21727566.2894   21727572.0804
       233.0004        190.0004
 05  3 30 18 33  0.0000000  0  9G 6G21G18G26G 5G29G 2G30G10
  20695377.6274  -16098040.70449 -12530765.99347  20695377.6184   20695382.3364
       242.0004        207.0004
  22377444.6694  -14355633.93349 -11176242.10346  22377444.1484   22377448.1514
       232.0004        180.0004
  24277334.4824   -6304593.26149  -4896826.84845  24277333.6724   24277340.1294
       209.0004        140.0004
  24058143.2534   -4701365.62649  -3440021.44245  24058143.3544   24058151.6514
       211.0004        140.0004
  23271770.3264   14481132.32149  11282681.08445  23271769.3594   23271778.1334
       217.0004        160.0004
  23590989.0554   -5923761.20549  -4605143.92645  23590989.2084   23590996.2614
       208.0004        149.0004
  24022375.4094   16552293.69849  12889023.80945  24022374.7864   24022381.1224
       214.0004        149.0004
  21279958.2344   -1736336.40249  -1340503.44047  21279958.4314   21279963.3424
       241.0004        200.0004
  21741382.5204    -752972.67649   -580121.63847  21741382.0144   21741387.4474
       233.0004        189.0004
 05  3 30 18 33 30.0000000  0  9G 6G21G18G26G 5G29G 2G30G10
  20687420.1544  -16139857.54749 -12563350.56447  20687420.1374   20687424.6944
       242.0004        207.0004
  22367138.6654  -14409792.38449 -11218443.49546  22367138.8724   22367142.3484
       232.0004        180.0004
  24257023.6924   -6411327.35949  -4979996.27345  24257024.2924   24257028.9494
       209.0004        140.0004
  24040570.8494   -4793709.29249  -3511977.53245  24040571.1094   24040579.4904
       210.0004        139.0004
  23291523.4614   14584935.55149  11363566.62645  23291523.0144   23291530.1604
       217.0004        160.0004
  23578698.5014   -5988348.47449  -4655471.63745  23578698.4974   23578705.4794
       209.0004        148.0004
  24038296.7504   16635961.04249  12954219.01145  24038296.3744   24038302.6874
       212.0004        149.0004
  21292532.6484   -1670257.52949  -1289013.45947  21292533.0764   21292537.9304
       240.0004        200.0004
  21755281.2384    -679934.47349   -523208.81047  21755280.3634   21755286.5664
       232.0004        189.0004
 05  3 30 18 34  0.0000000  0  9G 6G21G18G26G 5G29G 2G30G10
  20679513.4154  -16181407.83349 -12595727.43347  20679513.4714   20679518.1174
       242.0004        207.0004
  22356866.1184  -14463774.92849 -11260507.82246  22356865.2544   22356870.3074
       232.0004        180.0004
  24236732.9444   -6517955.50049  -5063083.13245  24236732.8694   24236738.7364
       209.0004        138.0004
  24023007.2674   -4886006.34349  -3583897.30745  24023007.6784   24023016.4764
       213.0004        139.0004
  23311296.7704   14688844.23249  11444534.28245  23311296.6354   23311303.9974
       217.0004        160.0004
  23566453.5144   -6052696.51149  -4705612.93445  23566452.8144   23566461.1944
       210.0004        148.0004
  24054216.2394   16719618.77149  13019406.71245  24054216.3734   24054222.1264
       214.0004        148.0004
  21305191.3194   -1603736.07849  -1237178.61947  21305191.8134   21305196.4884
       240.0004        200.0004
  21769262.6354    -606462.11149   -465957.67547  21769262.0834   21769267.9644
       233.0004        189.0004
 05  3 30 18 34 30.0000000  0  9G 6G21G18G26G 5G29G 2G30G10
  20671657.5604  -16222690.70949 -12627895.92247  20671657.1104   20671662.3134
       242.0004        207.0004
  22346626.7094  -14517583.39749 -11302436.50046  22346627.0424   22346630.3254
       233.0004        181.0004
  24216462.5904   -6624476.15349  -5146086.20545  24216461.4134   24216468.6534
       207.0004        137.0004
  24005453.1704   -4978253.99349  -3655778.60145  24005453.4504   24005460.4294
       214.0004        138.0004
  23331089.3694   14792854.81749  11525581.37545  23331089.0534   23331096.1744
       216.0004        158.0004
  23554254.3784   -6116803.44949  -4755566.37145  23554254.0494   23554261.3654
       208.0004        148.0004
  24070133.8724   16803265.34449  13084585.73445  24070134.2734   24070139.8054
       214.0004        148.0004
  21317933.5524   -1536775.39649  -1185001.51147  21317933.9514   21317938.6744
       241.0004        200.0004
  21783325.9214    -532559.38249   -408371.18947  21783325.4684   21783331.1384
       233.0004        188.0004
 05  3 30 18 35  0.0000000  0  9G 6G21G18G26G 5G29G 2G30G10
  20663853.1984  -16263702.89549 -12659853.48647  20663853.1824   20663857.9864
       242.0004        207.0004
  22336420.6424  -14571216.67449 -11344228.66146  22336419.7984   22336424.3474
       232.0004        181.0004
  24196213.4584   -6730885.73049  -5229002.74445  24196212.6814   24196219.5364
       210.0004        138.0004
  23987909.2644   -5070447.43349  -3727617.65345  23987908.4874   23987917.6114
       213.0004        138.0004
  23350901.1494   14896966.16949  11606706.99345  23350900.8384   23350908.0764
       216.0004        157.0004
  23542102.0264   -6180664.53849  -4805328.20045  23542102.1124   23542108.9914
       207.0004        148.0004
  24086049.3654   16886901.75549  13149756.83945  24086050.1944   24086053.6244
       213.0004        148.0004
  21330759.0994   -1469376.63549  -1132483.04947  21330759.6724   21330764.3144
       240.0004        199.0004
  21797470.8414    -458227.49049   -350450.29147  21797470.4254   21797476.2764
       233.0004        188.0004
 05  3 30 18 35 30.0000000  0  9G 6G21G18G26G 5G29G 2G30G10
  20656100.3404  -16304444.58449 -12691600.27947  20656100.3094   20656105.1604
       242.0004        208.0004
  22326247.5584  -14624676.02849 -11385885.29946  22326247.0914   22326252.0654
       232.0004        181.0004
  24175985.7514   -6837183.65749  -5311832.28345  24175985.7134   24175991.9294
       212.0004        141.0004
  23970376.0934   -5162585.03749  -3799413.21245  23970376.6844   23970384.3114
       212.0004        137.0004
  23370731.2774   15001173.73749  11687907.59145  23370731.2094   23370738.4584
       215.0004        156.0004
  23529996.6154   -6244278.53449  -4854897.49745  23529996.1634   23530003.8834
       208.0004        148.0004
  24101962.6624   16970525.67849  13214918.21345  24101962.5794   24101968.2104
       213.0004        148.0004
  21343667.3124   -1401543.90749  -1079626.42747  21343667.7464   21343672.5514
       239.0004        199.0004
  21811696.5824    -383470.91849   -292198.47747  21811695.6674   21811701.8824
       232.0004        188.0004
 05  3 30 18 36  0.0000000  0  9G 6G21G18G26G 5G29G 2G30G10
  20648399.6104  -16344912.39449 -12723133.65047  20648399.7204   20648404.2414
       241.0004        208.0004
  22316107.7504  -14677961.02849 -11427406.07246  22316107.3004   22316111.5634
       232.0004        181.0004
  24155779.8754   -6943366.63849  -5394572.24645  24155779.7924   24155784.8944
       211.0004        142.0004
  23952854.3544   -5254662.19249  -3871161.63945  23952854.5944   23952863.1444
       210.0004        139.0004
  23390579.4124   15105476.09749  11769182.03245  23390578.6694   23390585.8874
       215.0004        155.0004
  23517939.0724   -6307641.30649  -4904271.05445  23517939.0204   23517946.5134
       208.0004        148.0004
  24117873.6154   17054137.86549  13280070.43845  24117874.4234   24117880.2654
       213.0004        148.0004
  21356657.8494   -1333278.50749  -1026432.66347  21356658.5034   21356663.3074
       240.0004        199.0004
  21826002.8214    -308291.44349   -233617.12547  21826002.2134   21826008.1394
       232.0004        188.0004
 05  3 30 18 36 30.0000000  0  9G 6G21G18G26G 5G29G 2G30G10
  20640751.1994  -16385105.21149 -12754452.74647  20640751.0554   20640756.1154
       242.0004        208.0004
  22306000.9794  -14731072.43049 -11468791.58346  22306000.5174   22306004.4374
       232.0004        181.0004
  24135596.1834   -7049432.89549  -5477221.25145  24135595.9654   24135601.7584
       213.0004        143.0004
  23935344.6934   -5346675.84249  -3942860.60345  23935344.4064   23935353.3874
       210.0004        140.0004
  23410444.9924   15209869.90849  11850527.73945  23410444.7764   23410451.4214
       215.0004        154.0004
  23505929.8334   -6370750.30749  -4953446.85645  23505929.4244   23505937.2174
       207.0004        148.0004
  24133782.2784   17137737.34449  13345212.75645  24133783.1204   24133789.2794
       212.0004        148.0004
  21369730.1004   -1264583.58349   -972904.20547  21369730.4134   21369735.3914
       240.0004        199.0004
  21840388.8664    -232692.12449   -174708.62246  21840388.2044   21840394.2564
       232.0004        187.0004
 05  3 30 18 37  0.0000000  0  9G 6G21G18G26G 5G29G 2G30G10
  20633155.4664  -16425020.89949 -12785555.89247  20633155.4244   20633160.5304
       241.0004        208.0004
  22295927.3294  -14784009.68549 -11510041.39046  22295927.2814   22295931.1174
       232.0004        181.0004
  24115435.0914   -7155379.88649  -5559777.34445  24115434.6524   24115440.7704
       214.0004        144.0004
  23917847.9034   -5438622.20849  -4014507.10545  23917847.9484   23917855.9194
       209.0004        140.0004
  23430327.5374   15314352.80149  11931942.86445  23430327.0124   23430334.3234
       215.0004        153.0004
  23493969.4504   -6433602.12049  -5002422.23045  23493969.4134   23493976.9594
       207.0004        149.0004
  24149688.1744   17221323.60349  13410344.74645  24149687.4094   24149693.9324
       211.0004        148.0004
  21382883.6684   -1195461.25449   -919042.69847  21382884.1674   21382889.1094
       239.0004        199.0004
  21854854.4294    -156675.46449   -115474.92546  21854853.7004   21854859.8674
       231.0004        187.0004
 05  3 30 18 37 30.0000000  0  9G 6G21G18G26G 5G29G 2G30G10
  20625612.7574  -16464658.23649 -12816442.14047  20625612.6454   20625617.4204
       242.0004        208.0004
  22285886.6654  -14836774.29849 -11551156.67246  22285886.7824   22285891.2084
       233.0004        181.0004
  24095296.9834   -7261206.01849  -5642239.26645  24095296.5134   24095302.6294
       212.0004        145.0004
  23900364.4634   -5530498.33649  -4086098.88645  23900365.1614   23900372.8784
       210.0004        141.0004
  23450226.4554   15418921.49549  12013424.84745  23450225.5274   23450233.3404
       215.0004        153.0004
  23482058.5364   -6496194.29149  -5051195.30745  23482058.4494   23482065.6484
       208.0004        150.0004
  24165591.6924   17304895.87049  13475465.87245  24165591.8494   24165597.5274
       214.0004        147.0004
  21396117.9914   -1125914.66849   -864850.60747  21396118.4154   21396123.2834
       239.0004        198.0004
  21869398.7654     -80244.54249    -55918.41946  21869398.1014   21869403.9184
       232.0004        187.0004
 05  3 30 18 38  0.0000000  0  9G 6G21G18G26G 5G29G 2G30G10
  20618123.2384  -16504015.85849 -12847110.42947  20618123.2304   20618128.1434
       241.0004        208.0004
  22275878.7134  -14889366.66749 -11592137.74046  22275878.2104   22275882.7534
       233.0004        182.0004
  24075182.3424   -7366909.21349  -5724605.36445  24075181.8484   24075187.4794
       211.0004        145.0004
  23882894.9814   -5622301.17749  -4157633.54845  23882895.1164   23882903.6694
       209.0004        140.0004
  23470141.0454   15523573.01649  12094971.36145  23470140.9204   23470148.2684
       214.0004        153.0004
  23470197.5764   -6558524.14149  -5099763.97145  23470197.6404   23470204.4954
       207.0004        150.0004
  24181492.3064   17388453.47149  13540575.54645  24181492.2714   24181496.3714
       212.0004        148.0004
  21409432.4604   -1055946.70249   -810330.16747  21409432.7084   21409437.8174
       239.0004        198.0004
  21884021.4034      -3402.59749      3958.35846  21884020.7184   21884026.7284
       231.0004        187.0004
 05  3 30 18 38 30.0000000  0  9G 6G21G18G26G 5G29G 2G30G10
  20610687.5524  -16543090.72749 -12877558.39447  20610687.5684   20610692.4794
       241.0004        208.0004
  22265903.6694  -14941785.93249 -11632983.92246  22265903.1564   22265907.3324
       232.0004        182.0004
  24055091.6464   -7472486.41649  -5806873.27745  24055090.5374   24055097.9424
       213.0004        146.0004
  23865440.2484   -5714026.04149  -4229107.44545  23865440.3294   23865448.3454
       209.0004        141.0004
  23490071.0934   15628305.83349  12176581.23045  23490071.8724   23490079.2504
       214.0004        153.0004
  23458387.1874   -6620587.69249  -5148125.12545  23458386.8674   23458394.5614
       207.0004        151.0004
  24197390.2384   17471996.84649  13605674.13645  24197389.2464   24197395.5654
       210.0004        147.0004
  21422826.9074    -985558.64449   -755482.38847  21422827.1354   21422832.3314
       238.0004        198.0004
  21898721.8624      73848.67449     64154.08546  21898721.5814   21898726.9124
       231.0004        187.0004
 05  3 30 18 39  0.0000000  0  9G 6G21G18G26G 5G29G 2G30G10
  20603305.9664  -16581881.50549 -12907784.99047  20603305.8084   20603310.8484
       242.0004        208.0004
  22255961.4024  -14994032.86949 -11673695.82446  22255960.5994   22255964.8504
       233.0004        182.0004
  24035025.3304   -7577935.57549  -5889041.44845  24035025.2784   24035030.7744
       214.0004        147.0004
  23848000.9564   -5805669.88249  -4300518.20545  23848001.0724   23848009.2084
       209.0004        140.0004
  23510016.0164   15733116.82549  12258252.02345  23510016.4644   23510022.9284
       214.0004        153.0004
  23446628.0574   -6682382.19649  -5196276.61145  23446628.0474   23446635.9374
       210.0004        152.0004
  24213285.1684   17555524.87849  13670760.76445  24213286.8804   24213289.5784
       212.0004        147.0004
  21436300.6714    -914753.67849   -700309.73547  21436301.0984   21436305.9784
       239.0004        198.0004
  21913499.6704     151506.09349    124666.30146  21913499.0704   21913504.7544
       231.0004        187.0004
 05  3 30 18 39 30.0000000  0  9G 6G21G18G26G 5G29G 2G30G10
  20595978.8104  -16620386.05449 -12937788.54347  20595978.8514   20595983.5944
       242.0004        208.0004
  22246052.0034  -15046107.23149 -11714273.24546  22246051.3794   22246056.0024
       234.0004        182.0004
  24014983.8304   -7683254.21449  -5971107.89345  24014983.2234   24014989.5954
       215.0004        149.0004
  23830577.8794   -5897228.88349  -4371862.83645  23830577.8544   23830586.2274
       208.0004        140.0004
  23529975.3344   15838003.59149  12339981.85145  23529975.8374   23529982.6074
       215.0004        153.0004
  23434920.7604   -6743904.31049  -5244215.86545  23434921.0024   23434928.4274
       210.0004        155.0004
  24229177.2494   17639037.65349  13735835.52345  24229177.0204   24229183.4184
       211.0004        147.0004
  21449853.3794    -843533.99049   -644813.92847  21449853.7854   21449858.8914
       239.0004        197.0004
  21928354.2524     229567.18349    185493.06546  21928353.3674   21928359.4294
       232.0004        187.0004
 05  3 30 18 40  0.0000000  0  9G 6G21G18G26G 5G29G 2G30G10
  20588706.3274  -16658603.23449 -12967568.17547  20588706.2454   20588711.1074
       242.0004        209.0004
  22236175.1594  -15098010.09149 -11754717.03446  22236174.4774   22236178.8694
       232.0004        183.0004
  23994967.4544   -7788441.04849  -6053071.64945  23994966.9804   23994973.7094
       213.0004        149.0004
  23813171.5104   -5988700.21849  -4443139.16745  23813170.9154   23813179.8474
       207.0004        140.0004
  23549948.5324   15942962.86249  12421768.15945  23549947.9204   23549955.8094
       213.0004        153.0004
  23423265.7224   -6805151.85449  -5291941.17945  23423265.5514   23423273.5674
       210.0004        155.0004
  24245066.2774   17722534.12849  13800897.57545  24245065.9304   24245071.3624
       210.0004        146.0004
  21463484.3014    -771903.03149   -588997.64947  21463484.9294   21463489.9394
       238.0004        197.0004
  21943284.9384     308028.27149    246631.51346  21943283.7814   21943290.7204
       230.0004        186.0004
 05  3 30 18 40 30.0000000  0  9G 6G21G18G26G 5G29G 2G30G10
  20581488.9944  -16696530.59849 -12997121.98147  20581488.6524   20581493.8184
       242.0004        209.0004
  22226331.2044  -15149740.60449 -11795026.52046  22226330.8214   22226334.7564
       233.0004        183.0004
  23974976.7574   -7893492.71249  -6134930.07745  23974976.0694   23974982.7614
       213.0004        149.0004
  23795782.5494   -6080079.73749  -4514343.94545  23795781.6934   23795791.1554
       207.0004        141.0004
  23569935.1974   16047992.72249  12503609.48145  23569935.1134   23569943.0594
       214.0004        153.0004
  23411663.6634   -6866120.85149  -5339449.43845  23411664.0624   23411670.7984
       211.0004        155.0004
  24260952.1814   17806014.46749  13865947.02045  24260951.5734   24260958.1724
       209.0004        146.0004
  21477193.2554    -699862.38049   -532862.13347  21477193.6284   21477198.8104
       239.0004        197.0004
  21958291.3714     386887.52449    308080.21446  21958290.5524   21958296.7834
       231.0004        186.0004
 05  3 30 18 41  0.0000000  0  9G 6G21G18G26G 5G29G 2G30G10
  20574327.0224  -16734167.05449 -13026449.11147  20574327.0904   20574331.8164
       243.0004        209.0004
  22216519.7234  -15201300.16949 -11835202.80046  22216519.0644   22216523.1594
       233.0004        183.0004
  23955012.0124   -7998407.91049  -6216682.15345  23955011.4514   23955017.3664
       212.0004        149.0004
  23778411.5544   -6171364.54949  -4585474.94645  23778411.3584   23778420.1644
       210.0004        143.0004
  23589934.6604   16153089.74649  12585503.14445  23589934.7784   23589941.7654
       214.0004        153.0004
  23400115.0004   -6926809.24849  -5386739.06345  23400114.7984   23400122.8134
       215.0004        157.0004
  24276834.7774   17889477.54349  13930983.04145  24276835.0274   24276841.4854
       207.0004        146.0004
  21490979.4614    -627415.63249   -476410.17447  21490980.0644   21490984.8234
       239.0004        197.0004
  21973372.9554     466141.61049    369836.58346  21973372.8714   21973378.8694
       231.0004        186.0004
 05  3 30 18 41 30.0000000  0  9G 6G21G18G26G 5G29G 2G30G10
  20567220.8984  -16771510.12449 -13055547.62247  20567221.0494   20567225.6994
       242.0004        209.0004
  22206740.8084  -15252688.55949 -11875245.69046  22206739.9544   22206744.4834
       232.0004        183.0004
  23935073.7644   -8103183.88649  -6298325.75145  23935074.5034   23935079.7284
       214.0004        148.0004
  23761059.5004   -6262550.42349  -4656528.84645  23761059.0714   23761066.9474
       210.0004        145.0004
  23609946.4094   16258251.59449  12667447.29545  23609945.8054   23609953.7114
       213.0004        152.0004
  23388620.5044   -6987213.41749  -5433807.20845  23388620.2454   23388627.9924
       214.0004        159.0004
  24292714.0724   17972923.45949  13996005.67045  24292713.5344   24292719.9924
       208.0004        145.0004
  21504842.5974    -554564.70249   -419643.27147  21504842.7374   21504848.3544
       238.0004        196.0004
  21988529.2294     545788.02549    431898.66246  21988528.3994   21988535.2814
       231.0004        185.0004
 05  3 30 18 42  0.0000000  0  9G 6G21G18G26G 5G29G 2G30G10
  20560170.7924  -16808558.63849 -13084416.60647  20560170.8004   20560175.6924
       242.0004        209.0004
  22196994.3494  -15303906.39649 -11915155.68446  22196993.6714   22196998.2334
       232.0004        184.0004
  23915162.3714   -8207819.01149  -6379859.59145  23915161.7484   23915168.0974
       215.0004        149.0004
  23743726.7374   -6353634.43349  -4727503.35245  23743726.9004   23743735.5194
       213.0004        147.0004
  23629969.8544   16363475.13549  12749439.51845  23629969.9624   23629977.2014
       212.0004        151.0004
  23377180.4164   -7047331.00849  -5480652.04845  23377180.3454   23377187.6964
       214.0004        159.0004
  24308589.8744   18056351.28549  14061014.18545  24308589.9134   24308595.2744
       207.0004        144.0004
  21518782.0054    -481312.78749   -362563.90647  21518782.6074   21518787.4784
       238.0004        196.0004
  22003759.4754     625823.31549    494263.76246  22003758.5754   22003764.9094
       230.0004        185.0004
 05  3 30 18 42 30.0000000  0  9G 6G21G18G26G 5G29G 2G30G10
  20553177.1844  -16845310.25849 -13113054.24547  20553176.9424   20553181.7954
       243.0004        209.0004
  22187280.4184  -15354953.47749 -11954932.61746  22187279.5264   22187284.1964
       233.0004        184.0004
  23895278.2564   -8312310.54149  -6461281.55145  23895277.7434   23895283.3504
       212.0004        149.0004
  23726414.0624   -6444612.67649  -4798395.46845  23726414.0654   23726422.3084
       213.0004        149.0004
  23650004.6794   16468758.27649  12831478.19145  23650004.8224   23650012.3214
       213.0004        152.0004
  23365795.7004   -7107158.36149  -5527270.73545  23365795.6964   23365802.9864
       215.0004        159.0004
  24324462.1504   18139760.98949  14126008.61145  24324463.0554   24324468.7224
       207.0004        144.0004
  21532797.3634    -407662.09649   -305173.81447  21532797.9044   21532802.4234
       239.0004        196.0004
  22019063.3764     706245.56149    556930.38646  22019062.5604   22019069.7244
       231.0004        185.0004
 05  3 30 18 43  0.0000000  0  9G 6G21G18G26G 5G29G 2G30G10
  20546240.3934  -16881763.56649 -13141459.43947  20546240.4344   20546245.2214
       242.0004        209.0004
  22177598.8764  -15405830.26649 -11994576.87046  22177598.4484   22177602.2534
       233.0004        184.0004
  23875421.8614   -8416656.38449  -6542589.96445  23875421.1104   23875427.6504
       212.0004        149.0004
  23709122.3064   -6535481.59949  -4869202.38945  23709122.6964   23709130.5844
       212.0004        150.0004
  23670050.3644   16574098.21149  12913561.13145  23670051.1354   23670057.6434
       214.0004        151.0004
  23354466.6654   -7166692.96349  -5573661.31345  23354466.7794   23354474.1024
       215.0004        160.0004
  24340331.1354   18223152.04449  14190988.49745  24340331.6694   24340337.2704
       207.0004        144.0004
  21546887.9724    -333615.48049   -247475.20747  21546888.5394   21546893.3094
       238.0004        196.0004
  22034440.2634     787051.30449    619895.83146  22034439.7554   22034446.0554
       230.0004        184.0004
 05  3 30 18 43 30.0000000  0  9G 6G21G18G26G 5G29G 2G30G10
  20539360.6384  -16917916.89749 -13169630.88847  20539360.5874   20539365.3614
       242.0004        209.0004
  22167949.6694  -15456537.43749 -12034088.94946  22167949.9584   22167953.4654
       233.0004        185.0004
  23855593.5494   -8520854.77149  -6623783.48045  23855592.8374   23855599.6894
       216.0004        150.0004
  23691851.8694   -6626238.29949  -4939921.85645  23691852.4624   23691860.2294
       212.0004        150.0004
  23690106.1984   16679491.82549  12995685.90545  23690105.6314   23690113.0504
       213.0004        151.0004
  23343193.7884   -7225932.06349  -5619821.61345  23343193.5334   23343201.2044
       215.0004        160.0004
  24356196.2174   18306523.74549  14255953.32445  24356196.2664   24356203.5594
       208.0004        144.0004
  21561053.3954    -259176.04449   -189470.51547  21561053.8534   21561059.0054
       238.0004        195.0004
  22049889.5444     868237.58749    683157.79746  22049888.6904   22049895.1734
       230.0004        184.0004
 05  3 30 18 44  0.0000000  0  9G 6G21G18G26G 5G29G 2G30G10
  20532538.2254  -16953768.99249 -13197567.59247  20532538.0004   20532543.0524
       243.0004        209.0004
  22158332.6144  -15507075.43849 -12073469.20646  22158331.9864   22158336.1544
       234.0004        185.0004
  23835793.6584   -8624904.06249  -6704860.82845  23835791.3054   23835798.7224
       215.0004        150.0004
  23674603.4894   -6716879.42949  -5010551.26645  23674603.6034   23674612.1204
       210.0004        149.0004
  23710171.6084   16784935.96849  13077850.03045  23710171.1004   23710178.5964
       215.0004        153.0004
  23331977.6314   -7284873.16449  -5665749.71845  23331977.5184   23331984.7624
       216.0004        160.0004
  24372057.8414   18389875.33349  14320902.46245  24372058.4654   24372063.2064
       209.0004        145.0004
  21575292.9784    -184346.85649   -131162.10647  21575293.0954   21575298.2134
       238.0004        195.0004
  22065410.6304     949801.06049    746713.68446  22065409.9654   22065415.8334
       230.0004        183.0004
 05  3 30 18 44 30.0000000  0  9G 6G21G18G26G 5G29G 2G30G10
  20525773.6164  -16989317.30049 -13225267.59047  20525773.6334   20525778.5484
       242.0004        209.0004
  22148747.7464  -15557444.27249 -12112717.65146  22148747.0514   22148751.8964
       233.0004        185.0004
  23816022.6184   -8728801.28149  -6785819.67145  23816021.5514   23816027.9554
       216.0004        149.0004
  23657377.8294   -6807400.75549  -5081087.32845  23657377.7684   23657386.4394
       210.0004        148.0004
  23730246.3024   16890428.77749  13160052.09545  23730245.4434   23730253.6034
       215.0004        153.0004
  23320818.9684   -7343512.58349  -5711442.75545  23320818.7334   23320826.3194
       214.0004        159.0004
  24387915.4404   18473206.95749  14385836.02245  24387915.0884   24387921.2004
       208.0004        144.0004
  21589606.2924    -109129.86549    -72551.52947  21589606.6264   21589611.9724
       237.0004        195.0004
  22081003.1214    1031739.78349    810561.95746  22081002.6804   22081008.4444
       229.0004        183.0004
 05  3 30 18 45  0.0000000  0  9G 6G21G18G26G 5G29G 2G30G10
  20519067.1994  -17024559.89149 -13252729.36547  20519067.2154   20519072.1844
       242.0004        209.0004
  22139195.0634  -15607643.94349 -12151834.27446  22139194.7044   22139199.0304
       233.0004        185.0004
  23796280.9954   -8832543.95849  -6866658.10245  23796280.2184   23796286.8064
       218.0004        150.0004
  23640175.7204   -6897798.56849  -5151527.13745  23640175.8274   23640183.2224
       212.0004        148.0004
  23750329.8634   16995968.02349  13242290.32745  23750329.7994   23750338.0834
       216.0004        153.0004
  23309718.1804   -7401847.37049  -5756898.41145  23309718.1384   23309725.2534
       216.0004        159.0004
  24403769.0904   18556518.53649  14450753.98545  24403769.9124   24403776.5404
       207.0004        144.0004
  21603992.9514     -33527.67649    -13640.78847  21603993.1874   21603998.7634
       237.0004        194.0004
  22096666.4304    1114050.83149    874700.36746  22096666.2064   22096671.6944
       230.0004        183.0004
 05  3 30 18 45 30.0000000  0  9G 6G21G18G26G 5G29G 2G30G10
  20512419.2854  -17059494.85349 -13279951.43447  20512419.1984   20512424.2564
       242.0004        209.0004
  22129674.5274  -15657674.58449 -12190819.18746  22129674.1654   22129678.5004
       233.0004        185.0004
  23776569.1184   -8936130.10049  -6947374.54345  23776569.0744   23776574.6914
       216.0004        151.0004
  23622997.7514   -6988069.28249  -5221867.90145  23622997.6894   23623006.5474
       212.0004        148.0004
  23770421.6834   17101550.86849  13324562.54545  23770420.9004   23770429.6024
       213.0004        153.0004
  23298676.0444   -7459874.58249  -5802114.40945  23298675.9124   23298683.4274
       215.0004        158.0004
  24419619.0594   18639809.64749  14515656.00445  24419618.3804   24419624.2224
       206.0004        144.0004
  21618452.3944      42456.97449     45567.96747  21618452.7174   21618457.9624
       237.0004        194.0004
  22112400.1044    1196731.42949    939126.73046  22112399.3144   22112406.0334
       229.0004        183.0004
 05  3 30 18 46  0.0000000  0  9G 6G21G18G26G 5G29G 2G30G10
  20505830.1564  -17094121.03849 -13306932.89447  20505830.2394   20505835.0364
       244.0004        209.0004
  22120186.0464  -15707536.98249 -12229673.00446  22120186.0644   22120190.3544
       235.0004        185.0004
  23756887.3974   -9039557.98049  -7027967.65545  23756887.4594   23756892.4554
       218.0004        152.0004
  23605844.4554   -7078209.64649  -5292107.09245  23605844.9444   23605852.8354
       213.0004        150.0004
  23790521.2204   17207174.20349  13406866.29845  23790520.8754   23790529.2314
       215.0004        152.0004
  23287692.7874   -7517591.70049  -5847088.76645  23287692.8964   23287699.3454
       217.0004        158.0004
  24435464.8094   18723079.25949  14580541.26845  24435465.3194   24435471.3844
       209.0004        144.0004
  21632984.0224     118821.04049    105072.37747  21632984.3774   21632989.4434
       238.0004        194.0004
  22128203.4234    1279778.32249   1003838.52446  22128203.2044   22128209.5714
       230.0004        183.0004
 05  3 30 18 46 30.0000000  0  9G 6G21G18G26G 5G29G 2G30G10
  20499300.2974  -17128435.89849 -13333671.76047  20499300.4004   20499305.2734
       244.0004        209.0004
  22110729.6494  -15757230.71449 -12268395.38746  22110729.0514   22110732.9254
       234.0004        186.0004
  23737236.4344   -9142824.92049  -7108435.38645  23737235.9144   23737241.1334
       220.0004        152.0004
  23588716.8984   -7168215.52149  -5362241.47745  23588716.9014   23588725.4014
       210.0004        151.0004
  23810628.0284   17312835.79149  13489199.85945  23810628.1954   23810635.7464
       217.0004        153.0004
  23276769.2524   -7574995.16749  -5891818.73545  23276768.9984   23276777.0084
       216.0004        158.0004
  24451306.6424   18806328.08349  14645410.31345  24451307.9124   24451313.3464
       209.0004        144.0004
  21647587.4284     195562.38949    164870.77047  21647587.6574   21647592.7414
       238.0004        193.0004
  22144076.0544    1363189.46749   1068834.15346  22144075.1764   22144081.9234
       230.0004        182.0004
 05  3 30 18 47  0.0000000  0  9G 6G21G18G26G 5G29G 2G30G10
  20492829.6994  -17162439.12049 -13360167.79147  20492829.6194   20492834.5104
       242.0004        209.0004
  22101304.9544  -15806757.69749 -12306987.83746  22101304.4754   22101308.6824
       233.0004        186.0004
  23717616.2894   -9245929.86349  -7188776.85745  23717616.1464   23717621.4194
       216.0004        153.0004
  23571615.2834   -7258084.86849  -5432269.47845  23571615.7204   23571623.1584
       207.0004        150.0004
  23830741.3724   17418531.52349  13571560.01845  23830740.7314   23830749.4544
       213.0004        153.0004
  23265905.6664   -7632083.59549  -5936303.21645  23265904.9094   23265912.6004
       216.0004        157.0004
  24467144.1434   18889554.10049  14710261.60845  24467144.8084   24467150.5084
       208.0004        145.0004
  21662261.8464     272676.70549    224959.78247  21662262.3784   21662267.9964
       236.0004        193.0004
  22160017.2114    1446960.54449   1134110.23946  22160016.6704   22160022.9364
       229.0004        182.0004
 05  3 30 18 47 30.0000000  0  9G 6G21G18G26G 5G29G 2G30G10
  20486418.9104  -17196128.07349 -13386418.93847  20486418.6184   20486423.6754
       244.0004        209.0004
  22091912.1944  -15856117.17149 -12345449.76246  22091911.4384   22091915.5364
       235.0004        186.0004
  23698027.4234   -9348869.96249  -7268989.89145  23698027.2274   23698032.5194
       217.0004        153.0004
  23554540.4104   -7347813.20149  -5502187.59145  23554540.0814   23554548.8304
       208.0004        148.0004
  23850860.8554   17524259.90049  13653945.63145  23850860.4334   23850869.6744
       214.0004        153.0004
  23255102.7744   -7688853.10849  -5980539.19745  23255102.0684   23255110.1004
       218.0004        157.0004
  24482977.4014   18972757.68549  14775095.41345  24482977.7474   24482983.7524
       209.0004        145.0004
  21677006.9044     350162.26249    285338.07447  21677007.0704   21677012.3704
       237.0004        193.0004
  22176026.4564    1531089.34649   1199665.07746  22176026.0374   22176032.8624
       230.0004        182.0004
 05  3 30 18 48  0.0000000  0  9G 6G21G18G26G 5G29G 2G30G10
  20480068.4874  -17229499.77349 -13412422.87747  20480068.3244   20480073.5454
       242.0004        209.0004
  22082551.4314  -15905308.18949 -12383780.42646  22082550.8084   22082554.8904
       233.0004        186.0004
  23678470.6084   -9451641.75149  -7349071.77045  23678469.7564   23678477.0404
       216.0004        153.0004
  23537493.4374   -7437395.66849  -5571992.04645  23537493.0134   23537501.8354
       207.0004        149.0004
  23870986.3424   17630019.49149  13736355.56645  23870985.5614   23870994.8404
       212.0004        151.0004
  23244361.3834   -7745299.65249  -6024523.52145  23244360.5944   23244368.6744
       215.0004        157.0004
  24498806.5144   19055939.87249  14839912.54745  24498806.3994   24498813.0684
       207.0004        143.0004
  21691822.2524     428017.36049    346004.32347  21691822.5444   21691828.0834
       236.0004        193.0004
  22192103.4894    1615574.45949   1265497.55646  22192103.0674   22192108.9684
       228.0004        181.0004
 05  3 30 18 48 30.0000000  0  8G 6G21G18G26G 5G29G30G10
  20473779.4054  -17262549.37549 -13438175.83247  20473779.3384   20473784.3034
       243.0004        209.0004
  22073223.2304  -15954328.02549 -12421977.70346  22073222.6164   22073227.1964
       234.0004        186.0004
  23658946.7764   -9554239.91249  -7429018.34545  23658946.4624   23658952.7984
       215.0004        153.0004
  23520475.4594   -7526825.64849  -5641677.67945  23520475.1444   23520484.3154
       209.0004        149.0004
  23891117.7564   17735810.44649  13818789.94845  23891118.0034   23891125.4374
       213.0004        149.0004
  23233682.4794   -7801417.40249  -6068251.62045  23233682.0174   23233689.5254
       216.0004        157.0004
  21706708.0194     506242.27049    406958.74147  21706708.4984   21706713.6994
       236.0004        193.0004
  22208248.3144    1700415.93249   1331607.72746  22208247.8804   22208254.4164
       229.0004        181.0004
 05  3 30 18 49  0.0000000  0  8G 6G21G18G26G 5G29G30G10
  20467550.7184  -17295281.40949 -13463681.32847  20467550.6104   20467555.6064
       242.0004        209.0004
  22063926.3724  -16003183.35549 -12460046.78346  22063925.7824   22063930.4444
       234.0004        186.0004
  23639455.1884   -9656668.67049  -7508832.91445  23639454.9164   23639461.2074
       216.0004        154.0004
  23503485.9934   -7616105.80149  -5711246.56445  23503486.3554   23503494.0714
       209.0004        150.0004
  23911253.5144   17841624.07049  13901241.96645  23911253.6244   23911261.2454
       210.0004        148.0004
  23223065.5754   -7857209.50349  -6111725.97545  23223064.2974   23223072.6364
       217.0004        157.0004
  21721662.4704     584828.08749    468194.37847  21721663.0764   21721668.3874
       236.0004        193.0004
  22224459.2314    1785604.64449   1397988.47046  22224459.2174   22224465.1934
       229.0004        181.0004
 05  3 30 18 49 30.0000000  0  8G 6G21G18G26G 5G29G30G10
  20461383.0314  -17327692.77949 -13488936.95947  20461382.9194   20461387.7734
       242.0004        210.0004
  22054661.0174  -16051873.22449 -12497986.93446  22054660.3064   22054664.3344
       234.0004        186.0004
  23619996.4734   -9758924.69449  -7588512.89445  23619995.0284   23620001.5924
       216.0004        155.0004
  23486525.9594   -7705231.18449  -5780694.87045  23486525.8964   23486534.3914
       209.0004        150.0004
  23931393.3534   17947459.06649  13983710.63245  23931392.9314   23931401.5364
       211.0004        148.0004
  23212511.3974   -7912671.96149  -6154943.43845  23212511.3634   23212519.0244
       214.0004        157.0004
  21736685.3174     663773.25649    529710.02747  21736685.6464   21736691.2534
       236.0004        192.0004
  22240735.9354    1871138.93849   1464638.49946  22240735.5494   22240742.1084
       229.0004        180.0004
 05  3 30 18 50  0.0000000  0  8G 6G21G18G26G 5G29G30G10
  20455276.7464  -17359781.55649 -13513941.22247  20455276.7474   20455281.7894
       243.0004        210.0004
  22045427.0794  -16100397.72349 -12535798.22446  22045426.5494   22045430.9504
       234.0004        186.0004
  23600571.0344   -9861005.64349  -7668056.43445  23600569.1664   23600576.5574
       216.0004        154.0004
  23469596.0024   -7794198.08749  -5850019.65045  23469595.8974   23469603.6944
       208.0004        150.0004
  23951536.8814   18053312.99549  14066194.06545  23951536.7364   23951544.7094
       210.0004        147.0004
  23202020.4354   -7967801.85549  -6197901.77145  23202020.5454   23202027.7394
       215.0004        156.0004
  21751775.9414     743074.98049    591503.51247  21751776.6584   21751781.6734
       237.0004        192.0004
  22257077.9154    1957016.16549   1531555.75146  22257077.6564   22257083.4034
       229.0004        180.0004
 05  3 30 18 50 30.0000000  0  8G 6G21G18G26G 5G29G30G10
  20449232.2844  -17391545.75349 -13538692.56347  20449232.2114   20449237.2424
       242.0004        210.0004
  22036224.6954  -16148756.74949 -12573480.57846  22036224.2994   22036228.6054
       234.0004        187.0004
  23581179.3874   -9962909.19549  -7747461.75345  23581179.0394   23581185.2874
       217.0004        156.0004
  23452696.9594   -7883002.73149  -5919218.00145  23452696.7164   23452705.7264
       210.0004        151.0004
  23971683.4764   18159183.43849  14148690.36145  23971683.3594   23971692.1404
       211.0004        146.0004
  23191593.3684   -8022596.32049  -6240598.74845  23191593.4044   23191600.4424
       214.0004        155.0004
  21766933.9894     822730.69049    653572.83147  21766934.4054   21766939.3864
       236.0004        192.0004
  22273484.6194    2043233.56949   1598738.07046  22273484.2784   22273490.8624
       228.0004        179.0004
 05  3 30 18 51  0.0000000  0  8G 6G21G18G26G 5G29G30G10
  20443249.8104  -17422984.04949 -13563189.95347  20443249.3734   20443254.4864
       244.0004        210.0004
  22027053.5794  -16196951.07749 -12611034.59746  22027053.0484   22027057.4594
       235.0004        187.0004
  23561821.8014  -10064633.67549  -7826727.51945  23561820.7814   23561827.6354
       217.0004        157.0004
  23435829.4114   -7971641.74249  -5988287.29645  23435829.0734   23435837.3514
       212.0004        152.0004
  23991832.6314   18265067.50849  14231197.27645  23991833.5794   23991840.0834
       210.0004        144.0004
  23181230.6344   -8077052.57549  -6283032.15645  23181230.1484   23181238.6954
       216.0004        156.0004
  21782158.8384     902737.39149    715915.65647  21782158.9154   21782164.3824
       237.0004        192.0004
  22289955.5114    2129788.26249   1666183.20946  22289954.4564   22289961.2834
       230.0004        179.0004
 05  3 30 18 51 30.0000000  0  8G 6G21G18G26G 5G29G30G10
  20437329.9464  -17454092.97349 -13587430.69147  20437329.9414   20437334.7434
       242.0004        210.0004
  22017914.1294  -16244979.30149 -12648459.18646  22017914.0554   22017918.2244
       234.0004        187.0004
  23542499.0874  -10166174.94049  -7905850.52845  23542498.6774   23542504.8854
       217.0004        157.0004
  23418994.5494   -8060109.87749  -6057223.46345  23418995.1274   23419003.1434
       212.0004        153.0004
  24011984.1734   18370964.31749  14313714.12345  24011983.7404   24011992.8084
       207.0004        142.0004
  23170933.0784   -8131166.17349  -6325198.56845  23170933.2974   23170939.4204
       215.0004        156.0004
  21797450.1564     983093.74549    778530.92547  21797450.9694   21797455.9744
       236.0004        191.0004
  22306490.3104    2216678.72949   1733890.00246  22306489.5694   22306495.9094
       227.0004        179.0004
 05  3 30 18 52  0.0000000  0  8G 6G21G18G26G 5G29G30G10
  20431472.7184  -17484872.98749 -13611415.13647  20431472.5364   20431477.7024
       242.0004        210.0004
  22008805.8224  -16292843.51049 -12685755.96946  22008805.4914   22008809.6264
       234.0004        187.0004
  23523211.2294  -10267533.20449  -7984830.94845  23523209.9114   23523216.2464
       217.0004        157.0004
  23402192.3174   -8148405.82449  -6126025.43645  23402192.8394   23402200.3514
       212.0004        152.0004
  24032137.2254   18476868.81049  14396236.93845  24032136.4784   24032145.4514
       208.0004        141.0004
  23160700.8974   -8184936.71149  -6367097.65645  23160700.4814   23160708.0694
       213.0004        155.0004
  21812807.0854    1063794.70349    841414.72547  21812807.6874   21812812.8834
       236.0004        191.0004
  22323087.9394    2303900.01949   1801854.57646  22323087.9084   22323093.8994
       228.0004        178.0004
 05  3 30 18 52 30.0000000  0  8G 6G21G18G26G 5G29G30G10
  20425678.7044  -17515320.82149 -13635140.74247  20425678.7774   20425683.5864
       242.0004        210.0004
  21999728.9474  -16340542.88149 -12722924.31547  21999728.5254   21999732.5614
       234.0004        188.0004
  23503958.7654  -10368705.06549  -8063666.10745  23503958.1984   23503964.9634
       218.0004        157.0004
  23385423.9044   -8236524.30849  -6194689.13345  23385424.0984   23385432.4064
       212.0004        152.0004
  24052291.6664   18582780.04149  14478765.00845  24052290.3864   24052300.6474
       209.0004        140.0004
  23150534.7834   -8238359.81949  -6408726.00845  23150534.3694   23150542.4914
       212.0004        155.0004
  21828229.3834    1144838.92549    904565.99647  21828230.0314   21828235.1854
       235.0004        190.0004
  22339748.3424    2391450.59249   1870075.73146  22339747.2854   22339753.6414
       227.0004        178.0004
 05  3 30 18 53  0.0000000  0  8G 6G21G18G26G 5G29G30G10
  20419948.1174  -17545435.63549 -13658606.83547  20419947.8844   20419952.8254
       243.0004        210.0004
  21990683.1124  -16388079.18749 -12759965.58347  21990682.5274   21990686.6564
       235.0004        188.0004
  23484742.1094  -10469689.26549  -8142355.04745  23484741.7724   23484748.0764
       218.0004        159.0004
  23368689.7004   -8324462.87749  -6263212.64245  23368689.4434   23368698.2214
       213.0004        153.0004
  24072446.6154   18688694.44949  14561295.54545  24072446.6324   24072454.3754
       208.0004        141.0004
  23140435.0894   -8291433.70349  -6450082.23145  23140434.2714   23140442.0454
       214.0004        155.0004
  21843716.2044    1226222.74449    967981.89047  21843717.0094   21843721.4264
       236.0004        190.0004
  22356470.6594    2479326.85849   1938550.67946  22356469.6484   22356476.6414
       228.0004        177.0004
 05  3 30 18 53 30.0000000  0  8G 6G21G18G26G 5G29G30G10
  20414281.5514  -17575213.62149 -13681810.47847  20414281.3274   20414286.4664
       243.0004        210.0004
  21981668.7414  -16435449.94449 -12796877.86647  21981668.3684   21981672.6864
       235.0004        188.0004
  23465561.9624  -10570481.49349  -8220894.39945  23465561.0804   23465568.3354
       217.0004        158.0004
  23351990.8194   -8412215.56949  -6331591.31545  23351991.2134   23351998.4754
       215.0004        154.0004
  24092602.0424   18794611.58549  14643828.20345  24092601.7994   24092610.7014
       207.0004        140.0004
  23130402.9064   -8344153.43449  -6491162.51745  23130403.2754   23130410.1764
       213.0004        154.0004
  21859267.6274    1307945.40749   1031661.81647  21859267.8144   21859273.4284
       236.0004        190.0004
  22373254.8304    2567528.02049   2007278.78546  22373254.4284   22373260.4514
       228.0004        177.0004
 05  3 30 18 54  0.0000000  0  8G 6G21G18G26G 5G29G30G10
  20408679.0464  -17604654.99449 -13704751.82847  20408678.9564   20408683.7154
       242.0004        210.0004
  21972685.3864  -16482657.80849 -12833663.21047  21972684.7574   21972689.1924
       234.0004        188.0004
  23446418.3254  -10671081.62149  -8299284.06645  23446418.5224   23446422.7784
       218.0004        158.0004
  23335327.7394   -8499780.76249  -6399823.87445  23335327.9994   23335336.2124
       216.0004        156.0004
  24112757.1124   18900526.79149  14726359.36145  24112756.6664   24112766.1634
       206.0004        139.0004
  23120438.2004   -8396518.22949  -6531966.22445  23120437.5444   23120444.7334
       214.0004        155.0004
  21874882.5054    1390001.80649   1095601.79647  21874883.2534   21874888.4794
       235.0004        189.0004
  22390099.9034    2656049.11349   2076256.18446  22390099.0174   22390105.9114
       227.0004        177.0004
 05  3 30 18 54 30.0000000  0  8G 6G21G18G26G 5G29G30G10
  20403140.9024  -17633758.16349 -13727429.63647  20403140.7704   20403145.8254
       242.0004        210.0004
  21963733.0404  -16529702.55849 -12870321.45647  21963732.6844   21963736.7614
       234.0004        188.0004
  23427311.6904  -10771487.58349  -8377522.44045  23427311.4304   23427317.5194
       219.0004        158.0004
  23318700.8874   -8587155.14549  -6467907.76945  23318700.3704   23318708.5704
       215.0004        155.0004
  24132911.4004   19006437.53749  14808887.06545  24132911.3234   24132918.8394
       207.0004        137.0004
  23110541.5494   -8448525.46049  -6572491.29845  23110541.8454   23110549.1674
       214.0004        157.0004
  21890560.4024    1472389.28649   1159799.76347  21890560.5404   21890565.6994
       235.0004        189.0004
  22407005.2724    2744887.11849   2145480.53846  22407004.6734   22407011.1894
       227.0004        177.0004
 05  3 30 18 55  0.0000000  0  8G 6G21G18G26G 5G29G30G10
  20397667.6484  -17662520.53349 -13749841.89047  20397667.6094   20397672.4694
       244.0004        210.0004
  21954811.7794  -16576584.27249 -12906852.65447  21954811.4904   21954815.4854
       235.0004        188.0004
  23408242.5494  -10871696.74549  -8455607.47045  23408242.5914   23408247.6294
       220.0004        159.0004
  23302111.2524   -8674334.13649  -6535839.39245  23302111.1744   23302119.2794
       216.0004        154.0004
  24153064.4384   19112341.85549  14891409.76145  24153064.2424   24153072.9824
       207.0004        137.0004
  23100713.6554   -8500171.63649  -6612735.04145  23100713.6294   23100721.1064
       216.0004        157.0004
  21906300.8304    1555105.54549   1224253.91947  21906301.2334   21906306.3564
       235.0004        189.0004
  22423970.4834    2834039.74049   2214950.04446  22423969.6594   22423976.3384
       227.0004        176.0004
 05  3 30 18 55 30.0000000  0  8G 6G21G18G26G 5G29G30G10
  20392259.5224  -17690940.48949 -13771987.33047  20392259.3234   20392264.4894
       242.0004        210.0004
  21945921.4974  -16623303.16949 -12943256.98747  21945921.2054   21945925.4504
       235.0004        188.0004
  23389211.2584  -10971706.93149  -8533537.46745  23389211.5264   23389217.0454
       220.0004        160.0004
  23285559.5164   -8761313.93349  -6603615.80945  23285559.1834   23285568.3344
       215.0004        156.0004
  24173215.7154   19218237.16249  14973925.38945  24173214.3724   24173224.8704
       208.0004        137.0004
  23090954.9404   -8551454.06849  -6652695.35145  23090954.7854   23090961.9264
       215.0004        157.0004
  21922103.2374    1638147.73149   1288962.04047  21922104.0434   21922108.9824
       235.0004        188.0004
  22440995.1414    2923504.41249   2284662.69746  22440994.6034   22441001.6974
       228.0004        176.0004
 05  3 30 18 56  0.0000000  0  8G 6G21G18G26G 5G29G30G10
  20386916.7544  -17719017.04049 -13793865.17747  20386916.6314   20386921.6634
       243.0004        210.0004
  21937062.0124  -16669859.86049 -12979534.92347  21937061.2294   21937066.2014
       235.0004        189.0004
  23370218.0394  -11071516.74149  -8611311.30845  23370216.6464   23370224.1464
       218.0004        160.0004
  23269046.1474   -8848091.95449  -6671235.00645  23269046.2254   23269054.3014
       217.0004        157.0004
  24193364.7694   19324120.26549  15056431.53445  24193363.7834   24193372.1654
       207.0004        137.0004
  23081265.7964   -8602370.77749  -6692370.66645  23081265.4924   23081272.7104
       215.0004        158.0004
  21937967.0284    1721512.12649   1353921.23247  21937967.4714   21937972.4884
       235.0004        188.0004
  22458078.4284    3013277.59849   2354615.75746  22458078.3064   22458084.1314
       227.0004        176.0004
 05  3 30 18 56 30.0000000  0  8G 6G21G18G26G 5G29G30G10
  20381639.9274  -17746747.02149 -13815472.97247  20381639.7744   20381644.7744
       242.0004        210.0004
  21928233.4774  -16716253.97749 -13015686.18247  21928233.1204   21928237.4164
       235.0004        189.0004
  23351263.5754  -11171122.74549  -8688926.34145  23351263.3774   23351268.6844
       219.0004        160.0004
  23252572.2064   -8934663.08549  -6738692.98845  23252571.9394   23252580.1714
       215.0004        158.0004
  24213511.2054   19429990.04749  15138927.27345  24213511.7254   24213520.8034
       206.0004        138.0004
  23071647.0464   -8652917.55749  -6731757.72845  23071646.7114   23071654.1994
       216.0004        159.0004
  21953891.8554    1805197.35849   1419130.43747  21953892.5064   21953896.9674
       234.0004        188.0004
  22475220.1304    3103357.67549   2424807.93646  22475219.5394   22475225.9274
       226.0004        175.0004
 05  3 30 18 57  0.0000000  0  8G 6G21G18G26G 5G29G30G10
  20376429.1454  -17774129.86549 -13836810.26847  20376428.9624   20376433.8704
       243.0004        210.0004
  21919435.6764  -16762486.83549 -13051711.78747  21919435.5014   21919439.4734
       235.0004        189.0004
  23332348.0754  -11270524.03749  -8766381.86345  23332347.5524   23332353.8224
       219.0004        161.0004
  23236138.1004   -9021024.78649  -6805987.77745  23236138.0064   23236146.0364
       216.0004        157.0004
  24233654.4154   19535842.79949  15221409.75445  24233654.1504   24233662.4064
       208.0004        140.0004
  23062098.9684   -8703093.14949  -6770855.55645  23062098.8314   23062105.6964
       216.0004        159.0004
  21969876.8834    1889199.29249   1484586.41446  21969877.2604   21969882.3564
       234.0004        187.0004
  22492419.4724    3193740.36149   2495235.93846  22492419.2024   22492424.7114
       226.0004        175.0004
 05  3 30 18 57 30.0000000  0  8G 6G21G18G26G 5G29G30G10
  20371284.8374  -17801163.46149 -13857875.42647  20371284.8534   20371289.7984
       243.0004        210.0004
  21910668.7034  -16808557.63749 -13087611.11947  21910668.0704   21910672.6184
       235.0004        189.0004
  23313471.9844  -11369718.06449  -8843675.86345  23313471.8394   23313478.0434
       219.0004        162.0004
  23219744.6984   -9107172.98849  -6873116.19245  23219744.4554   23219752.7274
       216.0004        156.0004
  24253794.0444   19641676.51549  15303877.41845  24253794.3584   24253802.9624
       209.0004        141.0004
  23052622.0524   -8752894.20449  -6809661.53545  23052621.7924   23052628.7564
       216.0004        160.0004
  21985921.7874    1973515.48249   1550287.26446  21985922.1834   21985927.3934
       233.0004        187.0004
  22509675.9234    3284423.44649   2565898.00846  22509675.4664   22509682.7024
       225.0004        174.0004
 05  3 30 18 58  0.0000000  0  8G 6G21G18G26G 5G29G30G10
  20366207.1654  -17827846.85049 -13878667.69347  20366207.0884   20366212.1444
       243.0004        210.0004
  21901932.2934  -16854467.94049 -13123385.37647  21901931.8784   21901936.0494
       236.0004        189.0004
  23294635.6424  -11468703.48549  -8920807.34145  23294634.9504   23294640.6554
       219.0004        162.0004
  23203392.3884   -9193104.74349  -6940075.96345  23203392.5764   23203399.8194
       216.0004        156.0004
  24273929.4684   19747487.75049  15386327.56345  24273929.0794   24273939.3754
       210.0004        141.0004
  23043216.8734   -8802318.85849  -6848174.21145  23043216.0434   23043224.0324
       217.0004        161.0004
  22002025.7454    2058142.15349   1616230.04246  22002026.4644   22002031.5224
       233.0004        186.0004
  22526988.8704    3375403.28849   2636791.30846  22526988.4204   22526995.0674
       225.0004        174.0004
 05  3 30 18 58 30.0000000  0  8G 6G21G18G26G 5G29G30G10
  20361196.8154  -17854176.63749 -13899184.41647  20361196.6574   20361201.7044
       242.0004        210.0004
  21893226.6684  -16900216.49549 -13159033.59247  21893225.9354   21893230.2284
       236.0004        190.0004
  23275839.7014  -11567476.97049  -8997773.66445  23275839.4924   23275845.2544
       219.0004        162.0004
  23187082.2404   -9278814.96649  -7006863.08845  23187082.1274   23187090.0394
       216.0004        156.0004
  24294060.4194   19853275.49649  15468759.38745  24294060.2624   24294068.7394
       210.0004        141.0004
  23033883.9584   -8851362.98249  -6886390.36445  23033884.1044   23033890.9344
       217.0004        162.0004
  22018188.5424    2143078.09749   1682413.81546  22018189.2354   22018194.7144
       233.0004        186.0004
  22544357.9954    3466678.61349   2707914.85946  22544357.0164   22544363.4384
       224.0004        174.0004
 05  3 30 18 59  0.0000000  0  8G 6G21G18G26G 5G29G30G10
  20356253.7014  -17880152.85949 -13919425.64547  20356253.6194   20356258.3504
       243.0004        210.0004
  21884551.4944  -16945804.81449 -13194556.95647  21884550.8414   21884555.1604
       236.0004        189.0004
  23257084.3034  -11666037.57349  -9074574.10546  23257084.0864   23257089.3674
       222.0004        163.0004
  23170814.6804   -9364301.33049  -7073475.77845  23170814.7294   23170822.4064
       217.0004        156.0004
  24314186.0974   19959035.82449  15551169.86545  24314185.7794   24314196.1974
       207.0004        141.0004
  23024623.8164   -8900025.37449  -6924309.07046  23024623.4254   23024631.1454
       218.0004        163.0004
  22034409.3924    2228318.81549   1748835.07546  22034409.8654   22034415.1874
       233.0004        186.0004
  22561782.6004    3558244.99749   2779265.21146  22561781.9134   22561788.6044
       225.0004        173.0004
 05  3 30 18 59 30.0000000  0  8G 6G21G18G26G 5G29G30G10
  20351378.1184  -17905774.26149 -13939390.38447  20351377.8544   20351382.6584
       244.0004        210.0004
  21875906.5614  -16991234.06649 -13229956.37147  21875905.9354   21875910.3124
       237.0004        190.0004
  23238369.5824  -11764383.99649  -9151207.66146  23238368.6124   23238374.8644
       222.0004        163.0004
  23154590.2724   -9449560.80949  -7139911.65645  23154589.5714   23154598.2774
       218.0004        156.0004
  24334305.9044   20064765.51049  15633556.43745  24334305.0014   24334315.4304
       211.0004        142.0004
  23015436.6764   -8948303.97049  -6961928.70946  23015436.5854   23015443.8514
       220.0004        164.0004
  22050687.5534    2313860.90849   1815491.16846  22050687.4274   22050693.2864
       234.0004        186.0004
  22579261.9164    3650098.93349   2850839.63246  22579261.8524   22579267.0704
       226.0004        173.0004
 05  3 30 19  0  0.0000000  0  8G 6G21G18G26G 5G29G30G10
  20346570.8894  -17931036.32749 -13959075.12047  20346570.6824   20346575.5394
       243.0004        210.0004
  21867292.4714  -17036501.56649 -13265229.74447  21867291.7894   21867296.1404
       236.0004        190.0004
  23219696.5444  -11862511.19049  -9227670.38546  23219696.5794   23219701.7764
       221.0004        163.0004
  23138410.3124   -9534586.93749  -7206165.71145  23138410.6424   23138418.0954
       214.0004        155.0004
  24354419.9724   20170465.03649  15715919.51945  24354419.8164   24354429.2054
       207.0004        143.0004
  23006323.6504   -8996193.33349  -6999245.04846  23006323.4344   23006331.1514
       218.0004        165.0004
  22067023.0404    2399704.20649   1882381.97746  22067023.0884   22067029.1944
       232.0004        185.0004
  22596795.9104    3742240.38549   2922638.08746  22596795.6944   22596801.8614
       224.0004        172.0004
 05  3 30 19  0 30.0000000  0  8G 6G21G18G26G 5G29G30G10
  20341832.0004  -17955939.49149 -13978480.19847  20341831.7134   20341836.8164
       243.0004        210.0004
  21858708.6744  -17081609.84949 -13300379.05147  21858707.9814   21858712.3384
       236.0004        190.0004
  23201065.1974  -11960419.48549  -9303962.54646  23201065.1374   23201070.8064
       221.0004        163.0004
  23122274.9484   -9619378.40049  -7272236.93245  23122274.4624   23122282.8594
       217.0004        155.0004
  24374527.3474   20276129.33249  15798255.14645  24374528.4254   24374536.4644
       207.0004        143.0004
  22997284.6984   -9043693.06749  -7036257.77146  22997284.4214   22997292.3934
       219.0004        166.0004
  22083414.8314    2485843.52849   1949503.44446  22083415.1704   22083421.2304
       232.0004        185.0004
  22614383.6324    3834664.47249   2994656.77546  22614382.8694   22614389.5944
       224.0004        172.0004
 05  3 30 19  1  0.0000000  0  8G 6G21G18G26G 5G29G30G10
  20337161.8374  -17980481.46949 -13997603.83447  20337161.8164   20337166.8974
       243.0004        210.0004
  21850155.2474  -17126558.25749 -13335403.78347  21850154.7534   21850158.7604
       236.0004        190.0004
  23182476.0974  -12058105.91249  -9380081.81546  23182475.1864   23182481.6984
       222.0004        164.0004
  23106185.1694   -9703930.49049  -7338121.63145  23106186.0404   23106192.5314
       214.0004        154.0004
  24394627.7424   20381756.94749  15880562.19645  24394628.0404   24394637.9604
       208.0004        142.0004
  22988320.5314   -9090799.69049  -7072964.18146  22988320.1174   22988327.7554
       219.0004        166.0004
  22099862.5864    2572276.66349   2016853.86646  22099863.2834   22099868.6654
       232.0004        185.0004
  22632024.7464    3927368.98449   3066893.97146  22632024.4854   22632031.9864
       223.0004        172.0004
 05  3 30 19  1 30.0000000  0  8G 6G21G18G26G 5G29G30G10
  20332560.6454  -18004660.93649 -14016444.99947  20332560.6614   20332565.5324
       242.0004        210.0004
  21841632.1944  -17171347.27749 -13370304.32247  21841631.4434   21841635.7314
       235.0004        190.0004
  23163929.4234  -12155569.25249  -9456027.25346  23163928.7364   23163935.5624
       221.0004        164.0004
  23090141.4494   -9788240.41549  -7403817.59245  23090141.2984   23090149.3584
       214.0004        154.0004
  24414720.5674   20487344.69149  15962838.18645  24414719.1124   24414730.5284
       205.0004        139.0004
  22979431.5724   -9137511.37549  -7109362.83246  22979431.0914   22979438.7104
       220.0004        166.0004
  22116365.5984    2659000.21649   2084430.59246  22116366.1984   22116371.9824
       232.0004        185.0004
  22649718.5464    4020350.33549   3139346.88346  22649718.2664   22649725.0964
       223.0004        171.0004
 05  3 30 19  2  0.0000000  0  8G 6G21G18G26G 5G29G30G10
  20328028.6574  -18028476.68949 -14035002.74147  20328028.5494   20328033.5994
       243.0004        210.0004
  21833139.1544  -17215978.23549 -13405081.68447  21833138.3534   21833143.0294
       236.0004        190.0004
  23145425.5314  -12252807.79849  -9531797.52646  23145425.2764   23145431.1464
       222.0004        165.0004
  23074144.4624   -9872304.76649  -7469322.19345  23074144.1024   23074152.3184
       213.0004        154.0004
  24434805.2944   20592889.95049  16045081.04945  24434805.2364   24434815.1464
       203.0004        139.0004
  22970618.2484   -9183825.76849  -7145451.92246  22970617.8224   22970624.8524
       220.0004        166.0004
  22132923.2824    2746010.83549   2152230.98346  22132923.5264   22132929.6884
       233.0004        185.0004
  22667464.5634    4113605.74749   3212013.34846  22667464.1214   22667470.6544
       222.0004        171.0004
 05  3 30 19  2 30.0000000  0  8G 6G21G18G26G 5G29G30G10
  20323566.4784  -18051925.61649 -14053274.64747  20323566.3484   20323571.2634
       243.0004        210.0004
  21824676.4324  -17260450.00249 -13439735.00347  21824675.8414   21824679.9334
       236.0004        190.0004
  23126964.9844  -12349818.26049  -9607390.08146  23126964.2364   23126970.7844
       222.0004        165.0004
  23058195.1714   -9956118.48949  -7534631.51845  23058195.5034   23058203.0234
       214.0004        154.0004
  24454881.7994   20698391.46549  16127289.84145  24454882.0974   24454890.1464
       202.0004        138.0004
  22961881.1294   -9229739.30349  -7181228.65346  22961880.6414   22961888.6104
       220.0004        166.0004
  22149535.2544    2833306.84649   2220253.77146  22149535.5364   22149541.4834
       232.0004        185.0004
  22685262.3274    4207133.36249   3284891.93246  22685261.2104   22685269.1194
       223.0004        170.0004
 05  3 30 19  3  0.0000000  0  8G 6G21G18G26G 5G29G30G10
  20319174.2334  -18075007.21649 -14071260.32947  20319174.0884   20319179.0884
       243.0004        210.0004
  21816243.8444  -17304763.54749 -13474265.03647  21816243.2494   21816247.5504
       237.0004        190.0004
  23108548.1394  -12446599.33449  -9682803.87446  23108547.2664   23108553.9074
       223.0004        165.0004
  23042294.1714  -10039678.81349  -7599743.38345  23042293.0424   23042301.0804
       213.0004        153.0004
  24474949.2514   20803845.89249  16209461.91545  24474949.4554   24474958.6184
       205.0004        139.0004
  22953220.6864   -9275250.06249  -7216691.52846  22953220.2964   22953227.3544
       220.0004        167.0004
  22166200.7154    2920884.34249   2288495.88646  22166201.2084   22166206.7644
       232.0004        184.0004
  22703111.0984    4300929.48449   3357979.73146  22703111.1534   22703116.5084
       222.0004        170.0004
 05  3 30 19  3 30.0000000  0  8G 6G21G18G26G 5G29G30G10
  20314852.2864  -18097719.28049 -14088958.05447  20314852.2804   20314857.2744
       243.0004        210.0004
  21807841.4134  -17348918.93049 -13508671.82747  21807840.8764   21807844.8744
       236.0004        190.0004
  23090175.4874  -12543148.59749  -9758037.05246  23090175.7444   23090181.1574
       223.0004        166.0004
  23026441.9164  -10122982.07849  -7664654.94945  23026441.6064   23026449.5704
       212.0004        153.0004
  24495007.2904   20909251.23349  16291595.76445  24495007.2794   24495016.6904
       204.0004        138.0004
  22944637.3904   -9320355.30249  -7251838.41946  22944636.6094   22944644.3814
       220.0004        166.0004
  22182919.2914    3008740.78049   2356955.36346  22182919.5244   22182925.5854
       233.0004        184.0004
  22721010.5854    4394991.58249   3431274.79146  22721010.3224   22721017.8224
       222.0004        170.0004
 05  3 30 19  4  0.0000000  0  8G 6G21G18G26G 5G29G30G10
  20310600.7824  -18120061.09149 -14106367.27647  20310600.9544   20310605.6854
       243.0004        210.0004
  21799468.8194  -17392917.08349 -13542956.10547  21799468.6924   21799472.5894
       236.0004        190.0004
  23071847.1004  -12639464.94049  -9833088.72746  23071846.3134   23071852.9244
       222.0004        166.0004
  23010639.3004  -10206025.08949  -7729363.72645  23010638.8564   23010646.8774
       213.0004        154.0004
  24515055.4464   21014604.13149  16373688.76645  24515055.2104   24515063.0524
       204.0004        137.0004
  22936131.6654   -9365053.14149  -7286667.85146  22936131.1374   22936138.5044
       220.0004        168.0004
  22199690.2764    3096872.52349   2425629.36846  22199690.6344   22199696.5944
       233.0004        184.0004
  22738960.0354    4489316.01449   3504774.26546  22738959.6164   22738966.0444
       222.0004        170.0004
 05  3 30 19  4 30.0000000  0  8G 6G21G18G26G 5G29G30G10
  20306420.1334  -18142030.51449 -14123486.32647  20306419.8984   20306424.7904
       242.0004        210.0004
  21791126.1714  -17436757.86649 -13577117.75047  21791125.3784   21791129.8884
       235.0004        190.0004
  23053563.5394  -12735545.75049  -9907956.87746  23053563.2304   23053568.7464
       223.0004        166.0004
  22994886.9784  -10288803.76749  -7793866.53145  22994886.7114   22994895.0124
       214.0004        155.0004
  24535093.1794   21119902.42349  16455739.19045  24535092.7394   24535102.3824
       200.0004        135.0004
  22927703.9774   -9409340.77549  -7321177.65246  22927702.8624   22927710.9984
       220.0004        168.0004
  22216513.1954    3185276.94049   2494515.84846  22216513.6984   22216519.7444
       232.0004        183.0004
  22756958.9334    4583900.50949   3578476.39246  22756958.4654   22756965.4244
       222.0004        170.0004
 05  3 30 19  5  0.0000000  0  8G 6G21G18G26G 5G29G30G10
  20302310.7434  -18163625.63149 -14140313.70647  20302310.6134   20302315.4884
       243.0004        210.0004
  21782813.4064  -17480441.49049 -13611156.93447  21782812.5534   21782816.5364
       236.0004        191.0004
  23035325.1984  -12831389.08449  -9982639.97346  23035324.9064   23035329.8724
       225.0004        166.0004
  22979185.6994  -10371314.37549  -7858160.44445  22979185.6214   22979194.0044
       214.0004        156.0004
  24555120.0524   21225143.94249  16537745.36745  24555119.5944   24555129.9784
       203.0004        134.0004
  22919354.8054   -9453215.53749  -7355365.73546  22919354.5714   22919361.3564
       221.0004        168.0004
  22233387.3634    3273951.16649   2563612.56046  22233388.0864   22233393.4994
       233.0004        183.0004
  22775006.7724    4678742.23349   3652378.95046  22775006.4214   22775013.6634
       223.0004        170.0004
 05  3 30 19  5 30.0000000  0  8G 6G21G18G26G 5G29G30G10
  20298272.9044  -18184844.68349 -14156848.05647  20298272.7984   20298277.8504
       243.0004        210.0004
  21774530.5914  -17523967.92249 -13645073.64047  21774529.7074   21774534.1554
       236.0004        191.0004
  23017132.3784  -12926992.81949 -10057136.36946  23017130.7724   23017137.8484
       224.0004        166.0004
  22963536.0984  -10453552.95749  -7922242.40445  22963536.5744   22963543.6144
       217.0004        156.0004
  24575135.7524   21330326.50649  16619705.63245  24575135.3584   24575145.6814
       201.0004        133.0004
  22911084.8434   -9496674.61849  -7389229.92046  22911084.9164   22911091.9274
       222.0004        169.0004
  22250312.4204    3362892.52649   2632917.42246  22250312.2694   22250318.8134
       232.0004        182.0004
  22793103.0794    4773838.61149   3726479.94646  22793103.1534   22793109.1394
       222.0004        170.0004
 05  3 30 19  6  0.0000000  0  8G 6G21G18G26G 5G29G30G10
  20294306.8274  -18205686.53649 -14173088.47947  20294306.5444   20294311.7594
       242.0004        210.0004
  21766277.5744  -17567337.70449 -13678868.27647  21766277.0504   21766281.0394
       236.0004        191.0004
  22998985.4734  -13022355.09849 -10131444.62246  22998984.8144   22998990.3684
       223.0004        166.0004
  22947938.9324  -10535516.33849  -7986109.94145  22947938.5834   22947946.9744
       215.0004        158.0004
  24595139.7314   21435447.11849  16701617.62845  24595140.5984   24595149.3074
       204.0004        133.0004
  22902894.2914   -9539716.22649  -7422768.80046  22902894.3464   22902901.0104
       220.0004        169.0004
  22267287.7064    3452097.60749   2702427.77946  22267288.6174   22267293.8344
       233.0004        182.0004
  22811247.2244    4869186.42949   3800776.87146  22811246.6234   22811253.9414
       221.0004        169.0004
 05  3 30 19  6 30.0000000  0  8G 6G21G18G26G 5G29G30G10
  20290412.8914  -18226149.48649 -14189033.65247  20290412.9594   20290418.0344
       243.0004        210.0004
  21758054.3584  -17610551.16149 -13712541.10347  21758054.1334   21758058.2014
       237.0004        191.0004
  22980884.8754  -13117474.25349 -10205563.41646  22980884.4854   22980890.4784
       225.0004        167.0004
  22932394.8134  -10617201.03749  -8049760.30745  22932394.4644   22932403.5224
       217.0004        159.0004
  24615131.6024   21540503.60849  16783479.62845  24615130.8794   24615141.4894
       202.0004        134.0004
  22894783.5374   -9582337.90949  -7455980.45746  22894783.4914   22894790.2834
       221.0004        168.0004
  22284312.5594    3541563.30449   2772141.21646  22284313.1114   22284318.9194
       232.0004        182.0004
  22829438.7334    4964782.86649   3875267.52346  22829438.4194   22829444.6784
       222.0004        169.0004
 05  3 30 19  7  0.0000000  0  9G 6G21G18G26G 5G15G29G30G10
  20286590.2084  -18246237.91649 -14204686.99147  20286590.0964   20286595.2434
       244.0004        210.0004
  21749859.6454  -17653614.74049 -13746097.13947  21749859.2764   21749863.5124
       238.0004        192.0004
  22962829.8214  -13212354.27449 -10279495.88846  22962829.0344   22962835.1114
       225.0004        168.0004
  22916903.3474  -10698609.23749  -8113195.21845  22916903.8284   22916910.5844
       219.0004        159.0004
  24635109.5364   21645487.53949  16865285.11145  24635108.0304   24635119.1354
       204.0004        134.0004
  24710120.2144   -2142969.07859  -1655750.79744  24710118.6514   24710126.6244
       203.0004        130.0004
  22886752.0644   -9624543.17349  -7488867.64746  22886751.8414   22886758.9494
       221.0004        168.0004
  22301385.2914    3631280.77849   2842050.83746  22301386.5014   22301391.3784
       233.0004        182.0004
  22847675.8584    5060619.03849   3949944.97746  22847675.2744   22847682.4344
       223.0004        169.0004
 05  3 30 19  7 30.0000000  0  9G 6G21G18G26G 5G15G29G30G10
  20282840.2104  -18265944.45649 -14220042.75047  20282840.1124   20282844.9914
       242.0004        210.0004
  21741694.4994  -17696522.80749 -13779531.99747  21741693.9784   21741698.3714
       236.0004        192.0004
  22944821.6454  -13306987.36649 -10353235.93646  22944820.4414   22944827.3234
       224.0004        168.0004
  22901466.2624  -10779731.52249  -8176407.35745  22901466.9444   22901474.4334
       216.0004        160.0004
  24655074.1744   21750401.88649  16947036.37645  24655074.1474   24655083.6094
       204.0004        133.0004
  24695840.7044   -2218007.30449  -1714222.12244  24695840.2264   24695848.2584
       205.0004        131.0004
  22878801.4884   -9666323.76249  -7521423.91946  22878801.2554   22878809.0244
       221.0004        168.0004
  22318506.4504    3721252.76549   2912158.78546  22318507.1094   22318512.9134
       230.0004        181.0004
  22865959.1474    5156697.94249   4024811.57346  22865958.7464   22865965.8724
       221.0004        168.0004
 05  3 30 19  8  0.0000000  0  9G 6G21G18G26G 5G15G29G30G10
  20279163.6874  -18285264.62249 -14235097.43547  20279163.6374   20279168.6694
       243.0004        210.0004
  21733559.4704  -17739272.82149 -13812843.69547  21733559.0204   21733563.4174
       238.0004        192.0004
  22926861.4974  -13401368.72249 -10426779.82946  22926860.5654   22926866.3234
       225.0004        169.0004
  22886084.8584  -10860561.43949  -8239391.66845  22886085.0734   22886092.9524
       217.0004        161.0004
  24675025.7874   21855247.49949  17028734.06245  24675026.8644   24675035.0864
       202.0004        133.0004
  24681575.6314   -2292970.38149  -1772634.87245  24681574.3024   24681583.8484
       203.0004        132.0004
  22870932.7704   -9707674.41649  -7553645.17746  22870932.8134   22870939.7794
       221.0004        168.0004
  22335676.0474    3811479.28549   2982465.07146  22335676.1034   22335682.2234
       231.0004        181.0004
  22884288.6584    5253019.84549   4099867.52346  22884288.5074   22884294.9804
       221.0004        168.0004
 05  3 30 19  8 30.0000000  0  9G 6G21G18G26G 5G15G29G30G10
  20275560.7634  -18304198.27949 -14249850.94647  20275560.6114   20275565.6644
       244.0004        210.0004
  21725454.2214  -17781866.38949 -13846033.48047  21725453.7414   21725457.9804
       238.0004        192.0004
  22908949.3454  -13495497.92749 -10500127.22446  22908948.5354   22908954.8734
       226.0004        169.0004
  22870759.4934  -10941096.68349  -8302146.34545  22870759.5034   22870767.5054
       218.0004        162.0004
  24694963.4894   21960020.39149  17110375.08944  24694963.9024   24694972.3724
       203.0004        130.0004
  24667324.6074   -2367860.12049  -1830990.51045  24667324.6564   24667333.2914
       208.0004        134.0004
  22863145.9154   -9748594.20249  -7585530.70346  22863145.5244   22863152.4734
       221.0004        167.0004
  22352893.1714    3901955.77349   3052966.14346  22352892.6744   22352899.2464
       232.0004        180.0004
  22902663.5494    5349580.22649   4175109.30046  22902662.5774   22902670.5564
       222.0004        167.0004
 05  3 30 19  9  0.0000000  0  9G 6G21G18G26G 5G15G29G30G10
  20272031.7124  -18322743.66949 -14264301.91447  20272031.8744   20272036.8244
       242.0004        210.0004
  21717378.7474  -17824303.43849 -13879101.32047  21717378.5624   21717382.5294
       236.0004        192.0004
  22891085.5234  -13589372.60649 -10573276.30146  22891085.2814   22891090.1724
       225.0004        170.0004
  22855490.9654  -11021333.55849  -8364668.54646  22855490.9534   22855498.8744
       218.0004        163.0004
  24714886.9364   22064718.10049  17191957.54544  24714885.6814   24714897.2594
       204.0004        130.0004
  24653087.5254   -2442676.25349  -1889288.74945  24653086.4334   24653095.9334
       200.0004        134.0004
  22855441.6284   -9789080.72849  -7617078.62746  22855441.4574   22855448.4024
       219.0004        167.0004
  22370157.3924    3992679.42949   3123659.80146  22370158.1424   22370163.7154
       230.0004        180.0004
  22921083.3274    5446376.60749   4250534.97346  22921083.1444   22921089.9534
       219.0004        167.0004
 05  3 30 19  9 30.0000000  0  9G 6G21G18G26G 5G15G29G30G10
  20268576.6604  -18340900.20649 -14278449.87547  20268576.5564   20268581.6294
       242.0004        210.0004
  21709332.8024  -17866585.26349 -13912048.19647  21709332.2524   21709336.4924
       237.0004        193.0004
  22873270.3874  -13682991.99549 -10646226.44946  22873269.6654   22873275.3084
       225.0004        170.0004
  22840279.6304  -11101269.45049  -8426956.23446  22840279.7234   22840287.3044
       218.0004        164.0004
  24734795.5594   22169337.41049  17273478.92744  24734795.2584   24734805.6654
       204.0004        129.0004
  24638864.3144   -2517419.98849  -1947530.59045  24638863.5904   24638872.5584
       202.0004        132.0004
  22847819.9674   -9829132.48849  -7648287.77146  22847820.5234   22847827.1334
       219.0004        167.0004
  22387467.8764    4083646.23749   3194542.95146  22387468.6684   22387474.8424
       231.0004        179.0004
  22939547.2664    5543405.04449   4326141.45746  22939546.3734   22939553.4944
       220.0004        166.0004
 05  3 30 19 10  0.0000000  0  9G 6G21G18G26G 5G15G29G30G10
  20265195.7254  -18358667.17549 -14292294.27747  20265195.5874   20265200.7104
       243.0004        210.0004
  21701316.0954  -17908713.27549 -13944875.21647  21701315.4724   21701320.1994
       238.0004        193.0004
  22855503.9734  -13776354.97949 -10718976.79646  22855503.3044   22855509.7494
       225.0004        170.0004
  22825126.1814  -11180901.37249  -8489007.04246  22825126.0844   22825133.7044
       220.0004        164.0004
  24754688.5074   22273875.12649  17354936.70244  24754688.1064   24754697.6464
       206.0004        130.0004
  24624654.6294   -2592092.24449  -2005716.75945  24624654.2974   24624662.2884
       205.0004        132.0004
  22840281.3194   -9868748.10249  -7679157.05046  22840282.0024   22840288.8034
       219.0004        166.0004
  22404823.8914    4174852.38749   3265612.59246  22404824.1334   22404830.4274
       231.0004        179.0004
  22958054.6554    5640661.69249   4401925.78346  22958053.8804   22958060.6474
       221.0004        166.0004
 05  3 30 19 10 30.0000000  0  9G 6G21G18G26G 5G15G29G30G10
  20261889.5054  -18376041.59549 -14305832.80547  20261889.4764   20261894.5714
       242.0004        211.0004
  21693328.9424  -17950686.03449 -13977581.26647  21693328.2514   21693332.8774
       237.0004        193.0004
  22837786.9694  -13869458.22149 -10791524.75046  22837787.6094   22837792.3274
       226.0004        170.0004
  22810031.5394  -11260224.39649  -8550817.14346  22810032.1334   22810038.9764
       218.0004        164.0004
  24774565.8344   22378330.49149  17436330.33144  24774566.5944   24774576.0994
       204.0004        130.0004
  24610458.8684   -2666691.56949  -2063846.10245  24610457.2654   24610466.5104
       207.0004        133.0004
  22832826.4424   -9907923.72349  -7709683.47446  22832826.6134   22832833.5024
       218.0004        166.0004
  22422225.1234    4266296.36949   3336867.55546  22422225.1974   22422231.8434
       229.0004        179.0004
  22976605.3634    5738145.41949   4477887.04446  22976605.0374   22976612.2204
       220.0004        166.0004
 05  3 30 19 11  0.0000000  0  9G 6G21G18G26G 5G15G29G30G10
  20258657.9704  -18393023.57549 -14319065.52847  20258657.8634   20258663.1114
       244.0004        211.0004
  21685370.9544  -17992505.57049 -14010167.91447  21685370.4404   21685374.6594
       238.0004        193.0004
  22820119.4724  -13962301.40449 -10863870.05946  22820119.0704   22820125.3484
       227.0004        171.0004
  22794995.9534  -11339236.51449  -8612384.97646  22794996.4924   22795003.9174
       220.0004        165.0004
  24794426.7544   22482699.31649  17517656.52244  24794427.0354   24794435.4114
       205.0004        131.0004
  24596276.6644   -2741219.84549  -2121920.08545  24596276.5424   24596285.7364
       206.0004        133.0004
  22825455.4014   -9946658.69149  -7739866.53646  22825455.6464   22825461.9184
       218.0004        165.0004
  22439670.8124    4357973.48349   3408304.17646  22439671.0194   22439678.0034
       230.0004        179.0004
  22995198.3344    5835851.84249   4554021.84546  22995197.2664   22995204.8904
       220.0004        165.0004
 05  3 30 19 11 30.0000000  0  9G 6G21G18G26G 5G15G29G30G10
  20255501.5844  -18409610.62649 -14331990.52347  20255501.3784   20255506.5714
       243.0004        211.0004
  21677442.2814  -18034170.95649 -14042634.45447  21677441.7694   21677445.9304
       237.0004        193.0004
  22802501.9364  -14054881.76249 -10936010.57746  22802501.1374   22802506.5484
       226.0004        171.0004
  22780020.4554  -11417933.14349  -8673706.96446  22780020.4804   22780028.0484
       219.0004        165.0004
  24814270.9094   22586980.32349  17598914.26944  24814271.4074   24814281.3264
       207.0004        131.0004
  24582108.1274   -2815676.24949  -2179938.05045  24582107.3014   24582116.9714
       205.0004        134.0004
  22818168.7544   -9984949.78849  -7769703.71546  22818169.1904   22818175.7184
       219.0004        165.0004
  22457160.4284    4449881.75249   3479920.91846  22457160.8214   22457166.5064
       228.0004        178.0004
  23013833.3534    5933779.46349   4630328.99746  23013832.5454   23013839.8764
       219.0004        164.0004
 05  3 30 19 12  0.0000000  0  9G 6G21G18G26G 5G15G29G30G10
  20252420.5594  -18425801.56449 -14344606.85747  20252420.5014   20252425.4694
       242.0004        211.0004
  21669542.7984  -18075682.98049 -14074981.49147  21669542.2684   21669546.4554
       237.0004        193.0004
  22784934.6884  -14147198.11649 -11007945.36646  22784934.2284   22784939.8674
       225.0004        172.0004
  22765105.5344  -11496311.12349  -8734780.64246  22765105.4454   22765113.3124
       219.0004        165.0004
  24834097.7474   22691170.49049  17680101.22344  24834097.2824   24834106.9284
       204.0004        131.0004
  24567953.0914   -2890061.28149  -2237900.40445  24567951.7014   24567959.5514
       203.0004        133.0004
  22810966.9454  -10022795.38849  -7799193.75646  22810966.7964   22810973.9734
       218.0004        165.0004
  22474693.3624    4542017.56449   3551714.96746  22474693.7334   22474700.1324
       228.0004        178.0004
  23032509.8564    6031924.67049   4706805.70046  23032509.2864   23032516.2484
       219.0004        164.0004
 05  3 30 19 12 30.0000000  0  8G 6G21G18G26G15G29G30G10
  20249415.5994  -18441592.79949 -14356911.73347  20249415.4714   20249420.4654
       243.0004        211.0004
  21661672.8154  -18117039.92149 -14107207.67847  21661672.0274   21661676.4284
       237.0004        193.0004
  22767418.5244  -14239246.33849 -11079671.23546  22767418.8244   22767424.2314
       227.0004        172.0004
  22750252.3704  -11574364.93249  -8795601.72446  22750252.1384   22750259.6794
       221.0004        166.0004
  24553812.0094   -2964372.78549  -2295805.44045  24553810.6714   24553819.9524
       204.0004        135.0004
  22803850.7204  -10060191.12949  -7828333.26246  22803850.2934   22803857.5764
       220.0004        165.0004
  22492269.4114    4634380.04849   3623685.62946  22492269.2164   22492276.0234
       229.0004        178.0004
  23051227.5434    6130286.58549   4783451.26446  23051227.4874   23051234.2044
       219.0004        164.0004
 05  3 30 19 13  0.0000000  0  8G 6G21G18G26G15G29G30G10
  20246486.4974  -18456985.47349 -14368906.04047  20246486.5294   20246491.4984
       243.0004        211.0004
  21653831.8484  -18158244.43249 -14139315.09447  21653831.3444   21653835.5344
       237.0004        194.0004
  22749953.2804  -14331026.90649 -11151188.53346  22749953.1554   22749958.2244
       226.0004        172.0004
  22735461.1194  -11652093.37349  -8856169.25846  22735461.5474   22735468.3454
       221.0004        167.0004
  24539684.5234   -3038613.52649  -2353655.35245  24539684.2404   24539691.2134
       204.0004        136.0004
  22796820.1184  -10097137.19449  -7857122.36546  22796819.4404   22796826.6414
       219.0004        166.0004
  22509887.5974    4726963.76249   3695828.69446  22509888.5884   22509894.5244
       228.0004        177.0004
  23069985.4074    6228860.06249   4860261.67946  23069984.6624   23069993.1174
       218.0004        163.0004
 05  3 30 19 13 30.0000000  0  8G 6G21G18G26G15G29G30G10
  20243633.4174  -18471978.56849 -14380588.99047  20243633.3744   20243638.5114
       243.0004        211.0004
  21646019.7284  -18199297.38849 -14171304.42147  21646019.1134   21646023.5934
       238.0004        194.0004
  22732539.1454  -14422538.48949 -11222496.23746  22732539.1414   22732544.4494
       227.0004        173.0004
  22720732.3024  -11729493.30549  -8916480.79546  22720732.4744   22720740.1634
       221.0004        167.0004
  24525570.4494   -3112783.94649  -2411450.47245  24525570.1314   24525578.0284
       206.0004        137.0004
  22789875.3654  -10133631.95749  -7885559.80846  22789874.8684   22789881.3044
       219.0004        165.0004
  22527547.1934    4819765.12049   3768141.33946  22527547.2044   22527554.3904
       229.0004        178.0004
  23088783.0574    6327641.78549   4937234.36546  23088781.7994   23088788.7754
       220.0004        163.0004
 05  3 30 19 14  0.0000000  0  8G 6G21G18G26G15G29G30G10
  20240856.7674  -18486569.98249 -14391958.94347  20240856.5474   20240861.6464
       243.0004        210.0004
  21638236.5724  -18240198.22049 -14203175.20547  21638235.8414   21638240.3224
       238.0004        194.0004
  22715176.7354  -14513778.53049 -11293592.33946  22715176.5114   22715181.9224
       227.0004        173.0004
  22706066.8394  -11806560.52849  -8976533.09446  22706067.4374   22706075.0784
       221.0004        168.0004
  24511469.6574   -3186883.49649  -2469190.36145  24511468.2244   24511478.1484
       205.0004        135.0004
  22783017.0544  -10169672.50549  -7913643.31846  22783016.5764   22783023.3964
       219.0004        165.0004
  22545247.7874    4912781.71749   3840621.70746  22545248.4494   22545254.4734
       228.0004        177.0004
  23107620.0054    6426629.76349   5014367.76445  23107619.4084   23107626.7034
       219.0004        162.0004
 05  3 30 19 14 30.0000000  0  8G 6G21G18G26G15G29G30G10
  20238156.8244  -18500758.42649 -14403014.89947  20238156.8564   20238161.6434
       242.0004        210.0004
  21630482.2654  -18280947.53149 -14234927.92247  21630481.7994   21630486.1484
       237.0004        194.0004
  22697866.2514  -14604745.56249 -11364475.71346  22697866.1644   22697871.8084
       226.0004        174.0004
  22691465.2984  -11883291.72949  -9036323.57646  22691465.4754   22691473.0084
       219.0004        168.0004
  24497382.2544   -3260912.84749  -2526875.53845  24497380.9764   24497389.2844
       201.0004        133.0004
  22776245.5194  -10205257.12649  -7941371.56846  22776245.7034   22776252.2424
       218.0004        165.0004
  22562988.6524    5006010.38349   3913267.32146  22562989.1184   22562994.9564
       227.0004        177.0004
  23126495.5464    6525820.82449   5091659.41945  23126494.7614   23126502.7094
       218.0004        162.0004
 05  3 30 19 15  0.0000000  0  9G 6G21G18G26G15G29G30G10G16
  20235533.9514  -18514541.67249 -14413755.11047  20235533.8814   20235538.9294
       243.0004        210.0004
  21622756.8564  -18321544.88649 -14266562.23147  21622756.4774   21622760.8334
       237.0004        194.0004
  22680608.1864  -14695437.10449 -11435144.41246  22680607.4724   22680613.5234
       227.0004        173.0004
  22676928.5674  -11959682.82249  -9095849.02546  22676928.3294   22676936.3924
       221.0004        168.0004
  24483308.3934   -3334871.40149  -2584505.54545  24483307.5494   24483316.4324
       203.0004        133.0004
  22769561.2934  -10240382.92649  -7968742.28546  22769560.8114   22769567.8254
       218.0004        165.0004
  22580769.4684    5099448.60349   3986076.22446  22580770.0784   22580775.5674
       228.0004        176.0004
  23145409.2514    6625213.00349   5169107.78545  23145409.0874   23145415.5544
       218.0004        162.0004
                   -253321.32659   -186311.39343
       206.0004         74.0004
 05  3 30 19 15 30.0000000  0  9G 6G21G18G26G15G29G30G10G16
  20232988.4104  -18527918.57449 -14424178.69147  20232988.1644   20232993.3744
       243.0004        210.0004
  21615060.2624  -18361990.61849 -14298078.39347  21615059.8154   21615064.6414
       238.0004        194.0004
  22663402.8784  -14785851.56149 -11505597.20246  22663402.3534   22663407.9964
       228.0004        174.0004
  22662457.1794  -12035730.13449  -9155106.62246  22662457.1074   22662464.4834
       221.0004        168.0004
  24469247.9004   -3408759.23149  -2642080.43745  24469248.2424   24469256.3834
       205.0004        134.0004
  22762964.6974  -10275047.84149  -7995753.87246  22762964.7174   22762971.8004
       217.0004        165.0004
  22598589.5674    5193093.36049   4059046.05846  22598589.7724   22598596.1984
       228.0004        176.0004
  23164360.6614    6724803.59549   5246710.75745  23164360.1074   23164367.5124
       217.0004        162.0004
                   -326554.31849   -243375.61743
       207.0004         74.0004
 05  3 30 19 16  0.0000000  0  9G 6G21G18G26G15G29G30G10G16
  20230520.4524  -18540887.83149 -14434284.62547  20230520.1224   20230525.6504
       242.0004        210.0004
  21607392.4274  -18402285.37149 -14329476.91047  21607391.8444   21607396.3744
       237.0004        195.0004
  22646250.6314  -14875987.13849 -11575832.68146  22646249.9674   22646255.3874
       227.0004        175.0004
  22648051.7974  -12111430.46649  -9214093.81546  22648051.1804   22648058.9094
       220.0004        167.0004
  24455200.9034   -3482576.62049  -2699600.46245  24455200.6574   24455206.9784
       204.0004        136.0004
  22756456.1564  -10309250.09849  -8022404.95146  22756456.2534   22756462.9504
       219.0004        166.0004
  22616448.2824    5286941.41249   4132174.30946  22616448.9184   22616455.1914
       226.0004        176.0004
  23183349.3044    6824589.44249   5324465.87945  23183348.6024   23183356.0314
       218.0004        161.0004
                   -399405.19349   -300142.41644                  24500641.9814
       207.0004        111.0004
 05  3 30 19 16 30.0000000  0  9G 6G21G18G26G15G29G30G10G16
  20228130.4024  -18553447.68249 -14444071.54947  20228130.2074   20228135.4944
       242.0004        210.0004
  21599753.4844  -18442428.46849 -14360757.25447  21599753.1924   21599757.0674
       237.0004        195.0004
  22629151.8144  -14965842.03849 -11645849.46146  22629151.1554   22629156.8594
       227.0004        175.0004
  22633713.2154  -12186779.98949  -9272807.66646  22633713.3364   22633720.9484
       219.0004        168.0004
  24441167.4484   -3556323.68649  -2757065.66345  24441166.5324   24441176.0664
       205.0004        135.0004
  22750036.2344  -10342987.26349  -8048693.63146  22750036.4384   22750043.6334
       219.0004        165.0004
  22634345.2034    5380989.92949   4205458.75246  22634346.0784   22634352.3064
       227.0004        175.0004
  23202374.7884    6924568.19649   5402371.30845  23202374.5104   23202381.6524
       217.0004        161.0004
  24486841.3904    -471871.44749   -356609.76144  24486841.9824   24486845.7854
       206.0004        130.0004
 05  3 30 19 17  0.0000000  0  9G 6G21G18G26G15G29G30G10G16
  20225818.1914  -18565598.47649 -14453539.71947  20225818.3874   20225823.3964
       243.0004        210.0004
  21592142.7864  -18482422.81049 -14391921.68747  21592142.2714   21592146.4824
       237.0004        195.0004
  22612106.4984  -15055415.90949 -11715647.25846  22612106.4844   22612112.1214
       229.0004        176.0004
  22619441.6814  -12261777.00649  -9331246.84846  22619441.5364   22619448.7524
       221.0004        168.0004
  24427146.9124   -3630002.10449  -2814477.37645  24427146.0194   24427153.3854
       206.0004        135.0004
  22743704.8524  -10376258.99249  -8074619.62446  22743704.2814   22743711.3334
       220.0004        166.0004
  22652279.4054    5475234.18149   4278895.73746  22652279.7534   22652286.0184
       227.0004        175.0004
  23221436.0074    7024735.16149   5480423.40545  23221435.9444   23221442.5424
       219.0004        161.0004
  24473125.7554    -543952.52849   -412776.80745  24473125.7284   24473130.5824
       207.0004        135.0004
 05  3 30 19 17 30.0000000  0  9G 6G21G18G26G15G29G30G10G16
  20223584.1514  -18577338.54649 -14462687.84547  20223584.0644   20223589.3054
       242.0004        210.0004
  21584560.5174  -18522267.92849 -14422969.83447  21584560.1004   21584564.2694
       238.0004        195.0004
  22595114.9464  -15144706.92349 -11785224.63746  22595114.6384   22595119.7894
       227.0004        176.0004
  22605237.9994  -12336417.58649  -9389408.28046  22605238.1794   22605245.4184
       220.0004        167.0004
  24413139.5574   -3703611.88549  -2871835.64345  24413140.0754   24413146.7164
       203.0004        136.0004
  22737462.3974  -10409063.25149  -8100181.36546  22737461.8834   22737469.2294
       220.0004        166.0004
  22670250.2344    5569671.34649   4352483.04346  22670251.1724   22670256.5094
       226.0004        174.0004
  23240532.5274    7125087.79349   5558620.18145  23240531.9754   23240539.0264
       217.0004        160.0004
  24459483.0034    -615646.41349   -468642.14045  24459482.8924   24459487.1134
       204.0004        135.0004
 05  3 30 19 18  0.0000000  0  9G 6G21G18G26G15G29G30G10G16
  20221428.6744  -18588665.86749 -14471514.35047  20221428.5264   20221433.7464
       244.0004        211.0004
  21577006.7504  -18561963.31249 -14453901.30847  21577006.1694   21577010.6434
       239.0004        195.0004
  22578177.7394  -15233712.38349 -11854579.51546  22578177.1434   22578183.1744
       229.0004        176.0004
  22591102.9824  -12410697.33349  -9447288.55146  22591103.4754   22591110.5124
       221.0004        167.0004
  24399145.2514   -3777152.21649  -2929139.75645  24399143.7844   24399152.3484
       206.0004        136.0004
  22731309.4444  -10441397.01249  -8125376.47746  22731309.1524   22731315.9444
       221.0004        166.0004
  22688257.3994    5664299.19149   4426218.93146  22688257.6964   22688263.9284
       228.0004        174.0004
  23259664.0054    7225624.12049   5636960.09945  23259663.2904   23259671.2594
       218.0004        160.0004
  24445914.1654    -686949.85349   -524203.26045  24445913.9564   24445919.8164
       208.0004        135.0004
 05  3 30 19 18 30.0000000  0  9G 6G21G18G26G15G29G30G10G16
  20219352.3934  -18599576.89049 -14480016.46447  20219352.4344   20219357.3784
       243.0004        211.0004
  21569481.7934  -18601507.13649 -14484714.68447  21569481.2894   21569485.7394
       238.0004        195.0004
  22561295.5694  -15322428.71549 -11923709.10746  22561295.3204   22561300.5914
       228.0004        177.0004
  22577037.6524  -12484611.09249  -9504883.63346  22577037.1224   22577045.3234
       220.0004        167.0004
  24385164.4804   -3850621.44049  -2986388.47645  24385163.8924   24385171.6434
       204.0004        137.0004
  22725246.8044  -10473256.38149  -8150201.93046  22725246.5394   22725254.0874
       221.0004        167.0004
  22706300.6074    5759116.60649   4500102.53446  22706300.8254   22706307.3924
       227.0004        174.0004
  23278830.2564    7326343.62849   5715442.74045  23278829.4724   23278837.4914
       218.0004        160.0004
  24432420.4874    -757858.90649   -579457.06445  24432420.6274   24432426.6364
       205.0004        135.0004
 05  3 30 19 19  0.0000000  0  9G 6G21G18G26G15G29G30G10G16
  20217355.5424  -18610070.59949 -14488193.39947  20217355.4264   20217360.5454
       242.0004        211.0004
  21561985.6024  -18640899.99549 -14515410.42647  21561984.9784   21561989.1454
       238.0004        195.0004
  22544468.6914  -15410854.37449 -11992612.19146  22544467.9104   22544474.2464
       228.0004        177.0004
  22563042.5754  -12558155.34749  -9562190.79346  22563042.0014   22563050.1894
       220.0004        167.0004
  24371197.0954   -3924020.10049  -3043582.21045  24371195.0934   24371204.8054
       206.0004        137.0004
  22719274.7454  -10504639.65449  -8174656.39846  22719273.8644   22719281.8234
       219.0004        167.0004
  22724379.3214    5854120.39949   4574131.35146  22724379.1204   22724385.8384
       226.0004        173.0004
  23298030.8984    7427243.22349   5794065.71745  23298030.0094   23298038.1914
       217.0004        160.0004
  24419002.2644    -828371.85949   -634402.20045  24419001.7974   24419007.5264
       207.0004        134.0004
 05  3 30 19 19 30.0000000  0  9G 6G21G18G26G15G29G30G10G16
  20215438.1284  -18620146.76149 -14496044.97247  20215437.8344   20215442.9064
       243.0004        211.0004
  21554517.9354  -18680142.92549 -14545989.33847  21554517.5384   21554521.7094
       238.0004        195.0004
  22527697.2314  -15498988.76549 -12061288.31846  22527696.6204   22527702.3494
       228.0004        177.0004
  22549118.1764  -12631327.82449  -9619208.26946  22549118.4404   22549125.4894
       220.0004        167.0004
  24357242.9244   -3997349.27349  -3100721.80445  24357241.7624   24357250.5294
       206.0004        138.0004
  22713393.4334  -10535545.96749  -8198739.21346  22713393.3754   22713400.8184
       221.0004        167.0004
  22742492.6864    5949306.43149   4648302.18846  22742493.3894   22742499.3724
       226.0004        173.0004
  23317265.2024    7528318.99449   5872825.97245  23317263.8544   23317272.4504
       217.0004        159.0004
  24405659.6274    -898487.50349   -689037.77545  24405659.5934   24405664.6974
       211.0004        135.0004
 05  3 30 19 20  0.0000000  0  9G 6G21G18G26G15G29G30G10G16
  20213600.6464  -18629802.81549 -14503569.18747  20213600.6154   20213605.6734
       243.0004        211.0004
  21547078.8894  -18719235.50949 -14576451.09747  21547078.3084   21547082.5334
       238.0004        196.0004
  22510981.7004  -15586829.23649 -12129735.41146  22510979.9234   22510986.5664
       229.0004        177.0004
  22535265.4684  -12704123.94149  -9675932.47146  22535265.4204   22535273.7944
       220.0004        167.0004
  24343302.1524   -4070608.14349  -3157806.59645  24343301.9234   24343309.9304
       203.0004        137.0004
  22707603.5284  -10565972.24249  -8222447.98546  22707602.9144   22707610.4224
       222.0004        168.0004
  22760640.3554    6044672.59449   4722613.37846  22760641.2664   22760646.3994
       227.0004        173.0004
  23336532.6604    7629569.30749   5951722.22945  23336531.3954   23336539.6634
       218.0004        159.0004
  24392393.4694    -968202.78449   -743361.33745  24392392.7284   24392399.5844
       210.0004        137.0004
 05  3 30 19 20 30.0000000  0  9G 6G21G18G26G15G29G30G10G16
  20211843.1544  -18639038.52149 -14510765.85947  20211842.9024   20211847.9334
       243.0004        211.0004
  21539668.2024  -18758178.91649 -14606796.61147  21539667.9784   21539671.7924
       238.0004        196.0004
  22494322.2684  -15674374.84849 -12197952.75046  22494321.6854   22494327.2444
       229.0004        177.0004
  22521484.9384  -12776541.14949  -9732361.43046  22521485.0704   22521492.4904
       220.0004        166.0004
  24329374.4624   -4143797.77249  -3214837.43245  24329372.8164   24329382.3924
       208.0004        137.0004
  22701905.0444  -10595917.72349  -8245782.11146  22701905.5384   22701911.1584
       221.0004        168.0004
  22778821.5534    6140214.86649   4797061.78546  22778821.9404   22778828.1674
       226.0004        173.0004
  23355832.4944    7730990.37049   6030751.54445  23355832.0344   23355840.5644
       217.0004        160.0004
  24379203.6004   -1037516.58249   -797372.06145  24379204.2584   24379208.5804
       207.0004        137.0004
 05  3 30 19 21  0.0000000  0  9G 6G21G18G26G15G29G30G10G16
  20210165.9034  -18647852.73249 -14517634.09547  20210165.8934   20210171.0954
       242.0004        211.0004
  21532285.9254  -18796973.16249 -14637025.89647  21532285.5894   21532289.8004
       238.0004        196.0004
  22477719.3624  -15761623.87049 -12265938.97746  22477718.3694   22477724.2964
       228.0004        177.0004
  22507777.1664  -12848576.10049  -9788492.51646  22507776.9104   22507784.8454
       218.0004        165.0004
  24315460.1644   -4216918.36949  -3271814.49945  24315460.7974   24315468.5074
       207.0004        139.0004
  22696298.5254  -10625380.29449  -8268739.93946  22696298.1904   22696305.3904
       220.0004        168.0004
  22797035.6864    6235930.36049   4871645.17846  22797036.4604   22797043.4394
       225.0004        172.0004
  23375164.3214    7832579.62449   6109911.92245  23375163.8214   23375171.6834
       216.0004        159.0004
  24366090.2434   -1106426.98049   -851068.47945  24366089.9274   24366094.9664
       203.0004        136.0004
 05  3 30 19 21 30.0000000  0  9G 6G21G18G26G15G29G30G10G16
  20208569.0424  -18656244.28449 -14524172.98147  20208569.0194   20208574.1314
       242.0004        210.0004
  21524931.9194  -18835618.82549 -14667139.40247  21524931.3204   21524935.8574
       238.0004        196.0004
  22461173.0614  -15848574.72249 -12333692.86146  22461172.7044   22461178.1634
       228.0004        178.0004
  22494142.6454  -12920225.59749  -9844323.24546  22494142.5894   22494150.1994
       220.0004        165.0004
  24301559.0124   -4289970.29349  -3328738.06345  24301557.7424   24301566.0264
       207.0004        139.0004
  22690784.0624  -10654358.60849  -8291320.41446  22690784.1974   22690790.3974
       221.0004        168.0004
  22815282.0864    6331815.64749   4946360.89146  22815282.5494   22815289.0314
       225.0004        172.0004
  23394527.5584    7934333.94849   6189200.92645  23394526.8164   23394534.3874
       216.0004        159.0004
  24353054.1644   -1174932.46649   -904449.35945  24353052.6724   24353059.2444
       206.0004        136.0004
 05  3 30 19 22  0.0000000  0  9G 6G21G18G26G15G29G30G10G16
  20207053.0654  -18664210.83849 -14530380.70747  20207052.9084   20207058.0284
       242.0004        210.0004
  21517606.2584  -18874115.28849 -14697136.64647  21517605.9214   21517610.0444
       238.0004        196.0004
  22444684.0594  -15935225.01349 -12401212.53646  22444683.2494   22444689.3184
       229.0004        178.0004
  22480582.4084  -12991485.23249  -9899850.19646  22480582.2274   22480589.9704
       219.0004        165.0004
  24287670.8654   -4362952.83549  -3385607.53445  24287669.0474   24287678.7114
       207.0004        140.0004
  22685362.3894  -10682849.65449  -8313521.20246  22685362.1214   22685368.4484
       221.0004        168.0004
  22833560.3904    6427868.59949   5021207.22546  22833561.2244   22833567.3814
       224.0004        171.0004
  23413921.8904    8036251.48249   6268617.10945  23413920.9304   23413928.5424
       217.0004        159.0004
  24340095.6624   -1243029.81649   -957512.20945  24340096.1224   24340099.9484
       207.0004        136.0004
 05  3 30 19 22 30.0000000  0  9G 6G21G18G26G15G29G30G10G16
  20205618.0264  -18671752.14349 -14536257.06947  20205617.9224   20205623.1694
       242.0004        210.0004
  21510308.8184  -18912463.65149 -14727018.49447  21510308.6134   21510312.4934
       238.0004        196.0004
  22428252.3484  -16021574.28449 -12468497.65346  22428251.6544   22428257.6034
       229.0004        179.0004
  22467096.8214  -13062352.68849  -9955071.53346  22467096.5734   22467104.3844
       220.0004        165.0004
  24273795.8134   -4435867.23249  -3442423.92645  24273794.8914   24273802.3074
       206.0004        140.0004
  22680033.5314  -10710852.89449  -8335341.88246  22680033.3404   22680040.5734
       221.0004        169.0004
  22851869.9114    6524085.28449   5096181.12946  22851871.0494   22851876.5584
       225.0004        171.0004
  23433346.7364    8138328.90649   6348157.87645  23433346.3724   23433354.3754
       217.0004        159.0004
  24327215.0284   -1310718.01949  -1010256.24345  24327214.0704   24327221.4234
       206.0004        138.0004
 05  3 30 19 23  0.0000000  0  9G 6G21G18G26G15G29G30G10G16
  20204264.1674  -18678866.67049 -14541800.87847  20204264.2094   20204269.3244
       241.0004        210.0004
  21503039.5674  -18950663.85649 -14756784.89447  21503039.1864   21503043.3784
       238.0004        196.0004
  22411878.3624  -16107620.21349 -12535546.39946  22411878.2204   22411883.4074
       230.0004        179.0004
  22453686.5414  -13132824.00749 -10009984.19846  22453686.1974   22453693.9124
       221.0004        166.0004
  24259933.5864   -4508713.22249  -3499186.99945  24259932.9984   24259942.3064
       208.0004        141.0004
  22674797.9784  -10738365.86049  -8356780.53546  22674798.0044   22674804.5624
       221.0004        169.0004
  22870210.0964    6620462.89749   5171280.44346  22870210.8234   22870217.3344
       224.0004        171.0004
  23452801.5124    8240563.77649   6427821.33545  23452799.9944   23452808.3624
       217.0004        159.0004
  24314412.6884   -1377994.83749  -1062679.72145  24314412.3634   24314418.9034
       205.0004        138.0004
